Wetterdaten: Montag, 01.10.2018
Datum Zeit Temp. A. Pool Temp. Temp. 5cm Feuchte A. Luftdruck Regen Wind Richtung Richtung Sonnenschein ET UV Solar Taupunkt Windchill Windben Empfang
01.10.2018 00:00 7,0 C 13,9 C 5,0 C 87 % 1012,5 hPa 0,0 l/m 3,0 km/h (1 Bft) S-SW 192 0 min 0,000 mm 0,0 UV-I 0 W/m 5,0 C 7,0 C 3,2 km/h (1 Bft) 95,74 %
01.10.2018 00:02 6,9 C 13,9 C 5,0 C 87 % 1012,5 hPa 0,0 l/m 3,2 km/h (1 Bft) S-SW 192 0 min 0,000 mm 0,0 UV-I 0 W/m 4,9 C 6,9 C 3,2 km/h (1 Bft) 93,33 %
01.10.2018 00:04 6,9 C 13,9 C 5,0 C 88 % 1012,5 hPa 0,0 l/m 3,8 km/h (1 Bft) S-SW 192 0 min 0,000 mm 0,0 UV-I 0 W/m 5,1 C 6,9 C 4,8 km/h (1 Bft) 93,62 %
01.10.2018 00:06 6,9 C 13,9 C 5,0 C 87 % 1012,5 hPa 0,0 l/m 3,7 km/h (1 Bft) S-SW 192 0 min 0,000 mm 0,0 UV-I 0 W/m 4,9 C 6,9 C 4,8 km/h (1 Bft) 93,62 %
01.10.2018 00:08 6,8 C 13,9 C 5,0 C 87 % 1012,4 hPa 0,0 l/m 3,4 km/h (1 Bft) S-SW 192 0 min 0,000 mm 0,0 UV-I 0 W/m 4,8 C 6,8 C 4,8 km/h (1 Bft) 91,49 %
01.10.2018 00:10 6,7 C 13,9 C 5,0 C 88 % 1012,4 hPa 0,0 l/m 3,5 km/h (1 Bft) S-SW 192 0 min 0,000 mm 0,0 UV-I 0 W/m 4,9 C 6,7 C 4,8 km/h (1 Bft) 89,36 %
01.10.2018 00:12 6,7 C 13,9 C 5,0 C 89 % 1012,4 hPa 0,0 l/m 3,2 km/h (1 Bft) S-SW 192 0 min 0,000 mm 0,0 UV-I 0 W/m 5,0 C 6,7 C 4,8 km/h (1 Bft) 93,62 %
01.10.2018 00:14 6,7 C 13,9 C 5,0 C 89 % 1012,4 hPa 0,0 l/m 3,1 km/h (1 Bft) S-SW 192 0 min 0,000 mm 0,0 UV-I 0 W/m 5,0 C 6,7 C 3,2 km/h (1 Bft) 93,62 %
01.10.2018 00:16 7,0 C 13,9 C 5,0 C 90 % 1012,4 hPa 0,0 l/m 3,5 km/h (1 Bft) S-SW 192 0 min 0,000 mm 0,0 UV-I 0 W/m 5,5 C 7,0 C 4,8 km/h (1 Bft) 91,49 %
01.10.2018 00:18 7,2 C 13,9 C 5,0 C 90 % 1012,4 hPa 0,0 l/m 3,3 km/h (1 Bft) S-SW 192 0 min 0,000 mm 0,0 UV-I 0 W/m 5,7 C 7,2 C 4,8 km/h (1 Bft) 93,62 %
01.10.2018 00:20 7,2 C 13,9 C 5,6 C 90 % 1012,4 hPa 0,0 l/m 3,1 km/h (1 Bft) S-SW 192 0 min 0,000 mm 0,0 UV-I 0 W/m 5,7 C 7,2 C 4,8 km/h (1 Bft) 92,31 %
01.10.2018 00:22 7,0 C 13,9 C 5,6 C 90 % 1012,4 hPa 0,0 l/m 3,6 km/h (1 Bft) S-SW 192 0 min 0,000 mm 0,0 UV-I 0 W/m 5,5 C 7,0 C 4,8 km/h (1 Bft) 91,49 %
01.10.2018 00:24 6,9 C 13,9 C 5,6 C 90 % 1012,4 hPa 0,0 l/m 3,8 km/h (1 Bft) S-SW 192 0 min 0,000 mm 0,0 UV-I 0 W/m 5,4 C 6,9 C 4,8 km/h (1 Bft) 91,49 %
01.10.2018 00:26 6,8 C 13,9 C 5,6 C 90 % 1012,4 hPa 0,0 l/m 4,3 km/h (1 Bft) S-SW 192 0 min 0,000 mm 0,0 UV-I 0 W/m 5,3 C 6,8 C 4,8 km/h (1 Bft) 93,62 %
01.10.2018 00:28 6,7 C 13,9 C 5,0 C 90 % 1012,4 hPa 0,0 l/m 3,9 km/h (1 Bft) S-SW 192 0 min 0,000 mm 0,0 UV-I 0 W/m 5,2 C 6,7 C 4,8 km/h (1 Bft) 91,49 %
01.10.2018 00:30 6,6 C 13,9 C 5,0 C 89 % 1012,4 hPa 0,0 l/m 3,7 km/h (1 Bft) S-SW 192 0 min 0,000 mm 0,0 UV-I 0 W/m 4,9 C 6,6 C 4,8 km/h (1 Bft) 95,74 %
01.10.2018 00:32 6,4 C 13,9 C 5,0 C 89 % 1012,3 hPa 0,0 l/m 3,5 km/h (1 Bft) S-SW 192 0 min 0,000 mm 0,0 UV-I 0 W/m 4,7 C 6,4 C 4,8 km/h (1 Bft) 95,74 %
01.10.2018 00:34 6,3 C 13,9 C 4,4 C 90 % 1012,2 hPa 0,0 l/m 4,0 km/h (1 Bft) S-SW 192 0 min 0,000 mm 0,0 UV-I 0 W/m 4,8 C 6,3 C 4,8 km/h (1 Bft) 97,87 %
01.10.2018 00:36 6,3 C 13,9 C 4,4 C 90 % 1012,2 hPa 0,0 l/m 3,9 km/h (1 Bft) S-SW 192 0 min 0,000 mm 0,0 UV-I 0 W/m 4,8 C 6,3 C 4,8 km/h (1 Bft) 100,00 %
01.10.2018 00:38 6,4 C 13,9 C 4,4 C 91 % 1012,2 hPa 0,0 l/m 3,7 km/h (1 Bft) S-SW 192 0 min 0,000 mm 0,0 UV-I 0 W/m 5,0 C 6,4 C 4,8 km/h (1 Bft) 100,00 %
01.10.2018 00:40 6,4 C 13,9 C 4,4 C 91 % 1012,2 hPa 0,0 l/m 4,0 km/h (1 Bft) S-SW 192 0 min 0,000 mm 0,0 UV-I 0 W/m 5,0 C 6,4 C 4,8 km/h (1 Bft) 97,87 %
01.10.2018 00:42 6,5 C 13,9 C 4,4 C 91 % 1012,2 hPa 0,0 l/m 3,8 km/h (1 Bft) S-SW 192 0 min 0,000 mm 0,0 UV-I 0 W/m 5,1 C 6,5 C 4,8 km/h (1 Bft) 97,87 %
01.10.2018 00:44 6,6 C 13,9 C 4,4 C 92 % 1012,2 hPa 0,0 l/m 3,8 km/h (1 Bft) S-SW 192 0 min 0,000 mm 0,0 UV-I 0 W/m 5,4 C 6,6 C 4,8 km/h (1 Bft) 100,00 %
01.10.2018 00:46 6,7 C 13,9 C 4,4 C 92 % 1012,1 hPa 0,0 l/m 3,1 km/h (1 Bft) S-SW 192 0 min 0,000 mm 0,0 UV-I 0 W/m 5,5 C 6,7 C 4,8 km/h (1 Bft) 100,00 %
01.10.2018 00:48 6,7 C 13,9 C 4,4 C 91 % 1012,2 hPa 0,0 l/m 2,9 km/h (1 Bft) S-SW 192 0 min 0,000 mm 0,0 UV-I 0 W/m 5,3 C 6,7 C 4,8 km/h (1 Bft) 100,00 %
01.10.2018 00:50 6,5 C 13,9 C 4,4 C 91 % 1012,1 hPa 0,0 l/m 2,6 km/h (1 Bft) S-SW 192 0 min 0,000 mm 0,0 UV-I 0 W/m 5,1 C 6,5 C 3,2 km/h (1 Bft) 100,00 %
01.10.2018 00:52 6,3 C 13,9 C 4,4 C 91 % 1012,1 hPa 0,0 l/m 2,4 km/h (1 Bft) S-SW 192 0 min 0,000 mm 0,0 UV-I 0 W/m 4,9 C 6,3 C 3,2 km/h (1 Bft) 100,00 %
01.10.2018 00:54 6,4 C 13,9 C 5,0 C 92 % 1012,1 hPa 0,0 l/m 2,7 km/h (1 Bft) S-SW 192 0 min 0,000 mm 0,0 UV-I 0 W/m 5,2 C 6,4 C 3,2 km/h (1 Bft) 100,00 %
01.10.2018 00:56 6,5 C 13,9 C 5,0 C 92 % 1012,1 hPa 0,0 l/m 2,6 km/h (1 Bft) S-SW 192 0 min 0,000 mm 0,0 UV-I 0 W/m 5,3 C 6,5 C 3,2 km/h (1 Bft) 100,00 %
01.10.2018 00:58 6,6 C 13,9 C 5,0 C 92 % 1012,1 hPa 0,0 l/m 2,7 km/h (1 Bft) S-SW 192 0 min 0,000 mm 0,0 UV-I 0 W/m 5,4 C 6,6 C 3,2 km/h (1 Bft) 97,87 %
01.10.2018 01:00 6,7 C 13,9 C 4,4 C 92 % 1012,1 hPa 0,0 l/m 2,3 km/h (1 Bft) S-SW 192 0 min 0,000 mm 0,0 UV-I 0 W/m 5,5 C 6,7 C 3,2 km/h (1 Bft) 100,00 %
01.10.2018 01:01 6,8 C 13,9 C 5,0 C 92 % 1012,1 hPa 0,0 l/m 2,9 km/h (1 Bft) S-SW 192 0 min 0,000 mm 0,0 UV-I 0 W/m 5,6 C 6,8 C 3,2 km/h (1 Bft) 100,00 %
01.10.2018 01:04 6,8 C 13,9 C 5,0 C 91 % 1012,0 hPa 0,0 l/m 3,2 km/h (1 Bft) S-SW 192 0 min 0,000 mm 0,0 UV-I 0 W/m 5,4 C 6,8 C 4,8 km/h (1 Bft) 100,00 %
01.10.2018 01:06 6,7 C 13,9 C 4,4 C 91 % 1012,0 hPa 0,0 l/m 2,7 km/h (1 Bft) S-SW 192 0 min 0,000 mm 0,0 UV-I 0 W/m 5,3 C 6,7 C 3,2 km/h (1 Bft) 100,00 %
01.10.2018 01:08 6,5 C 13,9 C 4,4 C 90 % 1012,1 hPa 0,0 l/m 2,5 km/h (1 Bft) S-SW 192 0 min 0,000 mm 0,0 UV-I 0 W/m 5,0 C 6,5 C 3,2 km/h (1 Bft) 98,00 %
01.10.2018 01:10 6,4 C 13,9 C 4,4 C 90 % 1012,0 hPa 0,0 l/m 2,5 km/h (1 Bft) S-SW 192 0 min 0,000 mm 0,0 UV-I 0 W/m 4,9 C 6,4 C 3,2 km/h (1 Bft) 100,00 %
01.10.2018 01:12 6,4 C 13,9 C 4,4 C 90 % 1012,0 hPa 0,0 l/m 3,1 km/h (1 Bft) S-SW 192 0 min 0,000 mm 0,0 UV-I 0 W/m 4,9 C 6,4 C 3,2 km/h (1 Bft) 100,00 %
01.10.2018 01:14 6,3 C 13,9 C 4,4 C 90 % 1012,0 hPa 0,0 l/m 3,2 km/h (1 Bft) S-SW 192 0 min 0,000 mm 0,0 UV-I 0 W/m 4,8 C 6,3 C 4,8 km/h (1 Bft) 94,00 %
01.10.2018 01:16 6,2 C 13,9 C 4,4 C 90 % 1011,9 hPa 0,0 l/m 3,4 km/h (1 Bft) S-SW 192 0 min 0,000 mm 0,0 UV-I 0 W/m 4,7 C 6,2 C 4,8 km/h (1 Bft) 97,37 %
01.10.2018 01:18 6,0 C 13,9 C 4,4 C 90 % 1011,9 hPa 0,0 l/m 2,8 km/h (1 Bft) S-SW 192 0 min 0,000 mm 0,0 UV-I 0 W/m 4,5 C 6,0 C 3,2 km/h (1 Bft) 100,00 %
01.10.2018 01:20 6,0 C 13,9 C 4,4 C 91 % 1011,9 hPa 0,0 l/m 2,4 km/h (1 Bft) S-SW 192 0 min 0,000 mm 0,0 UV-I 0 W/m 4,6 C 6,0 C 3,2 km/h (1 Bft) 97,87 %
01.10.2018 01:22 6,2 C 13,9 C 4,4 C 92 % 1012,0 hPa 0,0 l/m 1,3 km/h (1 Bft) S-SW 192 0 min 0,000 mm 0,0 UV-I 0 W/m 5,0 C 6,2 C 1,6 km/h (1 Bft) 97,87 %
01.10.2018 01:24 6,3 C 13,9 C 4,4 C 92 % 1012,0 hPa 0,0 l/m 1,2 km/h (1 Bft) S-SW 192 0 min 0,000 mm 0,0 UV-I 0 W/m 5,1 C 6,3 C 1,6 km/h (1 Bft) 97,87 %
01.10.2018 01:26 6,3 C 13,9 C 3,9 C 92 % 1012,0 hPa 0,0 l/m 1,1 km/h (1 Bft) S-SW 192 0 min 0,000 mm 0,0 UV-I 0 W/m 5,1 C 6,3 C 1,6 km/h (1 Bft) 95,83 %
01.10.2018 01:28 6,4 C 13,9 C 3,9 C 91 % 1012,0 hPa 0,0 l/m 0,4 km/h (0 Bft) S-SW 192 0 min 0,000 mm 0,0 UV-I 0 W/m 5,0 C 6,4 C 1,6 km/h (1 Bft) 98,04 %
01.10.2018 01:30 6,5 C 13,9 C 3,9 C 91 % 1011,9 hPa 0,0 l/m 0,0 km/h (0 Bft) S-SW 192 0 min 0,000 mm 0,0 UV-I 0 W/m 5,1 C 6,5 C 0,0 km/h (0 Bft) 98,00 %
01.10.2018 01:32 6,6 C 13,9 C 3,9 C 91 % 1011,9 hPa 0,0 l/m 0,0 km/h (0 Bft) S-SW 192 0 min 0,000 mm 0,0 UV-I 0 W/m 5,2 C 6,6 C 0,0 km/h (0 Bft) 95,74 %
01.10.2018 01:34 6,6 C 13,9 C 3,3 C 91 % 1011,9 hPa 0,0 l/m 0,0 km/h (0 Bft) S-SW 192 0 min 0,000 mm 0,0 UV-I 0 W/m 5,2 C 6,6 C 0,0 km/h (0 Bft) 97,37 %
01.10.2018 01:36 6,7 C 13,9 C 3,9 C 91 % 1011,9 hPa 0,0 l/m 1,5 km/h (1 Bft) S-SW 192 0 min 0,000 mm 0,0 UV-I 0 W/m 5,3 C 6,7 C 3,2 km/h (1 Bft) 93,75 %
01.10.2018 01:38 6,6 C 13,9 C 3,9 C 91 % 1011,8 hPa 0,0 l/m 1,6 km/h (1 Bft) S-SW 192 0 min 0,000 mm 0,0 UV-I 0 W/m 5,2 C 6,6 C 3,2 km/h (1 Bft) 97,87 %
01.10.2018 01:40 6,6 C 13,9 C 3,9 C 91 % 1011,8 hPa 0,0 l/m 2,2 km/h (1 Bft) S-SW 192 0 min 0,000 mm 0,0 UV-I 0 W/m 5,2 C 6,6 C 3,2 km/h (1 Bft) 97,87 %
01.10.2018 01:42 6,6 C 13,9 C 4,4 C 91 % 1011,8 hPa 0,0 l/m 3,4 km/h (1 Bft) S-SW 192 0 min 0,000 mm 0,0 UV-I 0 W/m 5,2 C 6,6 C 4,8 km/h (1 Bft) 98,00 %
01.10.2018 01:44 6,4 C 13,9 C 4,4 C 90 % 1011,8 hPa 0,0 l/m 2,9 km/h (1 Bft) S-SW 192 0 min 0,000 mm 0,0 UV-I 0 W/m 4,9 C 6,4 C 4,8 km/h (1 Bft) 96,00 %
01.10.2018 01:46 6,2 C 13,9 C 4,4 C 90 % 1011,8 hPa 0,0 l/m 2,6 km/h (1 Bft) S-SW 192 0 min 0,000 mm 0,0 UV-I 0 W/m 4,7 C 6,2 C 3,2 km/h (1 Bft) 97,37 %
01.10.2018 01:48 6,1 C 13,9 C 3,9 C 90 % 1011,8 hPa 0,0 l/m 3,6 km/h (1 Bft) S-SW 192 0 min 0,000 mm 0,0 UV-I 0 W/m 4,6 C 6,1 C 4,8 km/h (1 Bft) 100,00 %
01.10.2018 01:50 5,9 C 13,9 C 3,9 C 91 % 1011,8 hPa 0,0 l/m 2,8 km/h (1 Bft) S-SW 192 0 min 0,000 mm 0,0 UV-I 0 W/m 4,5 C 5,9 C 3,2 km/h (1 Bft) 100,00 %
01.10.2018 01:52 5,9 C 13,9 C 3,9 C 91 % 1011,8 hPa 0,0 l/m 1,8 km/h (1 Bft) S-SW 192 0 min 0,000 mm 0,0 UV-I 0 W/m 4,5 C 5,9 C 3,2 km/h (1 Bft) 100,00 %
01.10.2018 01:54 6,1 C 13,9 C 3,3 C 91 % 1011,8 hPa 0,0 l/m 1,2 km/h (1 Bft) S-SW 192 0 min 0,000 mm 0,0 UV-I 0 W/m 4,7 C 6,1 C 1,6 km/h (1 Bft) 100,00 %
01.10.2018 01:56 6,2 C 13,9 C 3,3 C 92 % 1011,7 hPa 0,0 l/m 1,4 km/h (1 Bft) S-SW 192 0 min 0,000 mm 0,0 UV-I 0 W/m 5,0 C 6,2 C 1,6 km/h (1 Bft) 100,00 %
01.10.2018 01:58 6,2 C 13,9 C 3,3 C 92 % 1011,6 hPa 0,0 l/m 0,9 km/h (0 Bft) S-SW 192 0 min 0,000 mm 0,0 UV-I 0 W/m 5,0 C 6,2 C 1,6 km/h (1 Bft) 100,00 %
01.10.2018 02:00 6,2 C 13,9 C 3,3 C 92 % 1011,6 hPa 0,0 l/m 0,7 km/h (0 Bft) S-SW 192 0 min 0,000 mm 0,0 UV-I 0 W/m 5,0 C 6,2 C 1,6 km/h (1 Bft) 100,00 %
01.10.2018 02:02 6,2 C 13,9 C 3,3 C 92 % 1011,6 hPa 0,0 l/m 0,0 km/h (0 Bft) S-SW 192 0 min 0,000 mm 0,0 UV-I 0 W/m 5,0 C 6,2 C 0,0 km/h (0 Bft) 100,00 %
01.10.2018 02:04 6,2 C 13,9 C 3,3 C 92 % 1011,6 hPa 0,0 l/m 0,0 km/h (0 Bft) S-SW 192 0 min 0,000 mm 0,0 UV-I 0 W/m 5,0 C 6,2 C 0,0 km/h (0 Bft) 100,00 %
01.10.2018 02:06 6,3 C 13,9 C 3,9 C 92 % 1011,6 hPa 0,0 l/m 0,0 km/h (0 Bft) S-SW 192 0 min 0,000 mm 0,0 UV-I 0 W/m 5,1 C 6,3 C 0,0 km/h (0 Bft) 97,22 %
01.10.2018 02:08 6,3 C 13,9 C 3,9 C 92 % 1011,6 hPa 0,0 l/m 0,0 km/h (0 Bft) S-SW 192 0 min 0,000 mm 0,0 UV-I 0 W/m 5,1 C 6,3 C 0,0 km/h (0 Bft) 100,00 %
01.10.2018 02:10 6,3 C 13,9 C 3,9 C 92 % 1011,5 hPa 0,0 l/m 0,0 km/h (0 Bft) S-SW 192 0 min 0,000 mm 0,0 UV-I 0 W/m 5,1 C 6,3 C 0,0 km/h (0 Bft) 100,00 %
01.10.2018 02:12 6,2 C 13,9 C 4,4 C 92 % 1011,5 hPa 0,0 l/m 0,0 km/h (0 Bft) S-SW 192 0 min 0,000 mm 0,0 UV-I 0 W/m 5,0 C 6,2 C 0,0 km/h (0 Bft) 95,83 %
01.10.2018 02:14 5,8 C 13,9 C 3,9 C 90 % 1011,5 hPa 0,0 l/m 0,0 km/h (0 Bft) S-SW 192 0 min 0,000 mm 0,0 UV-I 0 W/m 4,3 C 5,8 C 0,0 km/h (0 Bft) 100,00 %
01.10.2018 02:16 5,6 C 13,9 C 3,9 C 91 % 1011,4 hPa 0,0 l/m 0,0 km/h (0 Bft) S-SW 192 0 min 0,000 mm 0,0 UV-I 0 W/m 4,2 C 5,6 C 0,0 km/h (0 Bft) 100,00 %
01.10.2018 02:18 5,5 C 13,9 C 3,9 C 92 % 1011,3 hPa 0,0 l/m 0,0 km/h (0 Bft) S-SW 192 0 min 0,000 mm 0,0 UV-I 0 W/m 4,3 C 5,5 C 0,0 km/h (0 Bft) 100,00 %
01.10.2018 02:20 5,5 C 13,9 C 3,9 C 92 % 1011,3 hPa 0,0 l/m 0,0 km/h (0 Bft) S-SW 192 0 min 0,000 mm 0,0 UV-I 0 W/m 4,3 C 5,5 C 0,0 km/h (0 Bft) 97,87 %
01.10.2018 02:22 5,7 C 13,9 C 3,9 C 93 % 1011,3 hPa 0,0 l/m 0,0 km/h (0 Bft) S-SW 192 0 min 0,000 mm 0,0 UV-I 0 W/m 4,7 C 5,7 C 0,0 km/h (0 Bft) 97,96 %
01.10.2018 02:24 5,9 C 13,9 C 3,9 C 93 % 1011,3 hPa 0,0 l/m 0,0 km/h (0 Bft) S-SW 192 0 min 0,000 mm 0,0 UV-I 0 W/m 4,9 C 5,9 C 0,0 km/h (0 Bft) 97,87 %
01.10.2018 02:26 6,1 C 13,9 C 3,3 C 93 % 1011,3 hPa 0,0 l/m 0,0 km/h (0 Bft) S-SW 192 0 min 0,000 mm 0,0 UV-I 0 W/m 5,1 C 6,1 C 0,0 km/h (0 Bft) 98,00 %
01.10.2018 02:28 6,1 C 13,9 C 3,3 C 93 % 1011,3 hPa 0,0 l/m 0,0 km/h (0 Bft) S-SW 192 0 min 0,000 mm 0,0 UV-I 0 W/m 5,1 C 6,1 C 0,0 km/h (0 Bft) 91,49 %
01.10.2018 02:30 6,1 C 13,9 C 3,3 C 93 % 1011,2 hPa 0,0 l/m 0,0 km/h (0 Bft) S-SW 192 0 min 0,000 mm 0,0 UV-I 0 W/m 5,1 C 6,1 C 0,0 km/h (0 Bft) 97,44 %
01.10.2018 02:32 6,0 C 13,9 C 3,3 C 93 % 1011,2 hPa 0,0 l/m 0,0 km/h (0 Bft) S-SW 192 0 min 0,000 mm 0,0 UV-I 0 W/m 5,0 C 6,0 C 0,0 km/h (0 Bft) 97,87 %
01.10.2018 02:34 6,0 C 13,9 C 3,3 C 93 % 1011,2 hPa 0,0 l/m 0,0 km/h (0 Bft) S-SW 192 0 min 0,000 mm 0,0 UV-I 0 W/m 5,0 C 6,0 C 0,0 km/h (0 Bft) 97,87 %
01.10.2018 02:36 5,9 C 13,9 C 3,3 C 93 % 1011,2 hPa 0,0 l/m 0,0 km/h (0 Bft) S-SW 192 0 min 0,000 mm 0,0 UV-I 0 W/m 4,9 C 5,9 C 0,0 km/h (0 Bft) 97,87 %
01.10.2018 02:38 5,8 C 13,9 C 3,3 C 93 % 1011,2 hPa 0,0 l/m 0,0 km/h (0 Bft) S-SW 192 0 min 0,000 mm 0,0 UV-I 0 W/m 4,8 C 5,8 C 0,0 km/h (0 Bft) 97,87 %
01.10.2018 02:40 5,8 C 13,9 C 3,9 C 93 % 1011,1 hPa 0,0 l/m 0,0 km/h (0 Bft) S-SW 192 0 min 0,000 mm 0,0 UV-I 0 W/m 4,8 C 5,8 C 0,0 km/h (0 Bft) 95,74 %
01.10.2018 02:42 5,8 C 13,9 C 3,3 C 93 % 1011,1 hPa 0,0 l/m 0,0 km/h (0 Bft) S-SW 192 0 min 0,000 mm 0,0 UV-I 0 W/m 4,8 C 5,8 C 0,0 km/h (0 Bft) 93,62 %
01.10.2018 02:44 5,7 C 13,9 C 3,3 C 93 % 1011,1 hPa 0,0 l/m 0,0 km/h (0 Bft) S-SW 192 0 min 0,000 mm 0,0 UV-I 0 W/m 4,7 C 5,7 C 0,0 km/h (0 Bft) 93,62 %
01.10.2018 02:46 5,7 C 13,9 C 3,3 C 93 % 1011,1 hPa 0,0 l/m 0,0 km/h (0 Bft) S-SW 192 0 min 0,000 mm 0,0 UV-I 0 W/m 4,7 C 5,7 C 0,0 km/h (0 Bft) 93,62 %
01.10.2018 02:48 5,4 C 13,9 C 3,3 C 93 % 1011,1 hPa 0,0 l/m 0,0 km/h (0 Bft) S-SW 192 0 min 0,000 mm 0,0 UV-I 0 W/m 4,4 C 5,4 C 0,0 km/h (0 Bft) 89,36 %
01.10.2018 02:50 5,3 C 13,9 C 3,3 C 92 % 1011,1 hPa 0,0 l/m 0,0 km/h (0 Bft) S-SW 192 0 min 0,000 mm 0,0 UV-I 0 W/m 4,1 C 5,3 C 0,0 km/h (0 Bft) 91,49 %
01.10.2018 02:52 5,2 C 13,9 C 3,3 C 92 % 1011,1 hPa 0,0 l/m 0,0 km/h (0 Bft) S-SW 192 0 min 0,000 mm 0,0 UV-I 0 W/m 4,0 C 5,2 C 0,0 km/h (0 Bft) 93,62 %
01.10.2018 02:54 5,2 C 13,9 C 3,3 C 93 % 1011,1 hPa 0,0 l/m 0,0 km/h (0 Bft) S-SW 192 0 min 0,000 mm 0,0 UV-I 0 W/m 4,2 C 5,2 C 0,0 km/h (0 Bft) 93,75 %
01.10.2018 02:56 5,3 C 13,9 C 3,3 C 93 % 1011,0 hPa 0,0 l/m 0,0 km/h (0 Bft) S-SW 192 0 min 0,000 mm 0,0 UV-I 0 W/m 4,3 C 5,3 C 0,0 km/h (0 Bft) 93,62 %
01.10.2018 02:58 5,4 C 13,9 C 3,3 C 94 % 1011,0 hPa 0,0 l/m 0,0 km/h (0 Bft) S-SW 192 0 min 0,000 mm 0,0 UV-I 0 W/m 4,5 C 5,4 C 0,0 km/h (0 Bft) 91,84 %
01.10.2018 03:00 5,6 C 13,9 C 3,3 C 94 % 1011,0 hPa 0,0 l/m 0,0 km/h (0 Bft) S 191 0 min 0,000 mm 0,0 UV-I 0 W/m 4,7 C 5,6 C 0,0 km/h (0 Bft) 96,00 %
01.10.2018 03:02 5,9 C 13,9 C 3,3 C 94 % 1011,0 hPa 0,0 l/m 0,0 km/h (0 Bft) S 191 0 min 0,000 mm 0,0 UV-I 0 W/m 5,0 C 5,9 C 0,0 km/h (0 Bft) 92,11 %
01.10.2018 03:04 6,1 C 13,9 C 3,3 C 94 % 1011,0 hPa 0,0 l/m 0,0 km/h (0 Bft) S 191 0 min 0,000 mm 0,0 UV-I 0 W/m 5,2 C 6,1 C 0,0 km/h (0 Bft) 97,87 %
01.10.2018 03:06 5,9 C 13,9 C 3,3 C 94 % 1011,0 hPa 0,0 l/m 0,0 km/h (0 Bft) S 191 0 min 0,000 mm 0,0 UV-I 0 W/m 5,0 C 5,9 C 0,0 km/h (0 Bft) 97,87 %
01.10.2018 03:08 5,8 C 13,9 C 3,3 C 93 % 1010,9 hPa 0,0 l/m 0,0 km/h (0 Bft) S 191 0 min 0,000 mm 0,0 UV-I 0 W/m 4,8 C 5,8 C 0,0 km/h (0 Bft) 97,96 %
01.10.2018 03:10 5,7 C 13,9 C 3,3 C 93 % 1011,0 hPa 0,0 l/m 0,0 km/h (0 Bft) S 191 0 min 0,000 mm 0,0 UV-I 0 W/m 4,7 C 5,7 C 0,0 km/h (0 Bft) 97,87 %
01.10.2018 03:12 5,6 C 13,9 C 3,3 C 93 % 1011,0 hPa 0,0 l/m 0,0 km/h (0 Bft) S 191 0 min 0,000 mm 0,0 UV-I 0 W/m 4,6 C 5,6 C 0,0 km/h (0 Bft) 97,87 %
01.10.2018 03:14 5,3 C 13,9 C 3,9 C 93 % 1011,0 hPa 0,0 l/m 0,0 km/h (0 Bft) S 191 0 min 0,000 mm 0,0 UV-I 0 W/m 4,3 C 5,3 C 0,0 km/h (0 Bft) 96,00 %
01.10.2018 03:16 5,1 C 13,9 C 3,9 C 93 % 1011,1 hPa 0,0 l/m 0,0 km/h (0 Bft) S 191 0 min 0,000 mm 0,0 UV-I 0 W/m 4,1 C 5,1 C 0,0 km/h (0 Bft) 98,00 %
01.10.2018 03:18 5,1 C 13,9 C 3,9 C 93 % 1011,1 hPa 0,0 l/m 0,0 km/h (0 Bft) S 191 0 min 0,000 mm 0,0 UV-I 0 W/m 4,1 C 5,1 C 1,6 km/h (1 Bft) 97,87 %
01.10.2018 03:20 5,2 C 13,9 C 3,9 C 93 % 1011,1 hPa 0,0 l/m 0,0 km/h (0 Bft) S 191 0 min 0,000 mm 0,0 UV-I 0 W/m 4,2 C 5,2 C 0,0 km/h (0 Bft) 97,87 %
01.10.2018 03:22 5,2 C 13,9 C 3,3 C 94 % 1011,1 hPa 0,0 l/m 0,0 km/h (0 Bft) S 191 0 min 0,000 mm 0,0 UV-I 0 W/m 4,3 C 5,2 C 0,0 km/h (0 Bft) 97,87 %
01.10.2018 03:24 5,3 C 13,9 C 3,3 C 94 % 1011,1 hPa 0,0 l/m 0,0 km/h (0 Bft) S 191 0 min 0,000 mm 0,0 UV-I 0 W/m 4,4 C 5,3 C 0,0 km/h (0 Bft) 93,62 %
01.10.2018 03:26 5,3 C 13,9 C 3,3 C 94 % 1011,0 hPa 0,0 l/m 0,0 km/h (0 Bft) S 191 0 min 0,000 mm 0,0 UV-I 0 W/m 4,4 C 5,3 C 0,0 km/h (0 Bft) 97,87 %
01.10.2018 03:28 5,1 C 13,9 C 3,3 C 93 % 1010,9 hPa 0,0 l/m 0,0 km/h (0 Bft) S 191 0 min 0,000 mm 0,0 UV-I 0 W/m 4,1 C 5,1 C 0,0 km/h (0 Bft) 97,87 %
01.10.2018 03:30 4,9 C 13,9 C 3,3 C 93 % 1010,9 hPa 0,0 l/m 0,0 km/h (0 Bft) S 191 0 min 0,000 mm 0,0 UV-I 0 W/m 3,9 C 4,9 C 0,0 km/h (0 Bft) 97,87 %
01.10.2018 03:32 5,2 C 13,9 C 3,3 C 94 % 1010,9 hPa 0,0 l/m 0,0 km/h (0 Bft) S 191 0 min 0,000 mm 0,0 UV-I 0 W/m 4,3 C 5,2 C 0,0 km/h (0 Bft) 94,44 %
01.10.2018 03:34 5,4 C 13,9 C 3,3 C 94 % 1010,9 hPa 0,0 l/m 0,0 km/h (0 Bft) S 191 0 min 0,000 mm 0,0 UV-I 0 W/m 4,5 C 5,4 C 0,0 km/h (0 Bft) 97,87 %
01.10.2018 03:36 5,6 C 13,9 C 2,8 C 94 % 1010,9 hPa 0,0 l/m 0,0 km/h (0 Bft) S 191 0 min 0,000 mm 0,0 UV-I 0 W/m 4,7 C 5,6 C 0,0 km/h (0 Bft) 100,00 %
01.10.2018 03:38 5,7 C 13,9 C 2,8 C 94 % 1010,8 hPa 0,0 l/m 0,0 km/h (0 Bft) S 191 0 min 0,000 mm 0,0 UV-I 0 W/m 4,8 C 5,7 C 0,0 km/h (0 Bft) 100,00 %
01.10.2018 03:40 5,6 C 13,9 C 3,3 C 94 % 1010,8 hPa 0,0 l/m 0,0 km/h (0 Bft) S 191 0 min 0,000 mm 0,0 UV-I 0 W/m 4,7 C 5,6 C 0,0 km/h (0 Bft) 100,00 %
01.10.2018 03:42 5,3 C 13,9 C 3,3 C 93 % 1010,7 hPa 0,0 l/m 0,0 km/h (0 Bft) S 191 0 min 0,000 mm 0,0 UV-I 0 W/m 4,3 C 5,3 C 0,0 km/h (0 Bft) 100,00 %
01.10.2018 03:44 5,1 C 13,9 C 3,3 C 93 % 1010,7 hPa 0,0 l/m 0,0 km/h (0 Bft) S 191 0 min 0,000 mm 0,0 UV-I 0 W/m 4,1 C 5,1 C 0,0 km/h (0 Bft) 97,87 %
01.10.2018 03:46 5,1 C 13,9 C 3,3 C 93 % 1010,7 hPa 0,0 l/m 0,0 km/h (0 Bft) S 191 0 min 0,000 mm 0,0 UV-I 0 W/m 4,1 C 5,1 C 0,0 km/h (0 Bft) 100,00 %
01.10.2018 03:48 5,1 C 13,9 C 3,3 C 94 % 1010,7 hPa 0,0 l/m 0,0 km/h (0 Bft) S 191 0 min 0,000 mm 0,0 UV-I 0 W/m 4,2 C 5,1 C 0,0 km/h (0 Bft) 100,00 %
01.10.2018 03:50 5,2 C 13,9 C 3,3 C 94 % 1010,7 hPa 0,0 l/m 0,0 km/h (0 Bft) S 191 0 min 0,000 mm 0,0 UV-I 0 W/m 4,3 C 5,2 C 0,0 km/h (0 Bft) 100,00 %
01.10.2018 03:52 5,3 C 13,9 C 3,3 C 94 % 1010,7 hPa 0,0 l/m 0,0 km/h (0 Bft) S 191 0 min 0,000 mm 0,0 UV-I 0 W/m 4,4 C 5,3 C 0,0 km/h (0 Bft) 95,74 %
01.10.2018 03:54 5,4 C 13,9 C 3,3 C 94 % 1010,7 hPa 0,0 l/m 0,0 km/h (0 Bft) S 191 0 min 0,000 mm 0,0 UV-I 0 W/m 4,5 C 5,4 C 0,0 km/h (0 Bft) 100,00 %
01.10.2018 03:56 5,3 C 13,9 C 3,3 C 94 % 1010,7 hPa 0,0 l/m 0,0 km/h (0 Bft) S 191 0 min 0,000 mm 0,0 UV-I 0 W/m 4,4 C 5,3 C 0,0 km/h (0 Bft) 98,00 %
01.10.2018 03:58 5,1 C 13,3 C 3,3 C 94 % 1010,7 hPa 0,0 l/m 0,0 km/h (0 Bft) S 191 0 min 0,000 mm 0,0 UV-I 0 W/m 4,2 C 5,1 C 0,0 km/h (0 Bft) 96,00 %
01.10.2018 04:00 5,0 C 13,3 C 3,3 C 93 % 1010,7 hPa 0,0 l/m 0,0 km/h (0 Bft) S 191 0 min 0,000 mm 0,0 UV-I 0 W/m 4,0 C 5,0 C 0,0 km/h (0 Bft) 100,00 %
01.10.2018 04:02 4,9 C 13,3 C 3,3 C 93 % 1010,7 hPa 0,0 l/m 0,0 km/h (0 Bft) S 191 0 min 0,000 mm 0,0 UV-I 0 W/m 3,9 C 4,9 C 0,0 km/h (0 Bft) 100,00 %
01.10.2018 04:04 4,9 C 13,3 C 3,3 C 94 % 1010,7 hPa 0,0 l/m 0,0 km/h (0 Bft) S 191 0 min 0,000 mm 0,0 UV-I 0 W/m 4,0 C 4,9 C 0,0 km/h (0 Bft) 100,00 %
01.10.2018 04:06 5,0 C 13,3 C 3,3 C 94 % 1010,7 hPa 0,0 l/m 0,0 km/h (0 Bft) S 191 0 min 0,000 mm 0,0 UV-I 0 W/m 4,1 C 5,0 C 0,0 km/h (0 Bft) 95,83 %
01.10.2018 04:08 5,0 C 13,3 C 3,3 C 94 % 1010,7 hPa 0,0 l/m 0,0 km/h (0 Bft) S 191 0 min 0,000 mm 0,0 UV-I 0 W/m 4,1 C 5,0 C 0,0 km/h (0 Bft) 95,74 %
01.10.2018 04:10 5,0 C 13,3 C 3,3 C 94 % 1010,6 hPa 0,0 l/m 0,0 km/h (0 Bft) S 191 0 min 0,000 mm 0,0 UV-I 0 W/m 4,1 C 5,0 C 0,0 km/h (0 Bft) 95,74 %
01.10.2018 04:12 5,0 C 13,3 C 3,3 C 94 % 1010,7 hPa 0,0 l/m 0,0 km/h (0 Bft) S 191 0 min 0,000 mm 0,0 UV-I 0 W/m 4,1 C 5,0 C 0,0 km/h (0 Bft) 97,87 %
01.10.2018 04:14 5,1 C 13,3 C 3,3 C 94 % 1010,6 hPa 0,0 l/m 0,0 km/h (0 Bft) S 191 0 min 0,000 mm 0,0 UV-I 0 W/m 4,2 C 5,1 C 0,0 km/h (0 Bft) 97,87 %
01.10.2018 04:16 5,2 C 13,3 C 2,8 C 94 % 1010,6 hPa 0,0 l/m 0,0 km/h (0 Bft) S 191 0 min 0,000 mm 0,0 UV-I 0 W/m 4,3 C 5,2 C 0,0 km/h (0 Bft) 97,87 %
01.10.2018 04:18 5,2 C 13,3 C 2,8 C 94 % 1010,6 hPa 0,0 l/m 0,0 km/h (0 Bft) S 191 0 min 0,000 mm 0,0 UV-I 0 W/m 4,3 C 5,2 C 0,0 km/h (0 Bft) 97,87 %
01.10.2018 04:20 5,2 C 13,3 C 2,8 C 94 % 1010,6 hPa 0,0 l/m 0,0 km/h (0 Bft) S 191 0 min 0,000 mm 0,0 UV-I 0 W/m 4,3 C 5,2 C 0,0 km/h (0 Bft) 95,74 %
01.10.2018 04:22 5,3 C 13,3 C 3,3 C 94 % 1010,6 hPa 0,0 l/m 0,0 km/h (0 Bft) S 191 0 min 0,000 mm 0,0 UV-I 0 W/m 4,4 C 5,3 C 0,0 km/h (0 Bft) 97,87 %
01.10.2018 04:24 5,1 C 13,3 C 3,3 C 93 % 1010,5 hPa 0,0 l/m 0,0 km/h (0 Bft) S 191 0 min 0,000 mm 0,0 UV-I 0 W/m 4,1 C 5,1 C 0,0 km/h (0 Bft) 100,00 %
01.10.2018 04:26 4,8 C 13,3 C 3,3 C 93 % 1010,4 hPa 0,0 l/m 0,0 km/h (0 Bft) S 191 0 min 0,000 mm 0,0 UV-I 0 W/m 3,8 C 4,8 C 0,0 km/h (0 Bft) 100,00 %
01.10.2018 04:28 4,7 C 13,3 C 3,3 C 93 % 1010,4 hPa 0,0 l/m 0,0 km/h (0 Bft) S 191 0 min 0,000 mm 0,0 UV-I 0 W/m 3,7 C 4,7 C 0,0 km/h (0 Bft) 100,00 %
01.10.2018 04:30 4,8 C 13,3 C 3,3 C 93 % 1010,4 hPa 0,0 l/m 0,0 km/h (0 Bft) S 191 0 min 0,000 mm 0,0 UV-I 0 W/m 3,8 C 4,8 C 0,0 km/h (0 Bft) 100,00 %
01.10.2018 04:32 4,9 C 13,3 C 3,9 C 94 % 1010,4 hPa 0,0 l/m 0,0 km/h (0 Bft) S 191 0 min 0,000 mm 0,0 UV-I 0 W/m 4,0 C 4,9 C 0,0 km/h (0 Bft) 100,00 %
01.10.2018 04:34 5,1 C 13,3 C 3,9 C 94 % 1010,3 hPa 0,0 l/m 0,0 km/h (0 Bft) S 191 0 min 0,000 mm 0,0 UV-I 0 W/m 4,2 C 5,1 C 0,0 km/h (0 Bft) 100,00 %
01.10.2018 04:36 4,9 C 13,3 C 3,9 C 94 % 1010,3 hPa 0,0 l/m 0,0 km/h (0 Bft) S 191 0 min 0,000 mm 0,0 UV-I 0 W/m 4,0 C 4,9 C 0,0 km/h (0 Bft) 97,87 %
01.10.2018 04:38 5,0 C 13,3 C 3,9 C 94 % 1010,3 hPa 0,0 l/m 0,0 km/h (0 Bft) S 191 0 min 0,000 mm 0,0 UV-I 0 W/m 4,1 C 5,0 C 0,0 km/h (0 Bft) 100,00 %
01.10.2018 04:40 5,3 C 13,3 C 4,4 C 95 % 1010,3 hPa 0,0 l/m 0,0 km/h (0 Bft) S 191 0 min 0,000 mm 0,0 UV-I 0 W/m 4,6 C 5,3 C 0,0 km/h (0 Bft) 100,00 %
01.10.2018 04:42 5,4 C 13,3 C 5,0 C 95 % 1010,2 hPa 0,0 l/m 0,0 km/h (0 Bft) S 191 0 min 0,000 mm 0,0 UV-I 0 W/m 4,7 C 5,4 C 0,0 km/h (0 Bft) 100,00 %
01.10.2018 04:44 5,4 C 13,3 C 5,0 C 94 % 1010,3 hPa 0,0 l/m 0,0 km/h (0 Bft) S 191 0 min 0,000 mm 0,0 UV-I 0 W/m 4,5 C 5,4 C 0,0 km/h (0 Bft) 95,83 %
01.10.2018 04:46 5,4 C 13,3 C 5,0 C 95 % 1010,2 hPa 0,0 l/m 0,0 km/h (0 Bft) S 191 0 min 0,000 mm 0,0 UV-I 0 W/m 4,7 C 5,4 C 0,0 km/h (0 Bft) 97,87 %
01.10.2018 04:48 5,5 C 13,3 C 5,6 C 95 % 1010,2 hPa 0,0 l/m 0,0 km/h (0 Bft) S 191 0 min 0,000 mm 0,0 UV-I 0 W/m 4,8 C 5,5 C 0,0 km/h (0 Bft) 95,74 %
01.10.2018 04:50 5,5 C 13,3 C 5,6 C 94 % 1010,2 hPa 0,0 l/m 0,0 km/h (0 Bft) S 191 0 min 0,000 mm 0,0 UV-I 0 W/m 4,6 C 5,5 C 0,0 km/h (0 Bft) 95,74 %
01.10.2018 04:52 5,5 C 13,3 C 5,6 C 94 % 1010,2 hPa 0,0 l/m 0,0 km/h (0 Bft) S 191 0 min 0,000 mm 0,0 UV-I 0 W/m 4,6 C 5,5 C 0,0 km/h (0 Bft) 95,74 %
01.10.2018 04:54 5,5 C 13,3 C 5,6 C 94 % 1010,2 hPa 0,0 l/m 0,0 km/h (0 Bft) S 191 0 min 0,000 mm 0,0 UV-I 0 W/m 4,6 C 5,5 C 0,0 km/h (0 Bft) 95,74 %
01.10.2018 04:56 5,5 C 13,3 C 5,0 C 94 % 1010,2 hPa 0,0 l/m 0,0 km/h (0 Bft) S 191 0 min 0,000 mm 0,0 UV-I 0 W/m 4,6 C 5,5 C 0,0 km/h (0 Bft) 95,74 %
01.10.2018 04:58 5,4 C 13,3 C 5,0 C 94 % 1010,2 hPa 0,0 l/m 0,0 km/h (0 Bft) S 191 0 min 0,000 mm 0,0 UV-I 0 W/m 4,5 C 5,4 C 0,0 km/h (0 Bft) 97,87 %
01.10.2018 05:00 5,4 C 13,3 C 5,0 C 94 % 1010,1 hPa 0,0 l/m 0,0 km/h (0 Bft) S 191 0 min 0,000 mm 0,0 UV-I 0 W/m 4,5 C 5,4 C 0,0 km/h (0 Bft) 97,87 %
01.10.2018 05:02 5,4 C 13,3 C 5,0 C 94 % 1010,2 hPa 0,0 l/m 0,0 km/h (0 Bft) S 191 0 min 0,000 mm 0,0 UV-I 0 W/m 4,5 C 5,4 C 0,0 km/h (0 Bft) 95,74 %
01.10.2018 05:04 5,4 C 13,3 C 5,0 C 94 % 1010,2 hPa 0,0 l/m 0,0 km/h (0 Bft) S 191 0 min 0,000 mm 0,0 UV-I 0 W/m 4,5 C 5,4 C 0,0 km/h (0 Bft) 95,74 %
01.10.2018 05:06 5,3 C 13,3 C 4,4 C 94 % 1010,2 hPa 0,0 l/m 0,0 km/h (0 Bft) S 191 0 min 0,000 mm 0,0 UV-I 0 W/m 4,4 C 5,3 C 0,0 km/h (0 Bft) 95,74 %
01.10.2018 05:08 5,1 C 13,3 C 4,4 C 93 % 1010,1 hPa 0,0 l/m 0,0 km/h (0 Bft) S 191 0 min 0,000 mm 0,0 UV-I 0 W/m 4,1 C 5,1 C 0,0 km/h (0 Bft) 97,87 %
01.10.2018 05:10 5,1 C 13,3 C 3,9 C 93 % 1010,1 hPa 0,0 l/m 0,0 km/h (0 Bft) S 191 0 min 0,000 mm 0,0 UV-I 0 W/m 4,1 C 5,1 C 0,0 km/h (0 Bft) 97,87 %
01.10.2018 05:12 5,1 C 13,3 C 3,9 C 94 % 1010,0 hPa 0,0 l/m 0,0 km/h (0 Bft) S 191 0 min 0,000 mm 0,0 UV-I 0 W/m 4,2 C 5,1 C 0,0 km/h (0 Bft) 96,23 %
01.10.2018 05:14 5,2 C 13,3 C 3,9 C 94 % 1010,0 hPa 0,0 l/m 0,0 km/h (0 Bft) S 191 0 min 0,000 mm 0,0 UV-I 0 W/m 4,3 C 5,2 C 0,0 km/h (0 Bft) 95,74 %
01.10.2018 05:16 5,1 C 13,3 C 3,9 C 93 % 1010,0 hPa 0,0 l/m 0,0 km/h (0 Bft) S 191 0 min 0,000 mm 0,0 UV-I 0 W/m 4,1 C 5,1 C 0,0 km/h (0 Bft) 94,74 %
01.10.2018 05:18 4,9 C 13,3 C 3,9 C 93 % 1010,0 hPa 0,0 l/m 0,0 km/h (0 Bft) S 191 0 min 0,000 mm 0,0 UV-I 0 W/m 3,9 C 4,9 C 0,0 km/h (0 Bft) 95,74 %
01.10.2018 05:20 4,9 C 13,3 C 3,9 C 93 % 1009,9 hPa 0,0 l/m 0,0 km/h (0 Bft) S 191 0 min 0,000 mm 0,0 UV-I 0 W/m 3,9 C 4,9 C 0,0 km/h (0 Bft) 97,87 %
01.10.2018 05:22 5,1 C 13,3 C 3,9 C 94 % 1009,9 hPa 0,0 l/m 0,0 km/h (0 Bft) S 191 0 min 0,000 mm 0,0 UV-I 0 W/m 4,2 C 5,1 C 0,0 km/h (0 Bft) 97,87 %
01.10.2018 05:24 5,2 C 13,3 C 3,3 C 94 % 1009,9 hPa 0,0 l/m 0,0 km/h (0 Bft) S 191 0 min 0,000 mm 0,0 UV-I 0 W/m 4,3 C 5,2 C 0,0 km/h (0 Bft) 97,92 %
01.10.2018 05:26 5,2 C 13,3 C 3,9 C 94 % 1010,0 hPa 0,0 l/m 0,0 km/h (0 Bft) S 191 0 min 0,000 mm 0,0 UV-I 0 W/m 4,3 C 5,2 C 0,0 km/h (0 Bft) 95,74 %
01.10.2018 05:28 5,2 C 13,3 C 3,9 C 94 % 1010,0 hPa 0,0 l/m 0,0 km/h (0 Bft) S 191 0 min 0,000 mm 0,0 UV-I 0 W/m 4,3 C 5,2 C 0,0 km/h (0 Bft) 97,87 %
01.10.2018 05:30 5,2 C 13,3 C 4,4 C 94 % 1010,0 hPa 0,0 l/m 0,0 km/h (0 Bft) S 191 0 min 0,000 mm 0,0 UV-I 0 W/m 4,3 C 5,2 C 0,0 km/h (0 Bft) 98,00 %
01.10.2018 05:32 5,1 C 13,3 C 4,4 C 94 % 1010,0 hPa 0,0 l/m 0,0 km/h (0 Bft) S 191 0 min 0,000 mm 0,0 UV-I 0 W/m 4,2 C 5,1 C 0,0 km/h (0 Bft) 100,00 %
01.10.2018 05:34 5,0 C 13,3 C 4,4 C 94 % 1009,9 hPa 0,0 l/m 0,0 km/h (0 Bft) S 191 0 min 0,000 mm 0,0 UV-I 0 W/m 4,1 C 5,0 C 0,0 km/h (0 Bft) 100,00 %
01.10.2018 05:36 4,9 C 13,3 C 4,4 C 94 % 1009,9 hPa 0,0 l/m 0,0 km/h (0 Bft) S 191 0 min 0,000 mm 0,0 UV-I 0 W/m 4,0 C 4,9 C 0,0 km/h (0 Bft) 98,00 %
01.10.2018 05:38 5,0 C 13,3 C 4,4 C 94 % 1009,9 hPa 0,0 l/m 0,0 km/h (0 Bft) S 191 0 min 0,000 mm 0,0 UV-I 0 W/m 4,1 C 5,0 C 0,0 km/h (0 Bft) 95,74 %
01.10.2018 05:40 5,1 C 13,3 C 5,0 C 94 % 1009,9 hPa 0,0 l/m 0,0 km/h (0 Bft) S 191 0 min 0,000 mm 0,0 UV-I 0 W/m 4,2 C 5,1 C 0,0 km/h (0 Bft) 97,87 %
01.10.2018 05:42 5,1 C 13,3 C 5,0 C 94 % 1009,9 hPa 0,0 l/m 0,0 km/h (0 Bft) S 191 0 min 0,000 mm 0,0 UV-I 0 W/m 4,2 C 5,1 C 0,0 km/h (0 Bft) 97,87 %
01.10.2018 05:44 5,1 C 13,3 C 5,0 C 94 % 1009,9 hPa 0,0 l/m 0,0 km/h (0 Bft) S 191 0 min 0,000 mm 0,0 UV-I 0 W/m 4,2 C 5,1 C 0,0 km/h (0 Bft) 95,74 %
01.10.2018 05:46 5,1 C 13,3 C 5,0 C 94 % 1009,9 hPa 0,0 l/m 0,0 km/h (0 Bft) S 191 0 min 0,000 mm 0,0 UV-I 0 W/m 4,2 C 5,1 C 0,0 km/h (0 Bft) 97,14 %
01.10.2018 05:48 5,2 C 13,3 C 5,0 C 94 % 1009,9 hPa 0,0 l/m 0,0 km/h (0 Bft) S 191 0 min 0,000 mm 0,0 UV-I 0 W/m 4,3 C 5,2 C 0,0 km/h (0 Bft) 97,87 %
01.10.2018 05:50 5,3 C 13,3 C 5,6 C 94 % 1009,9 hPa 0,0 l/m 0,0 km/h (0 Bft) S 191 0 min 0,000 mm 0,0 UV-I 0 W/m 4,4 C 5,3 C 0,0 km/h (0 Bft) 97,87 %
01.10.2018 05:52 5,3 C 13,3 C 5,6 C 94 % 1009,9 hPa 0,0 l/m 0,0 km/h (0 Bft) S 191 0 min 0,000 mm 0,0 UV-I 0 W/m 4,4 C 5,3 C 0,0 km/h (0 Bft) 98,00 %
01.10.2018 05:54 5,4 C 13,3 C 5,6 C 94 % 1009,9 hPa 0,0 l/m 0,0 km/h (0 Bft) S 191 0 min 0,000 mm 0,0 UV-I 0 W/m 4,5 C 5,4 C 0,0 km/h (0 Bft) 95,74 %
01.10.2018 05:56 5,5 C 13,3 C 5,6 C 95 % 1009,9 hPa 0,0 l/m 0,0 km/h (0 Bft) S 191 0 min 0,000 mm 0,0 UV-I 0 W/m 4,8 C 5,5 C 0,0 km/h (0 Bft) 93,62 %
01.10.2018 05:58 5,5 C 13,3 C 5,6 C 95 % 1009,8 hPa 0,0 l/m 0,0 km/h (0 Bft) S 191 0 min 0,000 mm 0,0 UV-I 0 W/m 4,8 C 5,5 C 0,0 km/h (0 Bft) 97,87 %
01.10.2018 06:00 5,6 C 13,3 C 5,6 C 94 % 1009,8 hPa 0,0 l/m 0,0 km/h (0 Bft) S 191 0 min 0,000 mm 0,0 UV-I 0 W/m 4,7 C 5,6 C 0,0 km/h (0 Bft) 97,87 %
01.10.2018 06:02 5,6 C 13,3 C 5,6 C 94 % 1009,8 hPa 0,0 l/m 0,0 km/h (0 Bft) S 191 0 min 0,000 mm 0,0 UV-I 0 W/m 4,7 C 5,6 C 0,0 km/h (0 Bft) 95,74 %
01.10.2018 06:04 5,6 C 13,3 C 5,6 C 94 % 1009,8 hPa 0,0 l/m 0,0 km/h (0 Bft) S 191 0 min 0,000 mm 0,0 UV-I 0 W/m 4,7 C 5,6 C 0,0 km/h (0 Bft) 95,83 %
01.10.2018 06:06 5,6 C 13,3 C 5,6 C 94 % 1009,7 hPa 0,0 l/m 0,0 km/h (0 Bft) S 191 0 min 0,000 mm 0,0 UV-I 0 W/m 4,7 C 5,6 C 0,0 km/h (0 Bft) 93,62 %
01.10.2018 06:08 5,7 C 13,3 C 6,1 C 94 % 1009,7 hPa 0,0 l/m 0,0 km/h (0 Bft) S 191 0 min 0,000 mm 0,0 UV-I 0 W/m 4,8 C 5,7 C 0,0 km/h (0 Bft) 97,87 %
01.10.2018 06:10 5,7 C 13,3 C 6,1 C 94 % 1009,7 hPa 0,0 l/m 0,0 km/h (0 Bft) S 191 0 min 0,000 mm 0,0 UV-I 0 W/m 4,8 C 5,7 C 0,0 km/h (0 Bft) 95,74 %
01.10.2018 06:12 5,7 C 13,3 C 6,1 C 94 % 1009,6 hPa 0,0 l/m 0,0 km/h (0 Bft) S 191 0 min 0,000 mm 0,0 UV-I 0 W/m 4,8 C 5,7 C 0,0 km/h (0 Bft) 97,87 %
01.10.2018 06:14 5,8 C 13,3 C 6,1 C 95 % 1009,6 hPa 0,0 l/m 0,0 km/h (0 Bft) S 191 0 min 0,000 mm 0,0 UV-I 0 W/m 5,1 C 5,8 C 0,0 km/h (0 Bft) 95,74 %
01.10.2018 06:16 5,9 C 13,3 C 6,1 C 95 % 1009,6 hPa 0,0 l/m 0,0 km/h (0 Bft) S 191 0 min 0,000 mm 0,0 UV-I 0 W/m 5,2 C 5,9 C 0,0 km/h (0 Bft) 97,87 %
01.10.2018 06:18 6,0 C 13,3 C 6,1 C 95 % 1009,5 hPa 0,0 l/m 0,0 km/h (0 Bft) S 191 0 min 0,000 mm 0,0 UV-I 0 W/m 5,3 C 6,0 C 0,0 km/h (0 Bft) 97,87 %
01.10.2018 06:20 6,1 C 13,3 C 6,1 C 94 % 1009,5 hPa 0,0 l/m 0,0 km/h (0 Bft) S 191 0 min 0,000 mm 0,0 UV-I 0 W/m 5,2 C 6,1 C 0,0 km/h (0 Bft) 97,87 %
01.10.2018 06:22 6,1 C 13,3 C 6,1 C 94 % 1009,5 hPa 0,0 l/m 0,0 km/h (0 Bft) S 191 0 min 0,000 mm 0,0 UV-I 0 W/m 5,2 C 6,1 C 0,0 km/h (0 Bft) 97,87 %
01.10.2018 06:24 6,1 C 13,3 C 6,1 C 94 % 1009,5 hPa 0,0 l/m 0,0 km/h (0 Bft) S 191 0 min 0,000 mm 0,0 UV-I 0 W/m 5,2 C 6,1 C 0,0 km/h (0 Bft) 97,87 %
01.10.2018 06:26 6,1 C 13,3 C 6,1 C 94 % 1009,5 hPa 0,0 l/m 0,0 km/h (0 Bft) S 191 0 min 0,000 mm 0,0 UV-I 0 W/m 5,2 C 6,1 C 0,0 km/h (0 Bft) 95,74 %
01.10.2018 06:28 6,1 C 13,3 C 6,1 C 94 % 1009,7 hPa 0,0 l/m 0,0 km/h (0 Bft) S 191 0 min 0,000 mm 0,0 UV-I 0 W/m 5,2 C 6,1 C 0,0 km/h (0 Bft) 97,87 %
01.10.2018 06:30 6,1 C 13,3 C 6,1 C 94 % 1009,7 hPa 0,0 l/m 0,0 km/h (0 Bft) S 191 0 min 0,000 mm 0,0 UV-I 0 W/m 5,2 C 6,1 C 0,0 km/h (0 Bft) 95,74 %
01.10.2018 06:32 6,1 C 13,3 C 6,1 C 94 % 1009,7 hPa 0,0 l/m 0,0 km/h (0 Bft) S 191 0 min 0,000 mm 0,0 UV-I 0 W/m 5,2 C 6,1 C 0,0 km/h (0 Bft) 94,00 %
01.10.2018 06:34 6,0 C 13,3 C 6,1 C 94 % 1009,7 hPa 0,0 l/m 0,0 km/h (0 Bft) S 191 0 min 0,000 mm 0,0 UV-I 0 W/m 5,1 C 6,0 C 0,0 km/h (0 Bft) 95,74 %
01.10.2018 06:36 5,9 C 13,3 C 6,1 C 94 % 1009,7 hPa 0,0 l/m 0,0 km/h (0 Bft) S 191 0 min 0,000 mm 0,0 UV-I 0 W/m 5,0 C 5,9 C 0,0 km/h (0 Bft) 94,74 %
01.10.2018 06:38 5,9 C 13,3 C 6,1 C 94 % 1009,8 hPa 0,0 l/m 0,0 km/h (0 Bft) S 191 0 min 0,000 mm 0,0 UV-I 0 W/m 5,0 C 5,9 C 0,0 km/h (0 Bft) 95,74 %
01.10.2018 06:40 5,9 C 13,3 C 6,1 C 94 % 1009,8 hPa 0,0 l/m 0,0 km/h (0 Bft) S 191 0 min 0,000 mm 0,0 UV-I 0 W/m 5,0 C 5,9 C 0,0 km/h (0 Bft) 93,62 %
01.10.2018 06:42 5,9 C 13,3 C 6,1 C 94 % 1009,8 hPa 0,0 l/m 0,0 km/h (0 Bft) S 191 0 min 0,000 mm 0,0 UV-I 0 W/m 5,0 C 5,9 C 0,0 km/h (0 Bft) 97,92 %
01.10.2018 06:44 6,0 C 13,3 C 6,1 C 94 % 1009,8 hPa 0,0 l/m 0,0 km/h (0 Bft) S 191 0 min 0,000 mm 0,0 UV-I 0 W/m 5,1 C 6,0 C 0,0 km/h (0 Bft) 95,74 %
01.10.2018 06:46 5,9 C 13,3 C 6,1 C 94 % 1009,8 hPa 0,0 l/m 0,0 km/h (0 Bft) S 191 0 min 0,000 mm 0,0 UV-I 0 W/m 5,0 C 5,9 C 0,0 km/h (0 Bft) 97,87 %
01.10.2018 06:48 5,9 C 13,3 C 6,1 C 94 % 1009,9 hPa 0,0 l/m 0,0 km/h (0 Bft) S 191 0 min 0,000 mm 0,0 UV-I 0 W/m 5,0 C 5,9 C 0,0 km/h (0 Bft) 95,74 %
01.10.2018 06:50 6,0 C 13,3 C 6,1 C 94 % 1009,9 hPa 0,0 l/m 0,0 km/h (0 Bft) S-SW 192 0 min 0,000 mm 0,0 UV-I 0 W/m 5,1 C 6,0 C 0,0 km/h (0 Bft) 93,62 %
01.10.2018 06:52 6,0 C 13,3 C 6,1 C 94 % 1009,9 hPa 0,0 l/m 0,0 km/h (0 Bft) S-SW 192 0 min 0,000 mm 0,0 UV-I 0 W/m 5,1 C 6,0 C 0,0 km/h (0 Bft) 96,00 %
01.10.2018 06:54 5,9 C 13,3 C 6,1 C 94 % 1009,9 hPa 0,0 l/m 0,0 km/h (0 Bft) S-SW 192 0 min 0,000 mm 0,0 UV-I 0 W/m 5,0 C 5,9 C 0,0 km/h (0 Bft) 96,00 %
01.10.2018 06:56 6,0 C 13,3 C 6,1 C 94 % 1010,0 hPa 0,0 l/m 0,0 km/h (0 Bft) S-SW 192 0 min 0,000 mm 0,0 UV-I 0 W/m 5,1 C 6,0 C 0,0 km/h (0 Bft) 91,49 %
01.10.2018 06:58 6,1 C 13,3 C 6,1 C 94 % 1010,0 hPa 0,0 l/m 0,0 km/h (0 Bft) S-SW 192 0 min 0,000 mm 0,0 UV-I 5 W/m 5,2 C 6,1 C 0,0 km/h (0 Bft) 94,74 %
01.10.2018 07:00 6,1 C 13,3 C 6,1 C 94 % 1010,0 hPa 0,0 l/m 0,0 km/h (0 Bft) W 273 0 min 0,000 mm 0,0 UV-I 6 W/m 5,2 C 6,1 C 0,0 km/h (0 Bft) 97,87 %
01.10.2018 07:02 6,2 C 13,3 C 6,7 C 94 % 1009,9 hPa 0,0 l/m 0,0 km/h (0 Bft) W 273 0 min 0,000 mm 0,0 UV-I 7 W/m 5,3 C 6,2 C 0,0 km/h (0 Bft) 97,87 %
01.10.2018 07:04 6,2 C 13,3 C 6,7 C 94 % 1009,9 hPa 0,0 l/m 0,8 km/h (0 Bft) W 275 0 min 0,000 mm 0,0 UV-I 7 W/m 5,3 C 6,2 C 3,2 km/h (1 Bft) 97,87 %
01.10.2018 07:06 6,2 C 13,3 C 6,7 C 94 % 1009,9 hPa 0,0 l/m 1,8 km/h (1 Bft) W 275 0 min 0,000 mm 0,0 UV-I 9 W/m 5,3 C 6,2 C 3,2 km/h (1 Bft) 97,87 %
01.10.2018 07:08 6,2 C 13,3 C 6,7 C 94 % 1009,9 hPa 0,0 l/m 0,2 km/h (0 Bft) W 275 0 min 0,000 mm 0,0 UV-I 9 W/m 5,3 C 6,2 C 1,6 km/h (1 Bft) 93,62 %
01.10.2018 07:10 6,3 C 13,3 C 6,7 C 94 % 1010,0 hPa 0,0 l/m 0,9 km/h (0 Bft) W 275 0 min 0,000 mm 0,0 UV-I 9 W/m 5,4 C 6,3 C 3,2 km/h (1 Bft) 97,87 %
01.10.2018 07:12 6,3 C 13,3 C 6,7 C 94 % 1009,9 hPa 0,0 l/m 1,3 km/h (1 Bft) W 275 0 min 0,000 mm 0,0 UV-I 11 W/m 5,4 C 6,3 C 3,2 km/h (1 Bft) 95,74 %
01.10.2018 07:14 6,3 C 13,3 C 6,7 C 94 % 1009,9 hPa 0,0 l/m 0,7 km/h (0 Bft) W 275 2 min 0,000 mm 0,0 UV-I 12 W/m 5,4 C 6,3 C 1,6 km/h (1 Bft) 95,74 %
01.10.2018 07:16 6,3 C 13,3 C 6,7 C 94 % 1009,9 hPa 0,0 l/m 0,1 km/h (0 Bft) W 275 0 min 0,000 mm 0,0 UV-I 13 W/m 5,4 C 6,3 C 1,6 km/h (1 Bft) 96,00 %
01.10.2018 07:18 6,3 C 13,3 C 6,7 C 94 % 1010,0 hPa 0,0 l/m 0,9 km/h (0 Bft) W 275 0 min 0,000 mm 0,0 UV-I 14 W/m 5,4 C 6,3 C 3,2 km/h (1 Bft) 97,87 %
01.10.2018 07:20 6,4 C 13,3 C 6,7 C 94 % 1010,0 hPa 0,0 l/m 0,1 km/h (0 Bft) W 275 0 min 0,000 mm 0,0 UV-I 15 W/m 5,5 C 6,4 C 1,6 km/h (1 Bft) 97,87 %
01.10.2018 07:22 6,4 C 13,3 C 6,7 C 94 % 1010,0 hPa 0,0 l/m 0,2 km/h (0 Bft) W 275 0 min 0,000 mm 0,0 UV-I 16 W/m 5,5 C 6,4 C 1,6 km/h (1 Bft) 95,74 %
01.10.2018 07:24 6,4 C 13,3 C 6,7 C 93 % 1010,0 hPa 0,0 l/m 1,4 km/h (1 Bft) W 275 0 min 0,000 mm 0,0 UV-I 17 W/m 5,4 C 6,4 C 3,2 km/h (1 Bft) 97,44 %
01.10.2018 07:26 6,4 C 13,3 C 6,7 C 93 % 1010,0 hPa 0,0 l/m 1,6 km/h (1 Bft) W 275 0 min 0,000 mm 0,0 UV-I 18 W/m 5,4 C 6,4 C 3,2 km/h (1 Bft) 100,00 %
01.10.2018 07:28 6,4 C 13,3 C 6,7 C 93 % 1010,0 hPa 0,0 l/m 1,6 km/h (1 Bft) W 275 0 min 0,000 mm 0,0 UV-I 19 W/m 5,4 C 6,4 C 3,2 km/h (1 Bft) 100,00 %
01.10.2018 07:30 6,4 C 13,3 C 6,7 C 93 % 1010,0 hPa 0,0 l/m 2,4 km/h (1 Bft) W 275 0 min 0,000 mm 0,0 UV-I 19 W/m 5,4 C 6,4 C 3,2 km/h (1 Bft) 100,00 %
01.10.2018 07:32 6,4 C 13,3 C 6,7 C 93 % 1010,0 hPa 0,0 l/m 1,8 km/h (1 Bft) W 275 0 min 0,000 mm 0,0 UV-I 19 W/m 5,4 C 6,4 C 3,2 km/h (1 Bft) 100,00 %
01.10.2018 07:34 6,5 C 13,3 C 6,7 C 93 % 1010,0 hPa 0,0 l/m 1,8 km/h (1 Bft) W 275 0 min 0,000 mm 0,0 UV-I 18 W/m 5,5 C 6,5 C 3,2 km/h (1 Bft) 100,00 %
01.10.2018 07:36 6,4 C 13,3 C 6,7 C 93 % 1010,0 hPa 0,0 l/m 2,6 km/h (1 Bft) W 276 0 min 0,000 mm 0,0 UV-I 16 W/m 5,4 C 6,4 C 3,2 km/h (1 Bft) 100,00 %
01.10.2018 07:38 6,5 C 13,3 C 6,7 C 93 % 1010,1 hPa 0,0 l/m 2,3 km/h (1 Bft) W 276 0 min 0,000 mm 0,0 UV-I 16 W/m 5,5 C 6,5 C 3,2 km/h (1 Bft) 98,00 %
01.10.2018 07:40 6,5 C 13,3 C 6,7 C 93 % 1010,1 hPa 0,0 l/m 0,7 km/h (0 Bft) W 276 0 min 0,000 mm 0,0 UV-I 16 W/m 5,5 C 6,5 C 1,6 km/h (1 Bft) 100,00 %
01.10.2018 07:42 6,5 C 13,3 C 7,2 C 93 % 1010,0 hPa 0,0 l/m 0,3 km/h (0 Bft) W 276 0 min 0,000 mm 0,0 UV-I 18 W/m 5,5 C 6,5 C 1,6 km/h (1 Bft) 97,37 %
01.10.2018 07:44 6,6 C 13,3 C 7,2 C 93 % 1010,0 hPa 0,0 l/m 0,0 km/h (0 Bft) W 276 0 min 0,000 mm 0,0 UV-I 19 W/m 5,6 C 6,6 C 0,0 km/h (0 Bft) 97,87 %
01.10.2018 07:46 6,5 C 13,3 C 7,2 C 93 % 1010,0 hPa 0,0 l/m 0,0 km/h (0 Bft) W 276 0 min 0,000 mm 0,0 UV-I 23 W/m 5,5 C 6,5 C 0,0 km/h (0 Bft) 100,00 %
01.10.2018 07:48 6,6 C 13,3 C 7,2 C 93 % 1010,1 hPa 0,0 l/m 0,3 km/h (0 Bft) W 276 0 min 0,000 mm 0,0 UV-I 27 W/m 5,6 C 6,6 C 1,6 km/h (1 Bft) 100,00 %
01.10.2018 07:50 6,6 C 13,3 C 7,2 C 93 % 1010,2 hPa 0,0 l/m 3,2 km/h (1 Bft) W-SW 252 0 min 0,000 mm 0,0 UV-I 31 W/m 5,6 C 6,6 C 4,8 km/h (1 Bft) 97,87 %
01.10.2018 07:52 6,7 C 13,3 C 7,2 C 93 % 1010,2 hPa 0,0 l/m 4,0 km/h (1 Bft) W-SW 248 0 min 0,000 mm 0,0 UV-I 34 W/m 5,6 C 6,7 C 4,8 km/h (1 Bft) 97,87 %
01.10.2018 07:54 6,7 C 13,3 C 7,2 C 93 % 1010,3 hPa 0,0 l/m 5,2 km/h (1 Bft) SW 216 0 min 0,000 mm 0,0 UV-I 37 W/m 5,6 C 6,7 C 8,0 km/h (2 Bft) 97,87 %
01.10.2018 07:56 6,7 C 13,3 C 7,2 C 93 % 1010,2 hPa 0,0 l/m 4,7 km/h (1 Bft) SW 225 0 min 0,000 mm 0,0 UV-I 40 W/m 5,6 C 6,7 C 6,4 km/h (2 Bft) 98,11 %
01.10.2018 07:58 6,8 C 13,3 C 7,8 C 93 % 1010,2 hPa 0,0 l/m 2,8 km/h (1 Bft) SW 225 0 min 0,000 mm 0,0 UV-I 44 W/m 5,7 C 6,8 C 4,8 km/h (1 Bft) 95,74 %
01.10.2018 08:00 6,8 C 13,3 C 7,8 C 93 % 1010,2 hPa 0,0 l/m 2,6 km/h (1 Bft) SW 225 0 min 0,000 mm 0,0 UV-I 48 W/m 5,7 C 6,8 C 4,8 km/h (1 Bft) 97,87 %
01.10.2018 08:02 6,8 C 13,3 C 7,8 C 93 % 1010,2 hPa 0,0 l/m 1,8 km/h (1 Bft) SW 225 0 min 0,000 mm 0,0 UV-I 49 W/m 5,7 C 6,8 C 4,8 km/h (1 Bft) 97,22 %
01.10.2018 08:04 6,8 C 13,3 C 7,8 C 93 % 1010,2 hPa 0,0 l/m 3,1 km/h (1 Bft) SW 225 0 min 0,000 mm 0,0 UV-I 45 W/m 5,7 C 6,8 C 4,8 km/h (1 Bft) 97,87 %
01.10.2018 08:06 6,8 C 13,3 C 7,8 C 93 % 1010,2 hPa 0,0 l/m 3,2 km/h (1 Bft) SW 225 0 min 0,000 mm 0,0 UV-I 39 W/m 5,7 C 6,8 C 4,8 km/h (1 Bft) 97,87 %
01.10.2018 08:08 6,9 C 13,3 C 7,8 C 93 % 1010,3 hPa 0,0 l/m 4,0 km/h (1 Bft) SW 232 0 min 0,000 mm 0,0 UV-I 34 W/m 5,8 C 6,9 C 8,0 km/h (2 Bft) 97,87 %
01.10.2018 08:10 6,9 C 13,3 C 7,8 C 93 % 1010,2 hPa 0,0 l/m 4,5 km/h (1 Bft) SW 231 0 min 0,000 mm 0,0 UV-I 32 W/m 5,8 C 6,9 C 6,4 km/h (2 Bft) 97,87 %
01.10.2018 08:12 6,9 C 13,3 C 7,8 C 92 % 1010,2 hPa 0,0 l/m 2,1 km/h (1 Bft) SW 231 0 min 0,000 mm 0,0 UV-I 29 W/m 5,7 C 6,9 C 4,8 km/h (1 Bft) 97,87 %
01.10.2018 08:14 6,9 C 13,3 C 7,8 C 92 % 1010,2 hPa 0,0 l/m 1,8 km/h (1 Bft) SW 231 0 min 0,000 mm 0,0 UV-I 28 W/m 5,7 C 6,9 C 3,2 km/h (1 Bft) 97,87 %
01.10.2018 08:16 6,9 C 13,3 C 7,8 C 92 % 1010,3 hPa 0,0 l/m 2,8 km/h (1 Bft) SW 232 0 min 0,000 mm 0,0 UV-I 28 W/m 5,7 C 6,9 C 4,8 km/h (1 Bft) 97,87 %
01.10.2018 08:18 6,9 C 13,3 C 7,8 C 92 % 1010,2 hPa 0,0 l/m 3,4 km/h (1 Bft) SW 234 0 min 0,000 mm 0,0 UV-I 28 W/m 5,7 C 6,9 C 4,8 km/h (1 Bft) 97,87 %
01.10.2018 08:20 6,9 C 13,3 C 7,8 C 92 % 1010,3 hPa 0,0 l/m 2,3 km/h (1 Bft) SW 234 0 min 0,000 mm 0,0 UV-I 30 W/m 5,7 C 6,9 C 4,8 km/h (1 Bft) 100,00 %
01.10.2018 08:22 6,9 C 13,3 C 7,8 C 92 % 1010,3 hPa 0,0 l/m 2,4 km/h (1 Bft) W-SW 251 0 min 0,000 mm 0,0 UV-I 31 W/m 5,7 C 6,9 C 4,8 km/h (1 Bft) 97,87 %
01.10.2018 08:25 7,0 C 13,3 C 7,8 C 92 % 1010,3 hPa 0,0 l/m 2,7 km/h (1 Bft) W-SW 251 0 min 0,000 mm 0,0 UV-I 35 W/m 5,8 C 7,0 C 4,8 km/h (1 Bft) 98,59 %
01.10.2018 08:26 7,1 C 13,3 C 7,8 C 92 % 1010,3 hPa 0,0 l/m 4,7 km/h (1 Bft) W-SW 248 0 min 0,000 mm 0,0 UV-I 39 W/m 5,9 C 7,1 C 6,4 km/h (2 Bft) 100,00 %
01.10.2018 08:28 7,1 C 13,3 C 7,8 C 92 % 1010,3 hPa 0,0 l/m 4,6 km/h (1 Bft) W-SW 243 0 min 0,000 mm 0,0 UV-I 40 W/m 5,9 C 7,1 C 6,4 km/h (2 Bft) 100,00 %
01.10.2018 08:30 7,1 C 13,3 C 7,8 C 92 % 1010,3 hPa 0,0 l/m 5,0 km/h (1 Bft) W-SW 240 0 min 0,000 mm 0,0 UV-I 43 W/m 5,9 C 7,1 C 8,0 km/h (2 Bft) 97,87 %
01.10.2018 08:32 7,1 C 13,3 C 7,8 C 92 % 1010,3 hPa 0,0 l/m 2,4 km/h (1 Bft) W-SW 240 0 min 0,000 mm 0,0 UV-I 48 W/m 5,9 C 7,1 C 4,8 km/h (1 Bft) 100,00 %
01.10.2018 08:34 7,2 C 13,3 C 8,3 C 92 % 1010,3 hPa 0,0 l/m 4,4 km/h (1 Bft) W-SW 241 0 min 0,000 mm 0,0 UV-I 50 W/m 6,0 C 7,2 C 6,4 km/h (2 Bft) 100,00 %
01.10.2018 08:36 7,2 C 13,3 C 8,3 C 92 % 1010,3 hPa 0,0 l/m 3,7 km/h (1 Bft) W-SW 241 0 min 0,000 mm 0,0 UV-I 47 W/m 6,0 C 7,2 C 4,8 km/h (1 Bft) 100,00 %
01.10.2018 08:38 7,2 C 13,3 C 8,3 C 92 % 1010,3 hPa 0,0 l/m 2,9 km/h (1 Bft) W 259 0 min 0,000 mm 0,0 UV-I 44 W/m 6,0 C 7,2 C 4,8 km/h (1 Bft) 100,00 %
01.10.2018 08:40 7,2 C 13,3 C 8,3 C 92 % 1010,4 hPa 0,0 l/m 2,4 km/h (1 Bft) W 259 0 min 0,000 mm 0,0 UV-I 39 W/m 6,0 C 7,2 C 3,2 km/h (1 Bft) 100,00 %
01.10.2018 08:42 7,2 C 13,3 C 8,3 C 92 % 1010,4 hPa 0,0 l/m 3,7 km/h (1 Bft) W 259 0 min 0,000 mm 0,0 UV-I 32 W/m 6,0 C 7,2 C 6,4 km/h (2 Bft) 100,00 %
01.10.2018 08:44 7,2 C 13,3 C 7,8 C 92 % 1010,4 hPa 0,0 l/m 3,7 km/h (1 Bft) W-SW 237 0 min 0,000 mm 0,0 UV-I 27 W/m 6,0 C 7,2 C 6,4 km/h (2 Bft) 100,00 %
01.10.2018 08:46 7,3 C 13,3 C 7,8 C 92 % 1010,5 hPa 0,0 l/m 3,5 km/h (1 Bft) W-SW 238 0 min 0,000 mm 0,0 UV-I 25 W/m 6,1 C 7,3 C 4,8 km/h (1 Bft) 97,87 %
01.10.2018 08:48 7,3 C 13,3 C 7,8 C 92 % 1010,5 hPa 0,0 l/m 3,6 km/h (1 Bft) W-SW 238 0 min 0,000 mm 0,0 UV-I 26 W/m 6,1 C 7,3 C 4,8 km/h (1 Bft) 100,00 %
01.10.2018 08:50 7,3 C 13,3 C 7,8 C 92 % 1010,4 hPa 0,0 l/m 3,0 km/h (1 Bft) W-SW 238 0 min 0,000 mm 0,0 UV-I 28 W/m 6,1 C 7,3 C 4,8 km/h (1 Bft) 93,62 %
01.10.2018 08:52 7,3 C 13,3 C 7,8 C 92 % 1010,4 hPa 0,0 l/m 2,2 km/h (1 Bft) W-SW 238 0 min 0,000 mm 0,0 UV-I 32 W/m 6,1 C 7,3 C 3,2 km/h (1 Bft) 97,87 %
01.10.2018 08:54 7,3 C 13,3 C 7,8 C 92 % 1010,4 hPa 0,0 l/m 1,6 km/h (1 Bft) W-SW 238 0 min 0,000 mm 0,0 UV-I 32 W/m 6,1 C 7,3 C 3,2 km/h (1 Bft) 97,87 %
01.10.2018 08:56 7,3 C 13,3 C 7,8 C 92 % 1010,5 hPa 0,0 l/m 2,8 km/h (1 Bft) W-SW 238 0 min 0,000 mm 0,0 UV-I 30 W/m 6,1 C 7,3 C 4,8 km/h (1 Bft) 97,87 %
01.10.2018 08:58 7,3 C 13,3 C 7,8 C 91 % 1010,4 hPa 0,0 l/m 1,9 km/h (1 Bft) W-SW 238 0 min 0,000 mm 0,0 UV-I 27 W/m 5,9 C 7,3 C 4,8 km/h (1 Bft) 95,74 %
01.10.2018 09:00 7,3 C 13,3 C 7,8 C 91 % 1010,5 hPa 0,0 l/m 1,8 km/h (1 Bft) W-SW 238 0 min 0,025 mm 0,0 UV-I 26 W/m 5,9 C 7,3 C 3,2 km/h (1 Bft) 95,74 %
01.10.2018 09:02 7,3 C 13,3 C 7,8 C 91 % 1010,5 hPa 0,0 l/m 1,3 km/h (1 Bft) W-SW 238 0 min 0,000 mm 0,0 UV-I 25 W/m 5,9 C 7,3 C 1,6 km/h (1 Bft) 95,74 %
01.10.2018 09:04 7,3 C 13,3 C 7,8 C 91 % 1010,5 hPa 0,0 l/m 1,5 km/h (1 Bft) W-SW 254 0 min 0,000 mm 0,0 UV-I 24 W/m 5,9 C 7,3 C 3,2 km/h (1 Bft) 95,74 %
01.10.2018 09:06 7,3 C 13,3 C 7,8 C 91 % 1010,6 hPa 0,0 l/m 3,0 km/h (1 Bft) W-SW 254 0 min 0,000 mm 0,0 UV-I 23 W/m 5,9 C 7,3 C 4,8 km/h (1 Bft) 93,62 %
01.10.2018 09:08 7,3 C 13,3 C 7,8 C 91 % 1010,6 hPa 0,0 l/m 4,2 km/h (1 Bft) W-SW 254 0 min 0,000 mm 0,0 UV-I 21 W/m 5,9 C 7,3 C 4,8 km/h (1 Bft) 93,62 %
01.10.2018 09:10 7,3 C 13,3 C 7,8 C 91 % 1010,6 hPa 0,0 l/m 4,2 km/h (1 Bft) W-SW 258 0 min 0,000 mm 0,0 UV-I 20 W/m 5,9 C 7,3 C 4,8 km/h (1 Bft) 95,74 %
01.10.2018 09:12 7,3 C 13,3 C 7,8 C 91 % 1010,6 hPa 0,0 l/m 4,1 km/h (1 Bft) W-SW 257 0 min 0,000 mm 0,0 UV-I 19 W/m 5,9 C 7,3 C 4,8 km/h (1 Bft) 91,49 %
01.10.2018 09:14 7,3 C 13,3 C 7,8 C 91 % 1010,6 hPa 0,0 l/m 3,9 km/h (1 Bft) W-SW 257 0 min 0,000 mm 0,0 UV-I 18 W/m 5,9 C 7,3 C 6,4 km/h (2 Bft) 91,49 %
01.10.2018 09:16 7,4 C 13,3 C 7,8 C 91 % 1010,6 hPa 0,0 l/m 3,2 km/h (1 Bft) S-SW 201 0 min 0,000 mm 0,0 UV-I 18 W/m 6,0 C 7,4 C 4,8 km/h (1 Bft) 93,62 %
01.10.2018 09:18 7,4 C 13,3 C 7,8 C 91 % 1010,7 hPa 0,0 l/m 2,5 km/h (1 Bft) S-SW 201 0 min 0,000 mm 0,0 UV-I 18 W/m 6,0 C 7,4 C 3,2 km/h (1 Bft) 91,49 %
01.10.2018 09:20 7,4 C 13,3 C 7,8 C 91 % 1010,7 hPa 0,0 l/m 3,2 km/h (1 Bft) SW 224 0 min 0,000 mm 0,0 UV-I 18 W/m 6,0 C 7,4 C 4,8 km/h (1 Bft) 91,67 %
01.10.2018 09:22 7,4 C 13,3 C 7,8 C 91 % 1010,6 hPa 0,0 l/m 4,0 km/h (1 Bft) W-SW 256 0 min 0,000 mm 0,0 UV-I 18 W/m 6,0 C 7,4 C 6,4 km/h (2 Bft) 91,49 %
01.10.2018 09:24 7,4 C 13,3 C 7,8 C 91 % 1010,7 hPa 0,0 l/m 3,6 km/h (1 Bft) W-SW 256 0 min 0,000 mm 0,0 UV-I 18 W/m 6,0 C 7,4 C 4,8 km/h (1 Bft) 89,47 %
01.10.2018 09:26 7,4 C 13,3 C 7,8 C 92 % 1010,7 hPa 0,0 l/m 3,7 km/h (1 Bft) W-SW 237 0 min 0,000 mm 0,0 UV-I 18 W/m 6,2 C 7,4 C 6,4 km/h (2 Bft) 95,74 %
01.10.2018 09:28 7,4 C 13,3 C 7,8 C 92 % 1010,8 hPa 0,0 l/m 4,5 km/h (1 Bft) SW 233 0 min 0,000 mm 0,0 UV-I 17 W/m 6,2 C 7,4 C 6,4 km/h (2 Bft) 93,62 %
01.10.2018 09:30 7,4 C 13,3 C 7,8 C 92 % 1010,8 hPa 0,0 l/m 3,4 km/h (1 Bft) SW 233 0 min 0,000 mm 0,0 UV-I 16 W/m 6,2 C 7,4 C 4,8 km/h (1 Bft) 96,00 %
01.10.2018 09:32 7,4 C 13,3 C 7,8 C 92 % 1010,8 hPa 0,0 l/m 2,9 km/h (1 Bft) SW 233 0 min 0,000 mm 0,0 UV-I 16 W/m 6,2 C 7,4 C 4,8 km/h (1 Bft) 90,00 %
01.10.2018 09:34 7,4 C 13,3 C 7,2 C 92 % 1010,8 hPa 0,0 l/m 3,6 km/h (1 Bft) SW 233 0 min 0,000 mm 0,0 UV-I 16 W/m 6,2 C 7,4 C 4,8 km/h (1 Bft) 97,87 %
01.10.2018 09:36 7,4 C 13,3 C 7,2 C 92 % 1010,8 hPa 0,0 l/m 4,0 km/h (1 Bft) W-SW 246 0 min 0,000 mm 0,0 UV-I 16 W/m 6,2 C 7,4 C 6,4 km/h (2 Bft) 96,00 %
01.10.2018 09:38 7,4 C 13,3 C 7,2 C 92 % 1010,8 hPa 0,0 l/m 2,6 km/h (1 Bft) W-SW 246 0 min 0,000 mm 0,0 UV-I 18 W/m 6,2 C 7,4 C 4,8 km/h (1 Bft) 100,00 %
01.10.2018 09:40 7,4 C 13,3 C 7,2 C 92 % 1010,7 hPa 0,0 l/m 1,8 km/h (1 Bft) W-SW 246 0 min 0,000 mm 0,0 UV-I 18 W/m 6,2 C 7,4 C 3,2 km/h (1 Bft) 96,92 %
01.10.2018 09:42 7,5 C 13,3 C 7,8 C 93 % 1010,7 hPa 0,2 l/m 0,8 km/h (0 Bft) W-SW 246 0 min 0,000 mm 0,0 UV-I 19 W/m 6,4 C 7,5 C 1,6 km/h (1 Bft) 95,74 %
01.10.2018 09:44 7,6 C 13,3 C 7,8 C 93 % 1010,7 hPa 0,0 l/m 1,8 km/h (1 Bft) W-SW 246 0 min 0,000 mm 0,0 UV-I 21 W/m 6,5 C 7,6 C 4,8 km/h (1 Bft) 98,00 %
01.10.2018 09:46 7,5 C 13,3 C 7,8 C 92 % 1010,7 hPa 0,0 l/m 3,5 km/h (1 Bft) W-SW 246 0 min 0,000 mm 0,0 UV-I 21 W/m 6,3 C 7,5 C 4,8 km/h (1 Bft) 97,87 %
01.10.2018 09:48 7,5 C 13,3 C 7,8 C 92 % 1010,8 hPa 0,0 l/m 3,8 km/h (1 Bft) SW 228 0 min 0,000 mm 0,0 UV-I 21 W/m 6,3 C 7,5 C 4,8 km/h (1 Bft) 98,00 %
01.10.2018 09:50 7,4 C 13,3 C 7,8 C 93 % 1010,8 hPa 0,0 l/m 4,8 km/h (1 Bft) SW 236 0 min 0,000 mm 0,0 UV-I 21 W/m 6,3 C 7,4 C 6,4 km/h (2 Bft) 94,29 %
01.10.2018 09:52 7,4 C 13,3 C 7,8 C 93 % 1010,8 hPa 0,2 l/m 4,4 km/h (1 Bft) SW 232 0 min 0,000 mm 0,0 UV-I 21 W/m 6,3 C 7,4 C 6,4 km/h (2 Bft) 94,00 %
01.10.2018 09:54 7,4 C 13,3 C 7,8 C 93 % 1010,7 hPa 0,0 l/m 2,8 km/h (1 Bft) W 262 0 min 0,000 mm 0,0 UV-I 21 W/m 6,3 C 7,4 C 4,8 km/h (1 Bft) 96,00 %
01.10.2018 09:56 7,4 C 13,3 C 7,8 C 93 % 1010,7 hPa 0,0 l/m 2,4 km/h (1 Bft) W 262 0 min 0,000 mm 0,0 UV-I 23 W/m 6,3 C 7,4 C 4,8 km/h (1 Bft) 97,92 %
01.10.2018 09:58 7,4 C 13,3 C 7,8 C 93 % 1010,7 hPa 0,0 l/m 2,2 km/h (1 Bft) W 263 0 min 0,000 mm 0,0 UV-I 23 W/m 6,3 C 7,4 C 4,8 km/h (1 Bft) 97,87 %
01.10.2018 10:00 7,4 C 13,3 C 7,8 C 93 % 1010,8 hPa 0,0 l/m 1,4 km/h (1 Bft) W 263 0 min 0,000 mm 0,0 UV-I 23 W/m 6,3 C 7,4 C 1,6 km/h (1 Bft) 97,87 %
01.10.2018 10:02 7,3 C 13,3 C 7,8 C 93 % 1010,8 hPa 0,0 l/m 2,6 km/h (1 Bft) W 263 0 min 0,000 mm 0,0 UV-I 21 W/m 6,2 C 7,3 C 3,2 km/h (1 Bft) 100,00 %
01.10.2018 10:04 7,4 C 13,3 C 7,8 C 93 % 1010,9 hPa 0,2 l/m 4,5 km/h (1 Bft) SW 234 0 min 0,000 mm 0,0 UV-I 21 W/m 6,3 C 7,4 C 8,0 km/h (2 Bft) 100,00 %
01.10.2018 10:06 7,3 C 13,3 C 7,8 C 93 % 1010,9 hPa 0,0 l/m 5,8 km/h (2 Bft) SW 235 0 min 0,000 mm 0,0 UV-I 19 W/m 6,2 C 7,3 C 9,7 km/h (2 Bft) 100,00 %
01.10.2018 10:08 7,3 C 13,3 C 7,8 C 94 % 1010,9 hPa 0,2 l/m 4,5 km/h (1 Bft) W-SW 244 0 min 0,000 mm 0,0 UV-I 23 W/m 6,4 C 7,3 C 8,0 km/h (2 Bft) 100,00 %
01.10.2018 10:10 7,4 C 13,3 C 7,8 C 94 % 1011,0 hPa 0,0 l/m 4,6 km/h (1 Bft) W 261 0 min 0,000 mm 0,0 UV-I 25 W/m 6,5 C 7,4 C 9,7 km/h (2 Bft) 100,00 %
01.10.2018 10:12 7,4 C 13,3 C 7,8 C 94 % 1011,0 hPa 0,0 l/m 6,3 km/h (2 Bft) W-SW 242 0 min 0,000 mm 0,0 UV-I 25 W/m 6,5 C 7,4 C 8,0 km/h (2 Bft) 100,00 %
01.10.2018 10:15 7,4 C 13,3 C 7,8 C 94 % 1011,0 hPa 0,0 l/m 5,0 km/h (1 Bft) SW 233 0 min 0,000 mm 0,0 UV-I 26 W/m 6,5 C 7,4 C 8,0 km/h (2 Bft) 100,00 %
01.10.2018 10:16 7,4 C 13,3 C 7,8 C 94 % 1011,0 hPa 0,0 l/m 3,5 km/h (1 Bft) W-SW 239 0 min 0,000 mm 0,0 UV-I 28 W/m 6,5 C 7,4 C 4,8 km/h (1 Bft) 100,00 %
01.10.2018 10:18 7,4 C 13,3 C 7,8 C 94 % 1011,1 hPa 0,2 l/m 5,5 km/h (1 Bft) SW 229 0 min 0,000 mm 0,0 UV-I 28 W/m 6,5 C 7,4 C 8,0 km/h (2 Bft) 100,00 %
01.10.2018 10:20 7,4 C 13,3 C 7,8 C 94 % 1011,1 hPa 0,0 l/m 5,2 km/h (1 Bft) W-SW 252 0 min 0,000 mm 0,0 UV-I 30 W/m 6,5 C 7,4 C 8,0 km/h (2 Bft) 97,87 %
01.10.2018 10:22 7,4 C 13,3 C 7,8 C 94 % 1011,1 hPa 0,0 l/m 4,4 km/h (1 Bft) W 263 0 min 0,000 mm 0,0 UV-I 32 W/m 6,5 C 7,4 C 6,4 km/h (2 Bft) 100,00 %
01.10.2018 10:25 7,4 C 13,3 C 7,8 C 94 % 1011,1 hPa 0,0 l/m 5,5 km/h (1 Bft) W-SW 246 0 min 0,000 mm 0,0 UV-I 31 W/m 6,5 C 7,4 C 9,7 km/h (2 Bft) 100,00 %
01.10.2018 10:26 7,4 C 13,3 C 7,8 C 94 % 1011,1 hPa 0,0 l/m 5,6 km/h (1 Bft) W-SW 241 0 min 0,000 mm 0,0 UV-I 32 W/m 6,5 C 7,4 C 9,7 km/h (2 Bft) 100,00 %
01.10.2018 10:28 7,4 C 13,3 C 7,8 C 94 % 1011,2 hPa 0,0 l/m 7,3 km/h (2 Bft) SW 236 0 min 0,000 mm 0,0 UV-I 32 W/m 6,5 C 6,7 C 9,7 km/h (2 Bft) 100,00 %
01.10.2018 10:30 7,4 C 13,3 C 7,8 C 94 % 1011,2 hPa 0,0 l/m 7,3 km/h (2 Bft) W 276 0 min 0,000 mm 0,0 UV-I 30 W/m 6,5 C 6,7 C 12,9 km/h (3 Bft) 100,00 %
01.10.2018 10:32 7,5 C 13,3 C 7,8 C 94 % 1011,2 hPa 0,0 l/m 5,8 km/h (2 Bft) W 260 0 min 0,000 mm 0,0 UV-I 26 W/m 6,6 C 7,5 C 9,7 km/h (2 Bft) 100,00 %
01.10.2018 10:34 7,5 C 13,3 C 7,8 C 94 % 1011,2 hPa 0,0 l/m 3,7 km/h (1 Bft) W-SW 250 0 min 0,000 mm 0,0 UV-I 27 W/m 6,6 C 7,5 C 6,4 km/h (2 Bft) 100,00 %
01.10.2018 10:36 7,5 C 13,3 C 7,8 C 94 % 1011,2 hPa 0,0 l/m 3,5 km/h (1 Bft) SW 234 0 min 0,000 mm 0,0 UV-I 30 W/m 6,6 C 7,5 C 6,4 km/h (2 Bft) 97,87 %
01.10.2018 10:38 7,5 C 13,3 C 7,8 C 94 % 1011,2 hPa 0,0 l/m 4,1 km/h (1 Bft) W-SW 248 0 min 0,000 mm 0,0 UV-I 28 W/m 6,6 C 7,5 C 6,4 km/h (2 Bft) 96,00 %
01.10.2018 10:40 7,6 C 13,3 C 7,8 C 94 % 1011,2 hPa 0,0 l/m 3,6 km/h (1 Bft) W-SW 257 0 min 0,000 mm 0,0 UV-I 30 W/m 6,7 C 7,6 C 6,4 km/h (2 Bft) 97,87 %
01.10.2018 10:42 7,6 C 13,3 C 7,8 C 94 % 1011,2 hPa 0,0 l/m 2,1 km/h (1 Bft) W-SW 257 0 min 0,000 mm 0,0 UV-I 29 W/m 6,7 C 7,6 C 3,2 km/h (1 Bft) 97,87 %
01.10.2018 10:44 7,6 C 13,3 C 7,8 C 94 % 1011,2 hPa 0,0 l/m 4,0 km/h (1 Bft) SW 230 0 min 0,000 mm 0,0 UV-I 34 W/m 6,7 C 7,6 C 6,4 km/h (2 Bft) 92,11 %
01.10.2018 10:46 7,6 C 13,3 C 8,3 C 94 % 1011,2 hPa 0,0 l/m 3,2 km/h (1 Bft) SW 230 0 min 0,000 mm 0,0 UV-I 36 W/m 6,7 C 7,6 C 4,8 km/h (1 Bft) 100,00 %
01.10.2018 10:48 7,6 C 13,3 C 8,3 C 94 % 1011,3 hPa 0,0 l/m 4,3 km/h (1 Bft) SW 236 0 min 0,000 mm 0,0 UV-I 37 W/m 6,7 C 7,6 C 6,4 km/h (2 Bft) 95,74 %
01.10.2018 10:50 7,7 C 13,3 C 8,3 C 94 % 1011,3 hPa 0,0 l/m 5,2 km/h (1 Bft) SW 236 0 min 0,000 mm 0,0 UV-I 38 W/m 6,8 C 7,7 C 8,0 km/h (2 Bft) 97,87 %
01.10.2018 10:52 7,6 C 13,3 C 7,8 C 94 % 1011,3 hPa 0,0 l/m 5,7 km/h (1 Bft) W-SW 242 0 min 0,000 mm 0,0 UV-I 39 W/m 6,7 C 7,6 C 8,0 km/h (2 Bft) 94,00 %
01.10.2018 10:54 7,7 C 13,3 C 8,3 C 94 % 1011,3 hPa 0,0 l/m 4,4 km/h (1 Bft) W-SW 246 0 min 0,000 mm 0,0 UV-I 48 W/m 6,8 C 7,7 C 6,4 km/h (2 Bft) 94,00 %
01.10.2018 10:56 7,7 C 13,3 C 8,3 C 94 % 1011,3 hPa 0,0 l/m 6,6 km/h (2 Bft) W 263 0 min 0,000 mm 0,0 UV-I 57 W/m 6,8 C 7,6 C 11,3 km/h (2 Bft) 93,62 %
01.10.2018 10:58 7,8 C 13,3 C 8,3 C 94 % 1011,3 hPa 0,0 l/m 6,8 km/h (2 Bft) W 266 0 min 0,000 mm 0,0 UV-I 54 W/m 6,9 C 7,5 C 11,3 km/h (2 Bft) 93,62 %
01.10.2018 11:00 7,8 C 13,3 C 8,3 C 94 % 1011,3 hPa 0,0 l/m 4,6 km/h (1 Bft) SW 236 0 min 0,000 mm 0,0 UV-I 60 W/m 6,9 C 7,8 C 6,4 km/h (2 Bft) 93,62 %
01.10.2018 11:02 7,8 C 13,3 C 8,3 C 94 % 1011,3 hPa 0,0 l/m 5,0 km/h (1 Bft) SW 226 0 min 0,026 mm 0,0 UV-I 63 W/m 6,9 C 7,8 C 9,7 km/h (2 Bft) 98,00 %
01.10.2018 11:04 7,9 C 13,3 C 8,3 C 94 % 1011,4 hPa 0,0 l/m 5,3 km/h (1 Bft) W-SW 243 0 min 0,000 mm 0,0 UV-I 50 W/m 7,0 C 7,9 C 6,4 km/h (2 Bft) 97,14 %
01.10.2018 11:06 7,9 C 13,3 C 8,3 C 94 % 1011,4 hPa 0,0 l/m 6,2 km/h (2 Bft) SW 231 0 min 0,000 mm 0,0 UV-I 37 W/m 7,0 C 7,9 C 11,3 km/h (2 Bft) 96,00 %
01.10.2018 11:08 7,9 C 13,3 C 8,3 C 94 % 1011,4 hPa 0,0 l/m 5,1 km/h (1 Bft) SW 234 0 min 0,000 mm 0,0 UV-I 33 W/m 7,0 C 7,9 C 6,4 km/h (2 Bft) 97,87 %
01.10.2018 11:10 8,0 C 13,3 C 8,3 C 94 % 1011,4 hPa 0,0 l/m 5,0 km/h (1 Bft) SW 235 0 min 0,000 mm 0,0 UV-I 38 W/m 7,1 C 8,0 C 6,4 km/h (2 Bft) 93,75 %
01.10.2018 11:12 8,1 C 13,3 C 8,3 C 94 % 1011,4 hPa 0,0 l/m 5,0 km/h (1 Bft) W-SW 248 0 min 0,000 mm 0,0 UV-I 47 W/m 7,2 C 8,1 C 8,0 km/h (2 Bft) 97,87 %
01.10.2018 11:14 8,1 C 13,3 C 8,9 C 94 % 1011,4 hPa 0,0 l/m 4,7 km/h (1 Bft) W-SW 258 0 min 0,000 mm 0,0 UV-I 47 W/m 7,2 C 8,1 C 6,4 km/h (2 Bft) 97,87 %
01.10.2018 11:16 8,2 C 13,3 C 8,9 C 94 % 1011,4 hPa 0,0 l/m 5,2 km/h (1 Bft) W-SW 258 0 min 0,000 mm 0,0 UV-I 57 W/m 7,3 C 8,2 C 8,0 km/h (2 Bft) 97,87 %
01.10.2018 11:18 8,2 C 13,3 C 8,9 C 94 % 1011,4 hPa 0,0 l/m 4,6 km/h (1 Bft) W 259 0 min 0,000 mm 0,0 UV-I 62 W/m 7,3 C 8,2 C 6,4 km/h (2 Bft) 98,00 %
01.10.2018 11:20 8,2 C 13,3 C 8,9 C 94 % 1011,4 hPa 0,0 l/m 5,0 km/h (1 Bft) W-SW 244 0 min 0,000 mm 0,0 UV-I 63 W/m 7,3 C 8,2 C 8,0 km/h (2 Bft) 97,87 %
01.10.2018 11:22 8,3 C 13,3 C 8,9 C 95 % 1011,4 hPa 0,0 l/m 5,3 km/h (1 Bft) SW 229 0 min 0,000 mm 0,0 UV-I 73 W/m 7,5 C 8,3 C 9,7 km/h (2 Bft) 97,87 %
01.10.2018 11:24 8,3 C 13,3 C 8,9 C 95 % 1011,5 hPa 0,0 l/m 6,6 km/h (2 Bft) W-SW 242 0 min 0,000 mm 0,0 UV-I 76 W/m 7,5 C 8,2 C 9,7 km/h (2 Bft) 97,87 %
01.10.2018 11:26 8,4 C 13,3 C 9,4 C 94 % 1011,5 hPa 0,0 l/m 4,7 km/h (1 Bft) W 259 0 min 0,000 mm 0,0 UV-I 75 W/m 7,5 C 8,4 C 6,4 km/h (2 Bft) 100,00 %
01.10.2018 11:28 8,5 C 13,3 C 9,4 C 95 % 1011,5 hPa 0,2 l/m 7,6 km/h (2 Bft) W-SW 255 0 min 0,000 mm 0,0 UV-I 78 W/m 7,7 C 7,6 C 12,9 km/h (3 Bft) 100,00 %
01.10.2018 11:30 8,5 C 13,3 C 9,4 C 95 % 1011,5 hPa 0,0 l/m 6,6 km/h (2 Bft) W-SW 247 0 min 0,000 mm 0,1 UV-I 79 W/m 7,7 C 8,4 C 9,7 km/h (2 Bft) 100,00 %
01.10.2018 11:32 8,6 C 13,3 C 9,4 C 95 % 1011,5 hPa 0,0 l/m 5,3 km/h (1 Bft) W-SW 248 0 min 0,000 mm 0,5 UV-I 82 W/m 7,8 C 8,6 C 9,7 km/h (2 Bft) 100,00 %
01.10.2018 11:34 8,6 C 13,3 C 9,4 C 95 % 1011,5 hPa 0,0 l/m 4,9 km/h (1 Bft) W-SW 249 0 min 0,000 mm 0,6 UV-I 96 W/m 7,8 C 8,6 C 6,4 km/h (2 Bft) 97,87 %
01.10.2018 11:36 8,7 C 13,3 C 9,4 C 95 % 1011,5 hPa 0,0 l/m 6,2 km/h (2 Bft) W 273 0 min 0,000 mm 0,6 UV-I 110 W/m 7,9 C 8,7 C 11,3 km/h (2 Bft) 97,87 %
01.10.2018 11:38 8,8 C 13,3 C 10,0 C 95 % 1011,5 hPa 0,0 l/m 5,1 km/h (1 Bft) W-NW 286 0 min 0,000 mm 0,6 UV-I 112 W/m 8,0 C 8,8 C 6,4 km/h (2 Bft) 95,74 %
01.10.2018 11:40 8,8 C 13,3 C 10,0 C 95 % 1011,5 hPa 0,0 l/m 6,2 km/h (2 Bft) W 259 0 min 0,000 mm 0,6 UV-I 108 W/m 8,0 C 8,8 C 11,3 km/h (2 Bft) 100,00 %
01.10.2018 11:42 8,9 C 13,3 C 10,0 C 95 % 1011,6 hPa 0,0 l/m 7,7 km/h (2 Bft) W-SW 246 0 min 0,000 mm 0,6 UV-I 108 W/m 8,1 C 7,9 C 11,3 km/h (2 Bft) 97,87 %
01.10.2018 11:44 8,9 C 13,3 C 10,0 C 95 % 1011,6 hPa 0,0 l/m 7,3 km/h (2 Bft) W 268 0 min 0,000 mm 0,6 UV-I 112 W/m 8,1 C 8,2 C 11,3 km/h (2 Bft) 97,87 %
01.10.2018 11:46 9,0 C 13,3 C 10,0 C 95 % 1011,6 hPa 0,0 l/m 7,4 km/h (2 Bft) W 270 0 min 0,000 mm 0,7 UV-I 119 W/m 8,2 C 8,2 C 12,9 km/h (3 Bft) 98,00 %
01.10.2018 11:48 9,1 C 13,3 C 10,0 C 95 % 1011,6 hPa 0,0 l/m 7,6 km/h (2 Bft) W 276 0 min 0,000 mm 0,7 UV-I 121 W/m 8,3 C 8,2 C 11,3 km/h (2 Bft) 95,74 %
01.10.2018 11:50 9,2 C 13,3 C 10,6 C 95 % 1011,6 hPa 0,0 l/m 8,1 km/h (2 Bft) W 270 0 min 0,000 mm 0,7 UV-I 121 W/m 8,4 C 7,9 C 12,9 km/h (3 Bft) 97,87 %
01.10.2018 11:52 9,2 C 13,3 C 10,6 C 95 % 1011,6 hPa 0,0 l/m 8,0 km/h (2 Bft) W 273 0 min 0,000 mm 0,7 UV-I 121 W/m 8,4 C 8,0 C 11,3 km/h (2 Bft) 100,00 %
01.10.2018 11:54 9,3 C 13,3 C 10,6 C 95 % 1011,6 hPa 0,0 l/m 6,7 km/h (2 Bft) W 279 0 min 0,000 mm 0,7 UV-I 119 W/m 8,5 C 9,1 C 11,3 km/h (2 Bft) 98,39 %
01.10.2018 11:56 9,4 C 13,3 C 10,6 C 95 % 1011,6 hPa 0,0 l/m 5,2 km/h (1 Bft) W-SW 246 0 min 0,000 mm 0,7 UV-I 125 W/m 8,6 C 9,4 C 9,7 km/h (2 Bft) 100,00 %
01.10.2018 11:58 9,5 C 13,3 C 10,6 C 95 % 1011,6 hPa 0,0 l/m 4,6 km/h (1 Bft) W-SW 255 0 min 0,000 mm 0,7 UV-I 118 W/m 8,7 C 9,5 C 6,4 km/h (2 Bft) 100,00 %
01.10.2018 12:00 9,5 C 13,3 C 10,6 C 95 % 1011,8 hPa 0,0 l/m 7,7 km/h (2 Bft) W 279 0 min 0,051 mm 0,6 UV-I 108 W/m 8,7 C 8,5 C 14,5 km/h (3 Bft) 97,87 %
01.10.2018 12:02 9,5 C 13,3 C 10,6 C 95 % 1011,8 hPa 0,0 l/m 8,2 km/h (2 Bft) W-SW 248 0 min 0,000 mm 0,6 UV-I 107 W/m 8,7 C 8,2 C 16,1 km/h (3 Bft) 97,14 %
01.10.2018 12:04 9,5 C 13,3 C 10,6 C 95 % 1011,8 hPa 0,0 l/m 11,5 km/h (2 Bft) SW 231 0 min 0,000 mm 0,6 UV-I 106 W/m 8,7 C 6,2 C 17,7 km/h (3 Bft) 97,87 %
01.10.2018 12:06 9,5 C 13,3 C 10,6 C 95 % 1011,8 hPa 0,0 l/m 7,5 km/h (2 Bft) W 270 0 min 0,000 mm 0,6 UV-I 101 W/m 8,7 C 8,7 C 11,3 km/h (2 Bft) 95,74 %
01.10.2018 12:08 9,6 C 13,3 C 10,6 C 95 % 1011,7 hPa 0,0 l/m 7,5 km/h (2 Bft) W-NW 286 0 min 0,000 mm 0,5 UV-I 93 W/m 8,8 C 8,8 C 12,9 km/h (3 Bft) 97,87 %
01.10.2018 12:10 9,6 C 13,3 C 10,6 C 95 % 1011,8 hPa 0,0 l/m 6,7 km/h (2 Bft) W 278 0 min 0,000 mm 0,6 UV-I 99 W/m 8,8 C 9,4 C 11,3 km/h (2 Bft) 97,87 %
01.10.2018 12:12 9,6 C 13,3 C 10,6 C 95 % 1011,8 hPa 0,0 l/m 7,5 km/h (2 Bft) W-SW 242 0 min 0,000 mm 0,6 UV-I 97 W/m 8,8 C 8,8 C 12,9 km/h (3 Bft) 95,74 %
01.10.2018 12:14 9,7 C 13,3 C 10,6 C 95 % 1011,8 hPa 0,0 l/m 7,3 km/h (2 Bft) W-NW 295 0 min 0,000 mm 0,5 UV-I 92 W/m 8,9 C 9,0 C 12,9 km/h (3 Bft) 95,74 %
01.10.2018 12:16 9,6 C 13,3 C 10,6 C 95 % 1011,8 hPa 0,0 l/m 12,6 km/h (3 Bft) W 267 0 min 0,000 mm 0,6 UV-I 95 W/m 8,8 C 5,8 C 20,9 km/h (4 Bft) 96,00 %
01.10.2018 12:18 9,6 C 13,3 C 10,6 C 95 % 1011,8 hPa 0,0 l/m 11,1 km/h (2 Bft) W 269 0 min 0,000 mm 0,6 UV-I 93 W/m 8,8 C 6,5 C 17,7 km/h (3 Bft) 93,62 %
01.10.2018 12:20 9,6 C 13,3 C 10,6 C 95 % 1011,9 hPa 0,0 l/m 10,2 km/h (2 Bft) W 270 0 min 0,000 mm 0,6 UV-I 91 W/m 8,8 C 7,0 C 17,7 km/h (3 Bft) 95,74 %
01.10.2018 12:22 9,7 C 13,3 C 10,6 C 95 % 1011,8 hPa 0,0 l/m 7,7 km/h (2 Bft) W 269 0 min 0,000 mm 0,5 UV-I 90 W/m 8,9 C 8,7 C 12,9 km/h (3 Bft) 100,00 %
01.10.2018 12:24 9,7 C 13,3 C 10,6 C 95 % 1011,9 hPa 0,0 l/m 10,6 km/h (2 Bft) W 272 0 min 0,000 mm 0,5 UV-I 86 W/m 8,9 C 6,9 C 17,7 km/h (3 Bft) 100,00 %
01.10.2018 12:26 9,7 C 13,3 C 10,6 C 95 % 1011,9 hPa 0,0 l/m 7,9 km/h (2 Bft) W 267 0 min 0,000 mm 0,5 UV-I 83 W/m 8,9 C 8,6 C 12,9 km/h (3 Bft) 100,00 %
01.10.2018 12:28 9,7 C 13,3 C 10,6 C 95 % 1012,0 hPa 0,0 l/m 5,3 km/h (1 Bft) W 263 0 min 0,000 mm 0,5 UV-I 79 W/m 8,9 C 9,7 C 8,0 km/h (2 Bft) 98,39 %
01.10.2018 12:30 9,7 C 13,3 C 10,6 C 95 % 1012,0 hPa 0,0 l/m 10,7 km/h (2 Bft) W-SW 240 0 min 0,000 mm 0,1 UV-I 75 W/m 8,9 C 6,9 C 17,7 km/h (3 Bft) 100,00 %
01.10.2018 12:32 9,7 C 13,3 C 10,6 C 95 % 1012,0 hPa 0,0 l/m 11,0 km/h (2 Bft) W 262 0 min 0,000 mm 0,0 UV-I 75 W/m 8,9 C 6,7 C 19,3 km/h (3 Bft) 100,00 %
01.10.2018 12:34 9,7 C 13,3 C 10,6 C 95 % 1012,0 hPa 0,0 l/m 9,3 km/h (2 Bft) W-SW 257 0 min 0,000 mm 0,5 UV-I 80 W/m 8,9 C 7,7 C 14,5 km/h (3 Bft) 100,00 %
01.10.2018 12:36 9,7 C 13,3 C 10,6 C 95 % 1012,0 hPa 0,0 l/m 8,3 km/h (2 Bft) W-SW 251 0 min 0,000 mm 0,5 UV-I 88 W/m 8,9 C 8,3 C 12,9 km/h (3 Bft) 100,00 %
01.10.2018 12:38 9,7 C 13,3 C 10,6 C 95 % 1012,0 hPa 0,0 l/m 7,7 km/h (2 Bft) W-SW 238 0 min 0,000 mm 0,6 UV-I 92 W/m 8,9 C 8,7 C 11,3 km/h (2 Bft) 100,00 %
01.10.2018 12:40 9,7 C 13,3 C 10,6 C 95 % 1012,0 hPa 0,0 l/m 11,4 km/h (2 Bft) W-NW 284 0 min 0,000 mm 0,6 UV-I 93 W/m 8,9 C 6,5 C 19,3 km/h (3 Bft) 100,00 %
01.10.2018 12:42 9,7 C 13,3 C 10,6 C 94 % 1012,0 hPa 0,0 l/m 8,6 km/h (2 Bft) W 264 0 min 0,000 mm 0,6 UV-I 91 W/m 8,8 C 8,1 C 19,3 km/h (3 Bft) 100,00 %
01.10.2018 12:44 9,7 C 13,3 C 10,6 C 94 % 1012,0 hPa 0,0 l/m 6,4 km/h (2 Bft) W-SW 240 0 min 0,000 mm 0,6 UV-I 92 W/m 8,8 C 9,7 C 12,9 km/h (3 Bft) 100,00 %
01.10.2018 12:46 9,7 C 13,3 C 10,6 C 94 % 1012,0 hPa 0,0 l/m 8,2 km/h (2 Bft) W 267 0 min 0,000 mm 0,6 UV-I 93 W/m 8,8 C 8,4 C 12,9 km/h (3 Bft) 100,00 %
01.10.2018 12:48 9,8 C 13,3 C 11,1 C 94 % 1012,0 hPa 0,0 l/m 8,9 km/h (2 Bft) W 279 0 min 0,000 mm 0,6 UV-I 93 W/m 8,9 C 8,0 C 17,7 km/h (3 Bft) 100,00 %
01.10.2018 12:50 9,8 C 13,3 C 11,1 C 94 % 1012,1 hPa 0,0 l/m 8,2 km/h (2 Bft) W 262 0 min 0,000 mm 0,6 UV-I 93 W/m 8,9 C 8,5 C 12,9 km/h (3 Bft) 100,00 %
01.10.2018 12:52 9,8 C 13,3 C 10,6 C 94 % 1012,1 hPa 0,0 l/m 7,5 km/h (2 Bft) W-NW 285 0 min 0,000 mm 0,5 UV-I 89 W/m 8,9 C 9,0 C 12,9 km/h (3 Bft) 96,00 %
01.10.2018 12:54 9,8 C 13,3 C 10,6 C 94 % 1012,1 hPa 0,0 l/m 6,9 km/h (2 Bft) W 267 0 min 0,000 mm 0,5 UV-I 80 W/m 8,9 C 9,4 C 12,9 km/h (3 Bft) 90,00 %
01.10.2018 12:56 9,8 C 13,3 C 10,6 C 94 % 1012,1 hPa 0,0 l/m 5,3 km/h (1 Bft) W-NW 282 0 min 0,000 mm 0,5 UV-I 74 W/m 8,9 C 9,8 C 9,7 km/h (2 Bft) 95,74 %
01.10.2018 12:58 9,9 C 13,3 C 10,6 C 94 % 1012,1 hPa 0,0 l/m 4,9 km/h (1 Bft) W 281 0 min 0,000 mm 0,5 UV-I 74 W/m 9,0 C 9,9 C 9,7 km/h (2 Bft) 95,74 %
01.10.2018 13:00 9,9 C 13,3 C 11,1 C 94 % 1012,1 hPa 0,0 l/m 5,0 km/h (1 Bft) W 274 0 min 0,050 mm 0,5 UV-I 80 W/m 9,0 C 9,9 C 9,7 km/h (2 Bft) 95,74 %
01.10.2018 13:02 9,9 C 13,3 C 11,1 C 94 % 1012,0 hPa 0,0 l/m 3,2 km/h (1 Bft) W 274 0 min 0,000 mm 0,6 UV-I 93 W/m 9,0 C 9,9 C 6,4 km/h (2 Bft) 96,00 %
01.10.2018 13:04 9,9 C 13,3 C 11,1 C 94 % 1012,0 hPa 0,0 l/m 3,3 km/h (1 Bft) W-NW 297 0 min 0,000 mm 0,7 UV-I 117 W/m 9,0 C 9,9 C 6,4 km/h (2 Bft) 94,87 %
01.10.2018 13:06 9,9 C 13,3 C 11,7 C 94 % 1012,0 hPa 0,0 l/m 2,1 km/h (1 Bft) W 275 0 min 0,000 mm 0,8 UV-I 143 W/m 9,0 C 9,9 C 4,8 km/h (1 Bft) 95,74 %
01.10.2018 13:08 10,0 C 13,3 C 11,7 C 94 % 1012,0 hPa 0,0 l/m 1,5 km/h (1 Bft) W 275 0 min 0,000 mm 0,9 UV-I 161 W/m 9,1 C 10,0 C 3,2 km/h (1 Bft) 98,00 %
01.10.2018 13:10 10,0 C 13,3 C 12,2 C 94 % 1012,0 hPa 0,0 l/m 2,6 km/h (1 Bft) W 273 0 min 0,000 mm 0,9 UV-I 160 W/m 9,1 C 10,0 C 4,8 km/h (1 Bft) 91,49 %
01.10.2018 13:12 10,1 C 13,3 C 12,2 C 94 % 1012,0 hPa 0,0 l/m 2,7 km/h (1 Bft) W-NW 299 0 min 0,000 mm 0,9 UV-I 147 W/m 9,2 C 10,1 C 6,4 km/h (2 Bft) 91,49 %
01.10.2018 13:14 10,2 C 13,3 C 12,2 C 94 % 1012,1 hPa 0,0 l/m 4,0 km/h (1 Bft) W-NW 284 0 min 0,000 mm 0,8 UV-I 132 W/m 9,3 C 10,2 C 6,4 km/h (2 Bft) 92,00 %
01.10.2018 13:16 10,2 C 13,3 C 12,2 C 94 % 1012,0 hPa 0,0 l/m 3,6 km/h (1 Bft) W 259 0 min 0,000 mm 0,7 UV-I 119 W/m 9,3 C 10,2 C 6,4 km/h (2 Bft) 95,74 %
01.10.2018 13:18 10,3 C 13,3 C 11,7 C 94 % 1012,0 hPa 0,0 l/m 4,3 km/h (1 Bft) W-SW 250 0 min 0,000 mm 0,7 UV-I 108 W/m 9,4 C 10,3 C 6,4 km/h (2 Bft) 93,62 %
01.10.2018 13:20 10,2 C 13,3 C 11,7 C 94 % 1012,1 hPa 0,0 l/m 3,4 km/h (1 Bft) W 265 0 min 0,000 mm 0,6 UV-I 104 W/m 9,3 C 10,2 C 4,8 km/h (1 Bft) 95,74 %
01.10.2018 13:22 10,3 C 13,3 C 11,7 C 94 % 1012,1 hPa 0,0 l/m 4,3 km/h (1 Bft) W-NW 300 0 min 0,000 mm 0,6 UV-I 102 W/m 9,4 C 10,3 C 9,7 km/h (2 Bft) 95,74 %
01.10.2018 13:24 10,3 C 13,3 C 11,7 C 94 % 1012,1 hPa 0,0 l/m 4,8 km/h (1 Bft) W 261 0 min 0,000 mm 0,6 UV-I 100 W/m 9,4 C 10,3 C 9,7 km/h (2 Bft) 91,49 %
01.10.2018 13:26 10,3 C 13,3 C 11,7 C 94 % 1012,1 hPa 0,0 l/m 4,2 km/h (1 Bft) W-SW 255 0 min 0,000 mm 0,6 UV-I 101 W/m 9,4 C 10,3 C 8,0 km/h (2 Bft) 95,74 %
01.10.2018 13:28 10,3 C 13,3 C 11,7 C 94 % 1012,1 hPa 0,0 l/m 8,8 km/h (2 Bft) W 272 0 min 0,000 mm 0,6 UV-I 108 W/m 9,4 C 8,6 C 14,5 km/h (3 Bft) 95,74 %
01.10.2018 13:30 10,3 C 13,3 C 11,7 C 94 % 1012,1 hPa 0,0 l/m 3,8 km/h (1 Bft) W 269 0 min 0,000 mm 0,7 UV-I 119 W/m 9,4 C 10,3 C 6,4 km/h (2 Bft) 95,74 %
01.10.2018 13:32 10,3 C 13,3 C 11,7 C 94 % 1012,1 hPa 0,0 l/m 7,8 km/h (2 Bft) W 277 0 min 0,000 mm 0,7 UV-I 130 W/m 9,4 C 9,3 C 14,5 km/h (3 Bft) 94,74 %
01.10.2018 13:34 10,3 C 13,3 C 11,7 C 94 % 1012,1 hPa 0,0 l/m 9,2 km/h (2 Bft) W 273 0 min 0,000 mm 0,8 UV-I 134 W/m 9,4 C 8,4 C 12,9 km/h (3 Bft) 95,74 %
01.10.2018 13:36 10,3 C 13,3 C 11,7 C 94 % 1012,2 hPa 0,0 l/m 8,9 km/h (2 Bft) SW 234 0 min 0,000 mm 0,7 UV-I 128 W/m 9,4 C 8,6 C 14,5 km/h (3 Bft) 93,62 %
01.10.2018 13:38 10,4 C 13,3 C 11,7 C 94 % 1012,1 hPa 0,0 l/m 11,1 km/h (2 Bft) W-SW 244 0 min 0,000 mm 0,7 UV-I 119 W/m 9,5 C 7,4 C 17,7 km/h (3 Bft) 95,83 %
01.10.2018 13:40 10,4 C 13,3 C 11,7 C 93 % 1012,2 hPa 0,0 l/m 9,9 km/h (2 Bft) W-SW 252 0 min 0,000 mm 0,7 UV-I 113 W/m 9,3 C 8,1 C 17,7 km/h (3 Bft) 93,62 %
01.10.2018 13:42 10,4 C 13,3 C 11,7 C 93 % 1012,2 hPa 0,0 l/m 11,7 km/h (2 Bft) W 267 0 min 0,000 mm 0,7 UV-I 116 W/m 9,3 C 7,1 C 17,7 km/h (3 Bft) 95,74 %
01.10.2018 13:44 10,4 C 13,3 C 11,7 C 93 % 1012,1 hPa 0,0 l/m 11,7 km/h (2 Bft) W 261 0 min 0,000 mm 0,7 UV-I 125 W/m 9,3 C 7,1 C 19,3 km/h (3 Bft) 91,49 %
01.10.2018 13:46 10,4 C 13,3 C 11,7 C 93 % 1012,2 hPa 0,0 l/m 8,9 km/h (2 Bft) W-SW 254 0 min 0,000 mm 0,7 UV-I 134 W/m 9,3 C 8,7 C 20,9 km/h (4 Bft) 95,74 %
01.10.2018 13:48 10,4 C 13,3 C 11,7 C 93 % 1012,2 hPa 0,0 l/m 12,8 km/h (3 Bft) W-SW 254 0 min 0,000 mm 0,8 UV-I 138 W/m 9,3 C 6,6 C 19,3 km/h (3 Bft) 94,34 %
01.10.2018 13:50 10,4 C 13,3 C 11,7 C 93 % 1012,2 hPa 0,0 l/m 9,9 km/h (2 Bft) W-SW 250 0 min 0,000 mm 0,8 UV-I 134 W/m 9,3 C 8,1 C 17,7 km/h (3 Bft) 95,74 %
01.10.2018 13:52 10,4 C 13,3 C 11,7 C 93 % 1012,3 hPa 0,0 l/m 11,4 km/h (2 Bft) W 262 0 min 0,000 mm 0,8 UV-I 133 W/m 9,3 C 7,3 C 17,7 km/h (3 Bft) 97,37 %
01.10.2018 13:54 10,4 C 13,3 C 11,7 C 93 % 1012,3 hPa 0,0 l/m 10,1 km/h (2 Bft) W 275 0 min 0,000 mm 0,8 UV-I 132 W/m 9,3 C 8,0 C 16,1 km/h (3 Bft) 97,87 %
01.10.2018 13:56 10,5 C 13,3 C 11,7 C 92 % 1012,3 hPa 0,0 l/m 7,9 km/h (2 Bft) W-SW 252 0 min 0,000 mm 0,7 UV-I 127 W/m 9,3 C 9,4 C 12,9 km/h (3 Bft) 96,00 %
01.10.2018 13:58 10,4 C 13,3 C 11,7 C 92 % 1012,3 hPa 0,0 l/m 7,6 km/h (2 Bft) W-NW 285 0 min 0,000 mm 0,7 UV-I 122 W/m 9,2 C 9,5 C 12,9 km/h (3 Bft) 93,62 %
01.10.2018 14:00 10,5 C 13,3 C 11,7 C 92 % 1012,3 hPa 0,0 l/m 8,5 km/h (2 Bft) W 273 0 min 0,000 mm 0,6 UV-I 114 W/m 9,3 C 9,1 C 14,5 km/h (3 Bft) 98,00 %
01.10.2018 14:02 10,6 C 13,3 C 11,7 C 92 % 1012,3 hPa 0,0 l/m 8,3 km/h (2 Bft) W 263 0 min 0,051 mm 0,6 UV-I 105 W/m 9,4 C 9,3 C 11,3 km/h (2 Bft) 97,56 %
01.10.2018 14:04 10,6 C 13,3 C 11,7 C 92 % 1012,2 hPa 0,0 l/m 5,2 km/h (1 Bft) N 350 0 min 0,000 mm 0,5 UV-I 100 W/m 9,4 C 10,6 C 9,7 km/h (2 Bft) 97,87 %
01.10.2018 14:06 10,6 C 13,3 C 11,7 C 92 % 1012,2 hPa 0,0 l/m 6,2 km/h (2 Bft) W 263 0 min 0,000 mm 0,5 UV-I 96 W/m 9,4 C 10,6 C 11,3 km/h (2 Bft) 100,00 %
01.10.2018 14:08 10,6 C 13,3 C 11,7 C 92 % 1012,2 hPa 0,0 l/m 6,5 km/h (2 Bft) W-SW 257 0 min 0,000 mm 0,5 UV-I 94 W/m 9,4 C 10,6 C 9,7 km/h (2 Bft) 97,87 %
01.10.2018 14:10 10,6 C 13,3 C 11,7 C 92 % 1012,3 hPa 0,0 l/m 9,3 km/h (2 Bft) W 274 0 min 0,000 mm 0,5 UV-I 95 W/m 9,4 C 8,7 C 16,1 km/h (3 Bft) 100,00 %
01.10.2018 14:12 10,6 C 13,3 C 11,7 C 92 % 1012,3 hPa 0,0 l/m 6,0 km/h (2 Bft) W 264 0 min 0,000 mm 0,5 UV-I 98 W/m 9,4 C 10,6 C 11,3 km/h (2 Bft) 100,00 %
01.10.2018 14:14 10,6 C 13,3 C 11,7 C 92 % 1012,3 hPa 0,0 l/m 10,5 km/h (2 Bft) W 263 0 min 0,000 mm 0,5 UV-I 106 W/m 9,4 C 8,0 C 19,3 km/h (3 Bft) 100,00 %
01.10.2018 14:16 10,6 C 13,3 C 11,7 C 92 % 1012,3 hPa 0,0 l/m 7,1 km/h (2 Bft) W-SW 246 0 min 0,000 mm 0,6 UV-I 113 W/m 9,4 C 10,1 C 11,3 km/h (2 Bft) 100,00 %
01.10.2018 14:18 10,7 C 13,3 C 11,7 C 92 % 1012,3 hPa 0,0 l/m 7,2 km/h (2 Bft) W-SW 248 0 min 0,000 mm 0,6 UV-I 110 W/m 9,5 C 10,1 C 11,3 km/h (2 Bft) 100,00 %
01.10.2018 14:20 10,7 C 13,3 C 11,7 C 92 % 1012,4 hPa 0,0 l/m 6,3 km/h (2 Bft) W 273 0 min 0,000 mm 0,6 UV-I 105 W/m 9,5 C 10,7 C 11,3 km/h (2 Bft) 97,44 %
01.10.2018 14:22 10,7 C 13,3 C 11,7 C 92 % 1012,4 hPa 0,0 l/m 9,7 km/h (2 Bft) W-SW 254 0 min 0,000 mm 0,5 UV-I 101 W/m 9,5 C 8,5 C 16,1 km/h (3 Bft) 100,00 %
01.10.2018 14:24 10,7 C 13,3 C 11,7 C 92 % 1012,3 hPa 0,0 l/m 10,5 km/h (2 Bft) W 261 0 min 0,000 mm 0,5 UV-I 94 W/m 9,5 C 8,1 C 16,1 km/h (3 Bft) 100,00 %
01.10.2018 14:26 10,8 C 13,3 C 11,7 C 91 % 1012,3 hPa 0,0 l/m 12,7 km/h (3 Bft) W 275 0 min 0,000 mm 0,5 UV-I 90 W/m 9,4 C 7,1 C 16,1 km/h (3 Bft) 100,00 %
01.10.2018 14:28 10,8 C 13,3 C 11,7 C 92 % 1012,3 hPa 0,0 l/m 9,6 km/h (2 Bft) W-SW 252 0 min 0,000 mm 0,5 UV-I 84 W/m 9,6 C 8,7 C 14,5 km/h (3 Bft) 100,00 %
01.10.2018 14:30 10,8 C 13,3 C 11,7 C 91 % 1012,4 hPa 0,0 l/m 6,9 km/h (2 Bft) W 262 0 min 0,000 mm 0,5 UV-I 81 W/m 9,4 C 10,5 C 11,3 km/h (2 Bft) 100,00 %
01.10.2018 14:32 10,8 C 13,3 C 11,7 C 91 % 1012,4 hPa 0,0 l/m 10,9 km/h (2 Bft) SW 234 0 min 0,000 mm 0,5 UV-I 83 W/m 9,4 C 8,0 C 14,5 km/h (3 Bft) 100,00 %
01.10.2018 14:34 10,8 C 13,3 C 11,7 C 91 % 1012,4 hPa 0,0 l/m 12,0 km/h (2 Bft) W-SW 250 0 min 0,000 mm 0,3 UV-I 85 W/m 9,4 C 7,4 C 17,7 km/h (3 Bft) 100,00 %
01.10.2018 14:36 10,8 C 13,3 C 11,7 C 91 % 1012,4 hPa 0,0 l/m 9,6 km/h (2 Bft) W 269 0 min 0,000 mm 0,0 UV-I 83 W/m 9,4 C 8,7 C 16,1 km/h (3 Bft) 100,00 %
01.10.2018 14:38 10,8 C 13,3 C 11,7 C 91 % 1012,5 hPa 0,0 l/m 10,1 km/h (2 Bft) W 262 0 min 0,000 mm 0,0 UV-I 77 W/m 9,4 C 8,4 C 19,3 km/h (3 Bft) 100,00 %
01.10.2018 14:40 10,8 C 13,3 C 11,7 C 91 % 1012,5 hPa 0,0 l/m 10,9 km/h (2 Bft) W-SW 256 0 min 0,000 mm 0,0 UV-I 72 W/m 9,4 C 8,0 C 16,1 km/h (3 Bft) 100,00 %
01.10.2018 14:42 10,8 C 13,3 C 11,1 C 91 % 1012,5 hPa 0,0 l/m 9,8 km/h (2 Bft) W 262 0 min 0,000 mm 0,0 UV-I 66 W/m 9,4 C 8,6 C 14,5 km/h (3 Bft) 100,00 %
01.10.2018 14:44 10,8 C 13,3 C 11,1 C 91 % 1012,6 hPa 0,0 l/m 10,7 km/h (2 Bft) W 271 0 min 0,000 mm 0,0 UV-I 63 W/m 9,4 C 8,1 C 16,1 km/h (3 Bft) 100,00 %
01.10.2018 14:46 10,8 C 13,3 C 11,1 C 91 % 1012,5 hPa 0,0 l/m 10,9 km/h (2 Bft) SW 234 0 min 0,000 mm 0,0 UV-I 62 W/m 9,4 C 8,0 C 16,1 km/h (3 Bft) 100,00 %
01.10.2018 14:48 10,8 C 13,3 C 11,1 C 90 % 1012,5 hPa 0,0 l/m 13,7 km/h (3 Bft) W-SW 257 0 min 0,000 mm 0,0 UV-I 61 W/m 9,2 C 6,7 C 17,7 km/h (3 Bft) 100,00 %
01.10.2018 14:50 10,8 C 13,3 C 11,1 C 90 % 1012,6 hPa 0,0 l/m 12,5 km/h (3 Bft) W 260 0 min 0,000 mm 0,0 UV-I 59 W/m 9,2 C 7,2 C 17,7 km/h (3 Bft) 100,00 %
01.10.2018 14:52 10,8 C 13,3 C 11,1 C 90 % 1012,6 hPa 0,0 l/m 16,1 km/h (3 Bft) W 271 0 min 0,000 mm 0,0 UV-I 55 W/m 9,2 C 5,7 C 22,5 km/h (4 Bft) 97,87 %
01.10.2018 14:54 10,8 C 13,3 C 11,1 C 90 % 1012,6 hPa 0,0 l/m 10,0 km/h (2 Bft) W 271 0 min 0,000 mm 0,0 UV-I 53 W/m 9,2 C 8,5 C 16,1 km/h (3 Bft) 94,00 %
01.10.2018 14:56 10,7 C 13,3 C 11,1 C 90 % 1012,5 hPa 0,0 l/m 14,6 km/h (3 Bft) W 281 0 min 0,000 mm 0,0 UV-I 53 W/m 9,1 C 6,1 C 25,7 km/h (4 Bft) 96,00 %
01.10.2018 14:58 10,7 C 13,3 C 11,1 C 89 % 1012,6 hPa 0,0 l/m 14,8 km/h (3 Bft) W-SW 242 0 min 0,000 mm 0,0 UV-I 51 W/m 9,0 C 6,1 C 24,1 km/h (4 Bft) 95,74 %
01.10.2018 15:00 10,7 C 13,3 C 10,6 C 89 % 1012,6 hPa 0,0 l/m 12,4 km/h (3 Bft) W 279 0 min 0,000 mm 0,0 UV-I 48 W/m 9,0 C 7,1 C 20,9 km/h (4 Bft) 91,67 %
01.10.2018 15:02 10,7 C 13,3 C 10,6 C 89 % 1012,6 hPa 0,0 l/m 14,1 km/h (3 Bft) W-NW 298 0 min 0,051 mm 0,0 UV-I 46 W/m 9,0 C 6,4 C 20,9 km/h (4 Bft) 95,74 %
01.10.2018 15:04 10,7 C 13,3 C 10,6 C 89 % 1012,7 hPa 0,0 l/m 11,9 km/h (2 Bft) SW 236 0 min 0,000 mm 0,0 UV-I 47 W/m 9,0 C 7,4 C 17,7 km/h (3 Bft) 91,49 %
01.10.2018 15:06 10,6 C 13,3 C 10,6 C 89 % 1012,8 hPa 0,0 l/m 11,4 km/h (2 Bft) W 263 0 min 0,000 mm 0,0 UV-I 49 W/m 8,9 C 7,5 C 16,1 km/h (3 Bft) 95,74 %
01.10.2018 15:08 10,6 C 13,3 C 10,6 C 89 % 1012,7 hPa 0,0 l/m 10,3 km/h (2 Bft) W-SW 246 0 min 0,000 mm 0,0 UV-I 53 W/m 8,9 C 8,1 C 16,1 km/h (3 Bft) 95,74 %
01.10.2018 15:10 10,6 C 13,3 C 10,6 C 90 % 1012,7 hPa 0,0 l/m 11,6 km/h (2 Bft) W 271 0 min 0,000 mm 0,0 UV-I 55 W/m 9,0 C 7,4 C 19,3 km/h (3 Bft) 94,29 %
01.10.2018 15:12 10,5 C 13,3 C 10,6 C 90 % 1012,8 hPa 0,0 l/m 9,0 km/h (2 Bft) W-SW 252 0 min 0,000 mm 0,0 UV-I 57 W/m 8,9 C 8,7 C 16,1 km/h (3 Bft) 94,00 %
01.10.2018 15:14 10,5 C 13,3 C 10,6 C 90 % 1012,8 hPa 0,0 l/m 11,9 km/h (2 Bft) W-SW 256 0 min 0,000 mm 0,0 UV-I 59 W/m 8,9 C 7,1 C 19,3 km/h (3 Bft) 96,00 %
01.10.2018 15:16 10,5 C 13,3 C 10,6 C 90 % 1012,7 hPa 0,0 l/m 11,8 km/h (2 Bft) W-SW 244 0 min 0,000 mm 0,0 UV-I 60 W/m 8,9 C 7,2 C 19,3 km/h (3 Bft) 97,87 %
01.10.2018 15:18 10,5 C 13,3 C 10,6 C 90 % 1012,8 hPa 0,0 l/m 11,0 km/h (2 Bft) W-SW 248 0 min 0,000 mm 0,0 UV-I 62 W/m 8,9 C 7,6 C 14,5 km/h (3 Bft) 97,87 %
01.10.2018 15:20 10,5 C 13,3 C 10,6 C 90 % 1012,8 hPa 0,0 l/m 10,7 km/h (2 Bft) W-SW 240 0 min 0,000 mm 0,0 UV-I 62 W/m 8,9 C 7,8 C 16,1 km/h (3 Bft) 97,87 %
01.10.2018 15:22 10,5 C 13,3 C 10,6 C 91 % 1012,8 hPa 0,2 l/m 12,3 km/h (3 Bft) W-SW 239 0 min 0,000 mm 0,0 UV-I 64 W/m 9,1 C 6,9 C 16,1 km/h (3 Bft) 95,74 %
01.10.2018 15:24 10,5 C 13,3 C 10,6 C 91 % 1012,7 hPa 0,0 l/m 9,7 km/h (2 Bft) W-SW 237 0 min 0,000 mm 0,0 UV-I 69 W/m 9,1 C 8,3 C 16,1 km/h (3 Bft) 97,87 %
01.10.2018 15:26 10,5 C 13,3 C 10,6 C 91 % 1012,7 hPa 0,0 l/m 11,4 km/h (2 Bft) W-SW 252 0 min 0,000 mm 0,0 UV-I 72 W/m 9,1 C 7,4 C 16,1 km/h (3 Bft) 97,87 %
01.10.2018 15:28 10,5 C 13,3 C 10,6 C 90 % 1012,8 hPa 0,0 l/m 12,4 km/h (3 Bft) W-SW 253 0 min 0,000 mm 0,0 UV-I 72 W/m 8,9 C 6,9 C 19,3 km/h (3 Bft) 97,87 %
01.10.2018 15:30 10,5 C 13,3 C 10,6 C 90 % 1012,8 hPa 0,0 l/m 12,9 km/h (3 Bft) W-SW 248 0 min 0,000 mm 0,0 UV-I 71 W/m 8,9 C 6,7 C 16,1 km/h (3 Bft) 100,00 %
01.10.2018 15:32 10,5 C 13,3 C 10,6 C 90 % 1012,8 hPa 0,0 l/m 10,1 km/h (2 Bft) W 268 0 min 0,000 mm 0,0 UV-I 68 W/m 8,9 C 8,1 C 14,5 km/h (3 Bft) 100,00 %
01.10.2018 15:34 10,4 C 13,3 C 10,6 C 91 % 1012,9 hPa 0,0 l/m 11,0 km/h (2 Bft) W 265 0 min 0,000 mm 0,0 UV-I 66 W/m 9,0 C 7,5 C 16,1 km/h (3 Bft) 100,00 %
01.10.2018 15:36 10,5 C 13,3 C 10,6 C 90 % 1012,9 hPa 0,0 l/m 9,7 km/h (2 Bft) W 265 0 min 0,000 mm 0,0 UV-I 70 W/m 8,9 C 8,3 C 12,9 km/h (3 Bft) 100,00 %
01.10.2018 15:38 10,5 C 13,3 C 10,6 C 91 % 1012,9 hPa 0,0 l/m 10,9 km/h (2 Bft) SW 235 0 min 0,000 mm 0,0 UV-I 81 W/m 9,1 C 7,7 C 16,1 km/h (3 Bft) 98,28 %
01.10.2018 15:40 10,5 C 13,3 C 10,6 C 91 % 1012,9 hPa 0,0 l/m 11,9 km/h (2 Bft) SW 231 0 min 0,000 mm 0,0 UV-I 87 W/m 9,1 C 7,1 C 20,9 km/h (4 Bft) 100,00 %
01.10.2018 15:42 10,5 C 13,3 C 10,6 C 91 % 1012,9 hPa 0,0 l/m 12,7 km/h (3 Bft) W-SW 257 0 min 0,000 mm 0,0 UV-I 86 W/m 9,1 C 6,8 C 19,3 km/h (3 Bft) 97,87 %
01.10.2018 15:44 10,6 C 13,3 C 10,6 C 91 % 1012,9 hPa 0,0 l/m 13,2 km/h (3 Bft) SW 225 0 min 0,000 mm 0,0 UV-I 87 W/m 9,2 C 6,6 C 20,9 km/h (4 Bft) 97,87 %
01.10.2018 15:46 10,6 C 13,3 C 10,6 C 90 % 1012,9 hPa 0,0 l/m 16,3 km/h (3 Bft) W-SW 246 0 min 0,000 mm 0,0 UV-I 91 W/m 9,0 C 5,3 C 24,1 km/h (4 Bft) 100,00 %
01.10.2018 15:48 10,6 C 13,3 C 10,6 C 90 % 1012,9 hPa 0,0 l/m 17,6 km/h (3 Bft) W-SW 242 0 min 0,000 mm 0,0 UV-I 95 W/m 9,0 C 4,9 C 25,7 km/h (4 Bft) 95,74 %
01.10.2018 15:50 10,6 C 13,3 C 10,6 C 90 % 1012,9 hPa 0,0 l/m 13,4 km/h (3 Bft) SW 233 0 min 0,000 mm 0,0 UV-I 103 W/m 9,0 C 6,5 C 22,5 km/h (4 Bft) 100,00 %
01.10.2018 15:52 10,7 C 13,3 C 10,6 C 90 % 1012,9 hPa 0,0 l/m 14,7 km/h (3 Bft) W 267 0 min 0,000 mm 0,0 UV-I 110 W/m 9,1 C 6,1 C 25,7 km/h (4 Bft) 97,87 %
01.10.2018 15:54 10,7 C 13,3 C 10,6 C 90 % 1012,9 hPa 0,0 l/m 13,9 km/h (3 Bft) SW 232 0 min 0,000 mm 0,0 UV-I 111 W/m 9,1 C 6,4 C 20,9 km/h (4 Bft) 100,00 %
01.10.2018 15:56 10,7 C 13,3 C 10,6 C 90 % 1012,9 hPa 0,0 l/m 10,3 km/h (2 Bft) SW 236 0 min 0,000 mm 0,0 UV-I 110 W/m 9,1 C 8,2 C 16,1 km/h (3 Bft) 97,87 %
01.10.2018 15:58 10,7 C 13,3 C 10,6 C 91 % 1012,9 hPa 0,0 l/m 14,3 km/h (3 Bft) SW 217 0 min 0,000 mm 0,0 UV-I 109 W/m 9,3 C 6,3 C 20,9 km/h (4 Bft) 100,00 %
01.10.2018 16:00 10,7 C 13,3 C 11,1 C 91 % 1012,9 hPa 0,0 l/m 10,1 km/h (2 Bft) W-SW 242 0 min 0,000 mm 0,1 UV-I 113 W/m 9,3 C 8,3 C 16,1 km/h (3 Bft) 100,00 %
01.10.2018 16:02 10,7 C 13,3 C 11,1 C 91 % 1012,8 hPa 0,0 l/m 12,2 km/h (2 Bft) SW 227 0 min 0,051 mm 0,5 UV-I 119 W/m 9,3 C 7,2 C 19,3 km/h (3 Bft) 100,00 %
01.10.2018 16:04 10,7 C 13,3 C 11,1 C 91 % 1012,8 hPa 0,0 l/m 10,1 km/h (2 Bft) SW 221 0 min 0,000 mm 0,4 UV-I 120 W/m 9,3 C 8,3 C 14,5 km/h (3 Bft) 97,87 %
01.10.2018 16:06 10,7 C 13,3 C 11,1 C 91 % 1012,8 hPa 0,0 l/m 13,3 km/h (3 Bft) S-SW 209 0 min 0,000 mm 0,0 UV-I 115 W/m 9,3 C 6,7 C 20,9 km/h (4 Bft) 96,00 %
01.10.2018 16:08 10,8 C 13,3 C 11,1 C 91 % 1012,9 hPa 0,0 l/m 12,6 km/h (3 Bft) SW 230 0 min 0,000 mm 0,0 UV-I 109 W/m 9,4 C 7,1 C 19,3 km/h (3 Bft) 97,87 %
01.10.2018 16:10 10,8 C 13,3 C 11,1 C 91 % 1012,9 hPa 0,0 l/m 11,2 km/h (2 Bft) W-SW 241 0 min 0,000 mm 0,0 UV-I 101 W/m 9,4 C 7,8 C 17,7 km/h (3 Bft) 100,00 %
01.10.2018 16:12 10,8 C 13,3 C 11,1 C 90 % 1012,8 hPa 0,0 l/m 15,4 km/h (3 Bft) SW 225 0 min 0,000 mm 0,0 UV-I 94 W/m 9,2 C 5,9 C 22,5 km/h (4 Bft) 100,00 %
01.10.2018 16:14 10,8 C 13,3 C 11,1 C 91 % 1012,8 hPa 0,0 l/m 14,7 km/h (3 Bft) S-SW 213 0 min 0,000 mm 0,0 UV-I 81 W/m 9,4 C 6,2 C 27,4 km/h (4 Bft) 100,00 %
01.10.2018 16:16 10,8 C 13,3 C 10,6 C 90 % 1012,8 hPa 0,0 l/m 17,5 km/h (3 Bft) SW 219 0 min 0,000 mm 0,0 UV-I 70 W/m 9,2 C 5,2 C 25,7 km/h (4 Bft) 95,74 %
01.10.2018 16:18 10,8 C 13,3 C 10,6 C 90 % 1012,8 hPa 0,0 l/m 20,5 km/h (4 Bft) W-SW 248 0 min 0,000 mm 0,0 UV-I 62 W/m 9,2 C 4,2 C 27,4 km/h (4 Bft) 97,87 %
01.10.2018 16:20 10,7 C 13,3 C 10,6 C 90 % 1012,9 hPa 0,0 l/m 19,8 km/h (3 Bft) S-SW 213 0 min 0,000 mm 0,0 UV-I 53 W/m 9,1 C 4,3 C 27,4 km/h (4 Bft) 97,87 %
01.10.2018 16:22 10,7 C 13,3 C 10,0 C 90 % 1012,9 hPa 0,0 l/m 18,9 km/h (3 Bft) SW 235 0 min 0,000 mm 0,0 UV-I 47 W/m 9,1 C 4,5 C 29,0 km/h (5 Bft) 97,37 %
01.10.2018 16:24 10,7 C 13,3 C 10,0 C 90 % 1012,9 hPa 0,0 l/m 16,6 km/h (3 Bft) S-SW 209 0 min 0,000 mm 0,0 UV-I 43 W/m 9,1 C 5,4 C 24,1 km/h (4 Bft) 96,00 %
01.10.2018 16:26 10,7 C 13,3 C 10,0 C 90 % 1012,9 hPa 0,0 l/m 19,5 km/h (3 Bft) W-SW 252 0 min 0,000 mm 0,0 UV-I 41 W/m 9,1 C 4,4 C 30,6 km/h (5 Bft) 96,00 %
01.10.2018 16:28 10,7 C 13,3 C 10,0 C 90 % 1012,9 hPa 0,0 l/m 16,7 km/h (3 Bft) W-SW 243 0 min 0,000 mm 0,0 UV-I 43 W/m 9,1 C 5,3 C 27,4 km/h (4 Bft) 98,00 %
01.10.2018 16:30 10,6 C 13,3 C 10,0 C 91 % 1012,9 hPa 0,0 l/m 15,5 km/h (3 Bft) W-SW 242 0 min 0,000 mm 0,0 UV-I 44 W/m 9,2 C 5,7 C 22,5 km/h (4 Bft) 100,00 %
01.10.2018 16:32 10,6 C 13,3 C 10,0 C 91 % 1013,0 hPa 0,0 l/m 16,3 km/h (3 Bft) W 273 0 min 0,000 mm 0,0 UV-I 41 W/m 9,2 C 5,3 C 25,7 km/h (4 Bft) 96,00 %
01.10.2018 16:34 10,6 C 13,3 C 10,0 C 91 % 1013,0 hPa 0,2 l/m 17,8 km/h (3 Bft) SW 236 0 min 0,000 mm 0,0 UV-I 38 W/m 9,2 C 4,8 C 24,1 km/h (4 Bft) 98,00 %
01.10.2018 16:36 10,5 C 13,3 C 10,0 C 91 % 1013,0 hPa 0,0 l/m 15,7 km/h (3 Bft) W 267 0 min 0,000 mm 0,0 UV-I 39 W/m 9,1 C 5,5 C 22,5 km/h (4 Bft) 97,87 %
01.10.2018 16:38 10,5 C 13,3 C 10,0 C 91 % 1013,0 hPa 0,0 l/m 20,5 km/h (4 Bft) W 271 0 min 0,000 mm 0,0 UV-I 42 W/m 9,1 C 3,8 C 32,2 km/h (5 Bft) 97,87 %
01.10.2018 16:40 10,5 C 13,3 C 10,0 C 91 % 1013,1 hPa 0,0 l/m 21,9 km/h (4 Bft) SW 232 0 min 0,000 mm 0,0 UV-I 37 W/m 9,1 C 3,4 C 32,2 km/h (5 Bft) 100,00 %
01.10.2018 16:42 10,4 C 13,3 C 10,0 C 91 % 1013,1 hPa 0,0 l/m 23,8 km/h (4 Bft) W-SW 246 0 min 0,000 mm 0,0 UV-I 29 W/m 9,0 C 2,7 C 38,6 km/h (5 Bft) 98,00 %
01.10.2018 16:44 10,4 C 13,3 C 10,0 C 91 % 1013,1 hPa 0,0 l/m 17,9 km/h (3 Bft) W 261 0 min 0,000 mm 0,0 UV-I 26 W/m 9,0 C 4,5 C 30,6 km/h (5 Bft) 97,87 %
01.10.2018 16:46 10,4 C 13,3 C 10,0 C 92 % 1013,1 hPa 0,0 l/m 17,3 km/h (3 Bft) W-SW 242 0 min 0,000 mm 0,0 UV-I 26 W/m 9,2 C 4,7 C 30,6 km/h (5 Bft) 100,00 %
01.10.2018 16:48 10,4 C 13,3 C 10,0 C 91 % 1013,2 hPa 0,0 l/m 19,5 km/h (3 Bft) S-SW 212 0 min 0,000 mm 0,0 UV-I 25 W/m 9,0 C 4,0 C 29,0 km/h (5 Bft) 100,00 %
01.10.2018 16:50 10,3 C 13,3 C 10,0 C 91 % 1013,2 hPa 0,0 l/m 19,0 km/h (3 Bft) W-SW 250 0 min 0,000 mm 0,0 UV-I 22 W/m 8,9 C 4,0 C 29,0 km/h (5 Bft) 100,00 %
01.10.2018 16:52 10,3 C 13,3 C 10,0 C 92 % 1013,2 hPa 0,2 l/m 16,6 km/h (3 Bft) W 276 0 min 0,000 mm 0,0 UV-I 19 W/m 9,1 C 4,9 C 29,0 km/h (5 Bft) 100,00 %
01.10.2018 16:54 10,3 C 13,3 C 10,0 C 92 % 1013,2 hPa 0,0 l/m 14,4 km/h (3 Bft) SW 215 0 min 0,000 mm 0,0 UV-I 22 W/m 9,1 C 5,8 C 20,9 km/h (4 Bft) 97,87 %
01.10.2018 16:56 10,3 C 13,3 C 10,0 C 92 % 1013,3 hPa 0,0 l/m 17,1 km/h (3 Bft) W-SW 241 0 min 0,000 mm 0,0 UV-I 23 W/m 9,1 C 4,7 C 25,7 km/h (4 Bft) 89,36 %
01.10.2018 16:58 10,3 C 13,3 C 10,0 C 92 % 1013,3 hPa 0,0 l/m 15,7 km/h (3 Bft) SW 224 0 min 0,000 mm 0,0 UV-I 24 W/m 9,1 C 5,2 C 24,1 km/h (4 Bft) 93,62 %
01.10.2018 17:00 10,3 C 13,3 C 10,0 C 92 % 1013,3 hPa 0,0 l/m 18,1 km/h (3 Bft) W-SW 258 0 min 0,051 mm 0,0 UV-I 26 W/m 9,1 C 4,3 C 29,0 km/h (5 Bft) 96,00 %
01.10.2018 17:02 10,3 C 13,3 C 10,0 C 92 % 1013,3 hPa 0,0 l/m 16,7 km/h (3 Bft) SW 226 0 min 0,000 mm 0,0 UV-I 30 W/m 9,1 C 4,8 C 24,1 km/h (4 Bft) 95,74 %
01.10.2018 17:04 10,3 C 13,3 C 10,0 C 92 % 1013,4 hPa 0,0 l/m 20,4 km/h (4 Bft) SW 231 0 min 0,000 mm 0,0 UV-I 35 W/m 9,1 C 3,5 C 32,2 km/h (5 Bft) 95,74 %
01.10.2018 17:06 10,3 C 13,3 C 10,0 C 92 % 1013,4 hPa 0,0 l/m 20,0 km/h (4 Bft) W-SW 254 0 min 0,000 mm 0,0 UV-I 39 W/m 9,1 C 3,7 C 25,7 km/h (4 Bft) 92,11 %
01.10.2018 17:08 10,3 C 13,3 C 10,0 C 92 % 1013,4 hPa 0,0 l/m 18,2 km/h (3 Bft) SW 223 0 min 0,000 mm 0,0 UV-I 43 W/m 9,1 C 4,3 C 30,6 km/h (5 Bft) 95,74 %
01.10.2018 17:10 10,3 C 13,3 C 10,0 C 92 % 1013,4 hPa 0,0 l/m 21,4 km/h (4 Bft) W 262 0 min 0,000 mm 0,0 UV-I 46 W/m 9,1 C 3,2 C 40,2 km/h (6 Bft) 93,62 %
01.10.2018 17:12 10,3 C 13,3 C 10,0 C 91 % 1013,4 hPa 0,0 l/m 16,5 km/h (3 Bft) W-SW 240 0 min 0,000 mm 0,0 UV-I 46 W/m 8,9 C 4,9 C 22,5 km/h (4 Bft) 95,74 %
01.10.2018 17:14 10,3 C 13,3 C 10,0 C 91 % 1013,5 hPa 0,0 l/m 20,2 km/h (4 Bft) W-SW 246 0 min 0,000 mm 0,0 UV-I 48 W/m 8,9 C 3,6 C 32,2 km/h (5 Bft) 95,74 %
01.10.2018 17:16 10,4 C 13,3 C 10,0 C 91 % 1013,5 hPa 0,0 l/m 18,4 km/h (3 Bft) W 267 0 min 0,000 mm 0,0 UV-I 51 W/m 9,0 C 4,3 C 27,4 km/h (4 Bft) 89,36 %
01.10.2018 17:18 10,4 C 13,3 C 10,0 C 91 % 1013,5 hPa 0,0 l/m 17,7 km/h (3 Bft) W 269 0 min 0,000 mm 0,0 UV-I 54 W/m 9,0 C 4,6 C 27,4 km/h (4 Bft) 92,45 %
01.10.2018 17:20 10,4 C 13,3 C 10,0 C 92 % 1013,6 hPa 0,0 l/m 16,6 km/h (3 Bft) W 265 0 min 0,000 mm 0,0 UV-I 54 W/m 9,2 C 5,0 C 24,1 km/h (4 Bft) 95,74 %
01.10.2018 17:22 10,4 C 13,3 C 10,0 C 91 % 1013,5 hPa 0,0 l/m 17,9 km/h (3 Bft) W-SW 244 0 min 0,000 mm 0,0 UV-I 54 W/m 9,0 C 4,5 C 27,4 km/h (4 Bft) 95,74 %
01.10.2018 17:24 10,4 C 13,3 C 10,0 C 91 % 1013,6 hPa 0,0 l/m 16,4 km/h (3 Bft) W 279 0 min 0,000 mm 0,0 UV-I 50 W/m 9,0 C 5,1 C 27,4 km/h (4 Bft) 96,00 %
01.10.2018 17:26 10,4 C 13,3 C 10,0 C 91 % 1013,5 hPa 0,0 l/m 22,3 km/h (4 Bft) W-SW 242 0 min 0,000 mm 0,0 UV-I 49 W/m 9,0 C 3,1 C 35,4 km/h (5 Bft) 95,74 %
01.10.2018 17:28 10,4 C 13,3 C 10,0 C 91 % 1013,6 hPa 0,0 l/m 22,6 km/h (4 Bft) SW 227 0 min 0,000 mm 0,0 UV-I 47 W/m 9,0 C 3,0 C 35,4 km/h (5 Bft) 94,87 %
01.10.2018 17:30 10,3 C 13,3 C 10,0 C 91 % 1013,5 hPa 0,0 l/m 24,2 km/h (4 Bft) SW 229 0 min 0,000 mm 0,0 UV-I 44 W/m 8,9 C 2,4 C 33,8 km/h (5 Bft) 95,74 %
01.10.2018 17:32 10,3 C 13,3 C 10,0 C 91 % 1013,5 hPa 0,0 l/m 20,7 km/h (4 Bft) W-SW 240 0 min 0,000 mm 0,0 UV-I 44 W/m 8,9 C 3,5 C 30,6 km/h (5 Bft) 91,49 %
01.10.2018 17:34 10,3 C 13,3 C 10,0 C 90 % 1013,5 hPa 0,0 l/m 20,4 km/h (4 Bft) S-SW 209 0 min 0,000 mm 0,0 UV-I 45 W/m 8,7 C 3,5 C 33,8 km/h (5 Bft) 98,00 %
01.10.2018 17:36 10,3 C 13,3 C 10,0 C 90 % 1013,5 hPa 0,0 l/m 26,7 km/h (4 Bft) SW 218 0 min 0,000 mm 0,0 UV-I 46 W/m 8,7 C 1,8 C 38,6 km/h (5 Bft) 95,74 %
01.10.2018 17:38 10,3 C 13,3 C 10,0 C 90 % 1013,5 hPa 0,0 l/m 25,4 km/h (4 Bft) W-SW 237 0 min 0,000 mm 0,0 UV-I 43 W/m 8,7 C 2,1 C 38,6 km/h (5 Bft) 97,87 %
01.10.2018 17:40 10,3 C 13,3 C 10,0 C 90 % 1013,5 hPa 0,0 l/m 28,1 km/h (4 Bft) SW 227 0 min 0,000 mm 0,0 UV-I 40 W/m 8,7 C 1,5 C 41,8 km/h (6 Bft) 95,74 %
01.10.2018 17:42 10,3 C 13,3 C 10,0 C 90 % 1013,6 hPa 0,0 l/m 26,0 km/h (4 Bft) W-SW 244 0 min 0,000 mm 0,0 UV-I 38 W/m 8,7 C 2,0 C 37,0 km/h (5 Bft) 93,62 %
01.10.2018 17:44 10,3 C 13,3 C 10,0 C 90 % 1013,7 hPa 0,0 l/m 24,6 km/h (4 Bft) W 277 0 min 0,000 mm 0,0 UV-I 37 W/m 8,7 C 2,3 C 35,4 km/h (5 Bft) 96,00 %
01.10.2018 17:46 10,3 C 13,3 C 10,0 C 90 % 1013,6 hPa 0,0 l/m 20,2 km/h (4 Bft) W-SW 238 0 min 0,000 mm 0,0 UV-I 36 W/m 8,7 C 3,6 C 33,8 km/h (5 Bft) 93,62 %
01.10.2018 17:48 10,3 C 13,3 C 10,0 C 90 % 1013,8 hPa 0,0 l/m 25,2 km/h (4 Bft) SW 232 0 min 0,000 mm 0,0 UV-I 32 W/m 8,7 C 2,2 C 37,0 km/h (5 Bft) 95,74 %
01.10.2018 17:50 10,3 C 13,3 C 10,0 C 89 % 1013,7 hPa 0,0 l/m 23,1 km/h (4 Bft) W 268 0 min 0,000 mm 0,0 UV-I 32 W/m 8,6 C 2,7 C 37,0 km/h (5 Bft) 91,49 %
01.10.2018 17:52 10,3 C 13,3 C 10,0 C 89 % 1013,8 hPa 0,0 l/m 20,0 km/h (4 Bft) SW 229 0 min 0,000 mm 0,0 UV-I 31 W/m 8,6 C 3,7 C 29,0 km/h (5 Bft) 95,74 %
01.10.2018 17:54 10,3 C 13,3 C 10,0 C 89 % 1013,9 hPa 0,0 l/m 19,7 km/h (3 Bft) W-SW 250 0 min 0,000 mm 0,0 UV-I 30 W/m 8,6 C 3,8 C 29,0 km/h (5 Bft) 93,62 %
01.10.2018 17:56 10,3 C 13,3 C 10,0 C 89 % 1013,9 hPa 0,0 l/m 20,6 km/h (4 Bft) SW 233 0 min 0,000 mm 0,0 UV-I 30 W/m 8,6 C 3,5 C 33,8 km/h (5 Bft) 94,74 %
01.10.2018 17:58 10,3 C 13,3 C 10,0 C 89 % 1013,9 hPa 0,0 l/m 20,3 km/h (4 Bft) W-SW 242 0 min 0,000 mm 0,0 UV-I 29 W/m 8,6 C 3,6 C 30,6 km/h (5 Bft) 97,87 %
01.10.2018 18:00 10,3 C 13,3 C 10,0 C 89 % 1014,0 hPa 0,0 l/m 17,2 km/h (3 Bft) W-SW 240 0 min 0,000 mm 0,0 UV-I 27 W/m 8,6 C 4,6 C 27,4 km/h (4 Bft) 97,87 %
01.10.2018 18:02 10,3 C 13,3 C 10,0 C 89 % 1014,0 hPa 0,0 l/m 20,3 km/h (4 Bft) SW 219 0 min 0,050 mm 0,0 UV-I 26 W/m 8,6 C 3,6 C 30,6 km/h (5 Bft) 97,92 %
01.10.2018 18:04 10,3 C 13,3 C 10,0 C 89 % 1014,0 hPa 0,0 l/m 18,0 km/h (3 Bft) SW 228 0 min 0,000 mm 0,0 UV-I 27 W/m 8,6 C 4,3 C 29,0 km/h (5 Bft) 100,00 %
01.10.2018 18:06 10,3 C 13,3 C 10,0 C 89 % 1014,0 hPa 0,0 l/m 23,2 km/h (4 Bft) W-SW 243 0 min 0,000 mm 0,0 UV-I 28 W/m 8,6 C 2,7 C 35,4 km/h (5 Bft) 95,74 %
01.10.2018 18:08 10,3 C 13,3 C 10,0 C 89 % 1014,1 hPa 0,0 l/m 19,3 km/h (3 Bft) SW 232 0 min 0,000 mm 0,0 UV-I 32 W/m 8,6 C 3,9 C 27,4 km/h (4 Bft) 98,00 %
01.10.2018 18:10 10,2 C 13,3 C 10,0 C 89 % 1014,0 hPa 0,0 l/m 19,5 km/h (3 Bft) W-SW 251 0 min 0,000 mm 0,0 UV-I 32 W/m 8,5 C 3,7 C 27,4 km/h (4 Bft) 97,87 %
01.10.2018 18:12 10,2 C 13,3 C 10,0 C 89 % 1014,1 hPa 0,0 l/m 15,9 km/h (3 Bft) SW 235 0 min 0,000 mm 0,0 UV-I 28 W/m 8,5 C 5,0 C 25,7 km/h (4 Bft) 100,00 %
01.10.2018 18:14 10,2 C 13,3 C 10,0 C 89 % 1014,0 hPa 0,0 l/m 18,1 km/h (3 Bft) W-SW 239 0 min 0,000 mm 0,0 UV-I 23 W/m 8,5 C 4,2 C 29,0 km/h (5 Bft) 100,00 %
01.10.2018 18:16 10,2 C 13,3 C 10,0 C 89 % 1014,1 hPa 0,0 l/m 17,9 km/h (3 Bft) W-SW 240 0 min 0,000 mm 0,0 UV-I 19 W/m 8,5 C 4,3 C 27,4 km/h (4 Bft) 97,87 %
01.10.2018 18:18 10,2 C 13,3 C 10,0 C 89 % 1014,1 hPa 0,0 l/m 21,8 km/h (4 Bft) SW 235 0 min 0,000 mm 0,0 UV-I 16 W/m 8,5 C 3,0 C 35,4 km/h (5 Bft) 100,00 %
01.10.2018 18:20 10,2 C 13,3 C 10,0 C 89 % 1014,1 hPa 0,0 l/m 22,8 km/h (4 Bft) SW 219 0 min 0,000 mm 0,0 UV-I 14 W/m 8,5 C 2,7 C 32,2 km/h (5 Bft) 95,74 %
01.10.2018 18:22 10,2 C 13,3 C 10,0 C 88 % 1014,1 hPa 0,0 l/m 19,8 km/h (3 Bft) W-SW 251 0 min 0,000 mm 0,0 UV-I 12 W/m 8,3 C 3,6 C 30,6 km/h (5 Bft) 100,00 %
01.10.2018 18:24 10,2 C 13,3 C 9,4 C 88 % 1014,1 hPa 0,0 l/m 17,5 km/h (3 Bft) W-SW 246 0 min 0,000 mm 0,0 UV-I 11 W/m 8,3 C 4,4 C 27,4 km/h (4 Bft) 100,00 %
01.10.2018 18:26 10,2 C 13,3 C 9,4 C 88 % 1014,1 hPa 0,0 l/m 20,5 km/h (4 Bft) SW 228 0 min 0,000 mm 0,0 UV-I 10 W/m 8,3 C 3,4 C 30,6 km/h (5 Bft) 100,00 %
01.10.2018 18:28 10,2 C 13,3 C 9,4 C 88 % 1014,2 hPa 0,0 l/m 18,4 km/h (3 Bft) SW 236 0 min 0,000 mm 0,0 UV-I 9 W/m 8,3 C 4,1 C 30,6 km/h (5 Bft) 100,00 %
01.10.2018 18:30 10,2 C 13,3 C 9,4 C 88 % 1014,3 hPa 0,0 l/m 21,8 km/h (4 Bft) W 265 0 min 0,000 mm 0,0 UV-I 7 W/m 8,3 C 3,0 C 29,0 km/h (5 Bft) 100,00 %
01.10.2018 18:32 10,2 C 13,3 C 9,4 C 88 % 1014,2 hPa 0,0 l/m 24,1 km/h (4 Bft) W-SW 237 0 min 0,000 mm 0,0 UV-I 7 W/m 8,3 C 2,3 C 33,8 km/h (5 Bft) 100,00 %
01.10.2018 18:34 10,2 C 13,3 C 9,4 C 88 % 1014,3 hPa 0,0 l/m 22,2 km/h (4 Bft) W-SW 242 0 min 0,000 mm 0,0 UV-I 6 W/m 8,3 C 2,9 C 32,2 km/h (5 Bft) 100,00 %
01.10.2018 18:36 10,2 C 13,3 C 9,4 C 88 % 1014,4 hPa 0,0 l/m 21,4 km/h (4 Bft) W-SW 242 0 min 0,000 mm 0,0 UV-I 5 W/m 8,3 C 3,1 C 32,2 km/h (5 Bft) 100,00 %
01.10.2018 18:39 10,2 C 13,3 C 9,4 C 87 % 1014,4 hPa 0,0 l/m 22,5 km/h (4 Bft) W 271 0 min 0,000 mm 0,0 UV-I 5 W/m 8,1 C 2,8 C 33,8 km/h (5 Bft) 98,59 %
01.10.2018 18:40 10,2 C 13,3 C 9,4 C 87 % 1014,4 hPa 0,0 l/m 20,8 km/h (4 Bft) SW 224 0 min 0,000 mm 0,0 UV-I 5 W/m 8,1 C 3,3 C 35,4 km/h (5 Bft) 96,15 %
01.10.2018 18:42 10,1 C 13,3 C 9,4 C 87 % 1014,4 hPa 0,0 l/m 22,5 km/h (4 Bft) SW 230 0 min 0,000 mm 0,0 UV-I 5 W/m 8,0 C 2,7 C 29,0 km/h (5 Bft) 98,00 %
01.10.2018 18:44 10,1 C 13,3 C 9,4 C 87 % 1014,4 hPa 0,0 l/m 19,6 km/h (3 Bft) W-SW 252 0 min 0,000 mm 0,0 UV-I 5 W/m 8,0 C 3,5 C 27,4 km/h (4 Bft) 100,00 %
01.10.2018 18:46 10,1 C 13,3 C 9,4 C 87 % 1014,4 hPa 0,0 l/m 22,0 km/h (4 Bft) W-SW 255 0 min 0,000 mm 0,0 UV-I 5 W/m 8,0 C 2,8 C 37,0 km/h (5 Bft) 97,87 %
01.10.2018 18:48 10,1 C 13,3 C 9,4 C 87 % 1014,4 hPa 0,0 l/m 22,9 km/h (4 Bft) W-SW 258 0 min 0,000 mm 0,0 UV-I 0 W/m 8,0 C 2,5 C 43,5 km/h (6 Bft) 93,62 %
01.10.2018 18:50 10,1 C 13,3 C 9,4 C 87 % 1014,5 hPa 0,0 l/m 20,8 km/h (4 Bft) SW 225 0 min 0,000 mm 0,0 UV-I 0 W/m 8,0 C 3,2 C 32,2 km/h (5 Bft) 95,74 %
01.10.2018 18:52 10,1 C 13,3 C 9,4 C 87 % 1014,6 hPa 0,0 l/m 25,7 km/h (4 Bft) W-SW 246 0 min 0,000 mm 0,0 UV-I 0 W/m 8,0 C 1,8 C 37,0 km/h (5 Bft) 100,00 %
01.10.2018 18:54 10,0 C 13,3 C 9,4 C 87 % 1014,6 hPa 0,0 l/m 22,9 km/h (4 Bft) W-SW 251 0 min 0,000 mm 0,0 UV-I 0 W/m 7,9 C 2,4 C 32,2 km/h (5 Bft) 95,74 %
01.10.2018 18:56 10,0 C 13,3 C 9,4 C 86 % 1014,6 hPa 0,0 l/m 24,0 km/h (4 Bft) SW 215 0 min 0,000 mm 0,0 UV-I 0 W/m 7,8 C 2,1 C 33,8 km/h (5 Bft) 100,00 %
01.10.2018 18:58 10,0 C 13,3 C 9,4 C 86 % 1014,6 hPa 0,0 l/m 24,7 km/h (4 Bft) W-SW 245 0 min 0,000 mm 0,0 UV-I 0 W/m 7,8 C 1,9 C 32,2 km/h (5 Bft) 100,00 %
01.10.2018 19:00 10,0 C 13,3 C 9,4 C 86 % 1014,7 hPa 0,0 l/m 27,2 km/h (4 Bft) W-SW 258 0 min 0,026 mm 0,0 UV-I 0 W/m 7,8 C 1,3 C 41,8 km/h (6 Bft) 97,37 %
01.10.2018 19:02 10,0 C 13,3 C 9,4 C 86 % 1014,6 hPa 0,0 l/m 21,3 km/h (4 Bft) W-SW 249 0 min 0,000 mm 0,0 UV-I 0 W/m 7,8 C 2,9 C 32,2 km/h (5 Bft) 95,74 %
01.10.2018 19:04 10,0 C 13,3 C 9,4 C 86 % 1014,6 hPa 0,0 l/m 23,2 km/h (4 Bft) W-SW 246 0 min 0,000 mm 0,0 UV-I 0 W/m 7,8 C 2,3 C 41,8 km/h (6 Bft) 95,74 %
01.10.2018 19:06 10,0 C 13,3 C 9,4 C 86 % 1014,6 hPa 0,0 l/m 29,7 km/h (5 Bft) SW 221 0 min 0,000 mm 0,0 UV-I 0 W/m 7,8 C 0,7 C 41,8 km/h (6 Bft) 96,00 %
01.10.2018 19:08 9,9 C 13,3 C 9,4 C 86 % 1014,7 hPa 0,0 l/m 24,7 km/h (4 Bft) W-SW 244 0 min 0,000 mm 0,0 UV-I 0 W/m 7,7 C 1,8 C 33,8 km/h (5 Bft) 95,74 %
01.10.2018 19:10 9,9 C 13,3 C 9,4 C 86 % 1014,7 hPa 0,0 l/m 21,9 km/h (4 Bft) W 260 0 min 0,000 mm 0,0 UV-I 0 W/m 7,7 C 2,6 C 32,2 km/h (5 Bft) 93,62 %
01.10.2018 19:12 9,9 C 13,3 C 9,4 C 86 % 1014,7 hPa 0,0 l/m 26,2 km/h (4 Bft) W 271 0 min 0,000 mm 0,0 UV-I 0 W/m 7,7 C 1,4 C 41,8 km/h (6 Bft) 95,74 %
01.10.2018 19:14 9,9 C 13,3 C 9,4 C 86 % 1014,9 hPa 0,0 l/m 24,2 km/h (4 Bft) W-SW 243 0 min 0,000 mm 0,0 UV-I 0 W/m 7,7 C 1,9 C 35,4 km/h (5 Bft) 91,49 %
01.10.2018 19:16 9,9 C 13,3 C 9,4 C 86 % 1014,8 hPa 0,0 l/m 21,5 km/h (4 Bft) W-SW 240 0 min 0,000 mm 0,0 UV-I 0 W/m 7,7 C 2,7 C 27,4 km/h (4 Bft) 97,87 %
01.10.2018 19:18 9,9 C 13,3 C 9,4 C 86 % 1014,9 hPa 0,0 l/m 19,7 km/h (3 Bft) W-NW 302 0 min 0,000 mm 0,0 UV-I 0 W/m 7,7 C 3,3 C 29,0 km/h (5 Bft) 95,83 %
01.10.2018 19:20 9,9 C 13,3 C 9,4 C 86 % 1014,9 hPa 0,0 l/m 21,8 km/h (4 Bft) W-SW 249 0 min 0,000 mm 0,0 UV-I 0 W/m 7,7 C 2,6 C 30,6 km/h (5 Bft) 95,74 %
01.10.2018 19:22 9,8 C 13,3 C 9,4 C 86 % 1014,9 hPa 0,0 l/m 22,1 km/h (4 Bft) W-SW 243 0 min 0,000 mm 0,0 UV-I 0 W/m 7,6 C 2,4 C 35,4 km/h (5 Bft) 95,74 %
01.10.2018 19:24 9,8 C 13,3 C 9,4 C 86 % 1014,9 hPa 0,0 l/m 19,2 km/h (3 Bft) SW 225 0 min 0,000 mm 0,0 UV-I 0 W/m 7,6 C 3,3 C 38,6 km/h (5 Bft) 93,62 %
01.10.2018 19:26 9,8 C 13,3 C 9,4 C 87 % 1015,0 hPa 0,0 l/m 21,4 km/h (4 Bft) SW 228 0 min 0,000 mm 0,0 UV-I 0 W/m 7,7 C 2,6 C 33,8 km/h (5 Bft) 95,74 %
01.10.2018 19:28 9,8 C 13,3 C 9,4 C 87 % 1015,0 hPa 0,0 l/m 21,2 km/h (4 Bft) SW 236 0 min 0,000 mm 0,0 UV-I 0 W/m 7,7 C 2,6 C 41,8 km/h (6 Bft) 95,74 %
01.10.2018 19:30 9,8 C 13,3 C 9,4 C 87 % 1015,0 hPa 0,0 l/m 21,6 km/h (4 Bft) W 262 0 min 0,000 mm 0,0 UV-I 0 W/m 7,7 C 2,5 C 33,8 km/h (5 Bft) 95,74 %
01.10.2018 19:32 9,8 C 13,3 C 9,4 C 86 % 1015,0 hPa 0,0 l/m 21,9 km/h (4 Bft) W-SW 252 0 min 0,000 mm 0,0 UV-I 0 W/m 7,6 C 2,4 C 35,4 km/h (5 Bft) 96,00 %
01.10.2018 19:34 9,8 C 13,3 C 9,4 C 87 % 1015,0 hPa 0,0 l/m 25,3 km/h (4 Bft) SW 219 0 min 0,000 mm 0,0 UV-I 0 W/m 7,7 C 1,5 C 35,4 km/h (5 Bft) 97,87 %
01.10.2018 19:36 9,8 C 13,3 C 9,4 C 86 % 1015,1 hPa 0,0 l/m 26,2 km/h (4 Bft) W-SW 246 0 min 0,000 mm 0,0 UV-I 0 W/m 7,6 C 1,3 C 41,8 km/h (6 Bft) 93,62 %
01.10.2018 19:38 9,8 C 13,3 C 9,4 C 86 % 1015,0 hPa 0,0 l/m 23,4 km/h (4 Bft) W-SW 248 0 min 0,000 mm 0,0 UV-I 0 W/m 7,6 C 2,0 C 35,4 km/h (5 Bft) 97,14 %
01.10.2018 19:40 9,8 C 13,3 C 9,4 C 86 % 1015,0 hPa 0,0 l/m 22,9 km/h (4 Bft) W 263 0 min 0,000 mm 0,0 UV-I 0 W/m 7,6 C 2,1 C 37,0 km/h (5 Bft) 100,00 %
01.10.2018 19:42 9,8 C 13,3 C 9,4 C 86 % 1015,0 hPa 0,0 l/m 26,3 km/h (4 Bft) W-SW 242 0 min 0,000 mm 0,0 UV-I 0 W/m 7,6 C 1,2 C 49,9 km/h (6 Bft) 100,00 %
01.10.2018 19:44 9,8 C 13,3 C 9,4 C 86 % 1015,2 hPa 0,0 l/m 23,7 km/h (4 Bft) W-SW 247 0 min 0,000 mm 0,0 UV-I 0 W/m 7,6 C 1,9 C 35,4 km/h (5 Bft) 97,87 %
01.10.2018 19:46 9,8 C 13,3 C 9,4 C 86 % 1015,2 hPa 0,0 l/m 25,7 km/h (4 Bft) W-NW 283 0 min 0,000 mm 0,0 UV-I 0 W/m 7,6 C 1,4 C 40,2 km/h (6 Bft) 100,00 %
01.10.2018 19:49 9,8 C 13,3 C 9,4 C 86 % 1015,2 hPa 0,0 l/m 18,7 km/h (3 Bft) SW 234 0 min 0,000 mm 0,0 UV-I 0 W/m 7,6 C 3,5 C 27,4 km/h (4 Bft) 98,59 %
01.10.2018 19:50 9,8 C 13,3 C 9,4 C 86 % 1015,2 hPa 0,0 l/m 19,3 km/h (3 Bft) W-SW 253 0 min 0,000 mm 0,0 UV-I 0 W/m 7,6 C 3,3 C 29,0 km/h (5 Bft) 100,00 %
01.10.2018 19:52 9,8 C 13,3 C 9,4 C 87 % 1015,2 hPa 0,0 l/m 24,4 km/h (4 Bft) SW 220 0 min 0,000 mm 0,0 UV-I 0 W/m 7,7 C 1,7 C 37,0 km/h (5 Bft) 100,00 %
01.10.2018 19:54 9,8 C 13,3 C 9,4 C 86 % 1015,3 hPa 0,0 l/m 21,0 km/h (4 Bft) SW 229 0 min 0,000 mm 0,0 UV-I 0 W/m 7,6 C 2,7 C 30,6 km/h (5 Bft) 100,00 %
01.10.2018 19:56 9,8 C 13,3 C 9,4 C 87 % 1015,3 hPa 0,0 l/m 24,9 km/h (4 Bft) SW 221 0 min 0,000 mm 0,0 UV-I 0 W/m 7,7 C 1,6 C 35,4 km/h (5 Bft) 100,00 %
01.10.2018 19:58 9,8 C 13,3 C 9,4 C 87 % 1015,3 hPa 0,0 l/m 24,1 km/h (4 Bft) S 181 0 min 0,000 mm 0,0 UV-I 0 W/m 7,7 C 1,8 C 35,4 km/h (5 Bft) 97,92 %
01.10.2018 20:00 9,8 C 13,3 C 9,4 C 87 % 1015,3 hPa 0,0 l/m 21,1 km/h (4 Bft) SW 227 0 min 0,000 mm 0,0 UV-I 0 W/m 7,7 C 2,7 C 32,2 km/h (5 Bft) 100,00 %
01.10.2018 20:02 9,7 C 13,3 C 9,4 C 86 % 1015,4 hPa 0,0 l/m 18,7 km/h (3 Bft) SW 233 0 min 0,025 mm 0,0 UV-I 0 W/m 7,5 C 3,3 C 29,0 km/h (5 Bft) 100,00 %
01.10.2018 20:04 9,7 C 13,3 C 9,4 C 87 % 1015,4 hPa 0,0 l/m 17,6 km/h (3 Bft) W-NW 282 0 min 0,000 mm 0,0 UV-I 0 W/m 7,6 C 3,7 C 27,4 km/h (4 Bft) 100,00 %
01.10.2018 20:06 9,7 C 13,3 C 9,4 C 87 % 1015,4 hPa 0,0 l/m 18,2 km/h (3 Bft) W-SW 254 0 min 0,000 mm 0,0 UV-I 0 W/m 7,6 C 3,5 C 30,6 km/h (5 Bft) 100,00 %
01.10.2018 20:08 9,7 C 13,3 C 9,4 C 87 % 1015,6 hPa 0,0 l/m 18,2 km/h (3 Bft) W 263 0 min 0,000 mm 0,0 UV-I 0 W/m 7,6 C 3,5 C 27,4 km/h (4 Bft) 100,00 %
01.10.2018 20:10 9,7 C 13,3 C 9,4 C 87 % 1015,6 hPa 0,0 l/m 17,1 km/h (3 Bft) W-SW 238 0 min 0,000 mm 0,0 UV-I 0 W/m 7,6 C 3,9 C 25,7 km/h (4 Bft) 100,00 %
01.10.2018 20:12 9,7 C 13,3 C 9,4 C 87 % 1015,6 hPa 0,0 l/m 19,8 km/h (3 Bft) W 267 0 min 0,000 mm 0,0 UV-I 0 W/m 7,6 C 3,0 C 25,7 km/h (4 Bft) 100,00 %
01.10.2018 20:14 9,7 C 13,3 C 9,4 C 87 % 1015,7 hPa 0,0 l/m 17,0 km/h (3 Bft) W-SW 239 0 min 0,000 mm 0,0 UV-I 0 W/m 7,6 C 4,0 C 27,4 km/h (4 Bft) 100,00 %
01.10.2018 20:16 9,7 C 13,3 C 9,4 C 87 % 1015,7 hPa 0,0 l/m 17,2 km/h (3 Bft) W-SW 240 0 min 0,000 mm 0,0 UV-I 0 W/m 7,6 C 3,9 C 29,0 km/h (5 Bft) 100,00 %
01.10.2018 20:18 9,7 C 13,3 C 9,4 C 87 % 1015,7 hPa 0,0 l/m 15,6 km/h (3 Bft) SW 232 0 min 0,000 mm 0,0 UV-I 0 W/m 7,6 C 4,5 C 27,4 km/h (4 Bft) 97,87 %
01.10.2018 20:20 9,7 C 13,3 C 9,4 C 87 % 1015,7 hPa 0,0 l/m 15,6 km/h (3 Bft) W 261 0 min 0,000 mm 0,0 UV-I 0 W/m 7,6 C 4,5 C 22,5 km/h (4 Bft) 97,87 %
01.10.2018 20:22 9,6 C 13,3 C 8,9 C 87 % 1015,7 hPa 0,0 l/m 12,4 km/h (3 Bft) SW 229 0 min 0,000 mm 0,0 UV-I 0 W/m 7,5 C 5,9 C 17,7 km/h (3 Bft) 100,00 %
01.10.2018 20:24 9,6 C 13,3 C 8,9 C 88 % 1015,8 hPa 0,0 l/m 13,0 km/h (3 Bft) W-SW 238 0 min 0,000 mm 0,0 UV-I 0 W/m 7,7 C 5,6 C 19,3 km/h (3 Bft) 100,00 %
01.10.2018 20:26 9,6 C 12,8 C 8,9 C 88 % 1015,8 hPa 0,0 l/m 15,0 km/h (3 Bft) SW 221 0 min 0,000 mm 0,0 UV-I 0 W/m 7,7 C 4,6 C 22,5 km/h (4 Bft) 97,87 %
01.10.2018 20:28 9,6 C 12,8 C 8,9 C 88 % 1015,9 hPa 0,0 l/m 15,0 km/h (3 Bft) W 261 0 min 0,000 mm 0,0 UV-I 0 W/m 7,7 C 4,6 C 19,3 km/h (3 Bft) 100,00 %
01.10.2018 20:30 9,6 C 13,3 C 8,9 C 88 % 1015,9 hPa 0,0 l/m 15,6 km/h (3 Bft) SW 234 0 min 0,000 mm 0,0 UV-I 0 W/m 7,7 C 4,4 C 22,5 km/h (4 Bft) 97,87 %
01.10.2018 20:32 9,6 C 12,8 C 8,9 C 88 % 1016,0 hPa 0,0 l/m 14,3 km/h (3 Bft) SW 220 0 min 0,000 mm 0,0 UV-I 0 W/m 7,7 C 5,0 C 20,9 km/h (4 Bft) 95,83 %
01.10.2018 20:34 9,6 C 12,8 C 8,9 C 88 % 1016,1 hPa 0,0 l/m 13,9 km/h (3 Bft) W 259 0 min 0,000 mm 0,0 UV-I 0 W/m 7,7 C 5,1 C 22,5 km/h (4 Bft) 97,87 %
01.10.2018 20:36 9,6 C 12,8 C 8,9 C 88 % 1016,1 hPa 0,0 l/m 13,0 km/h (3 Bft) W 271 0 min 0,000 mm 0,0 UV-I 0 W/m 7,7 C 5,6 C 17,7 km/h (3 Bft) 95,74 %
01.10.2018 20:38 9,6 C 12,8 C 8,9 C 88 % 1016,2 hPa 0,0 l/m 14,6 km/h (3 Bft) W-SW 241 0 min 0,000 mm 0,0 UV-I 0 W/m 7,7 C 4,8 C 20,9 km/h (4 Bft) 91,49 %
01.10.2018 20:40 9,6 C 12,8 C 8,9 C 88 % 1016,2 hPa 0,0 l/m 14,3 km/h (3 Bft) W-SW 246 0 min 0,000 mm 0,0 UV-I 0 W/m 7,7 C 5,0 C 19,3 km/h (3 Bft) 97,87 %
01.10.2018 20:42 9,6 C 12,8 C 8,9 C 88 % 1016,2 hPa 0,0 l/m 15,4 km/h (3 Bft) W 263 0 min 0,000 mm 0,0 UV-I 0 W/m 7,7 C 4,5 C 19,3 km/h (3 Bft) 98,00 %
01.10.2018 20:44 9,6 C 12,8 C 8,9 C 88 % 1016,2 hPa 0,0 l/m 13,7 km/h (3 Bft) W-SW 252 0 min 0,000 mm 0,0 UV-I 0 W/m 7,7 C 5,2 C 19,3 km/h (3 Bft) 97,87 %
01.10.2018 20:46 9,6 C 12,8 C 8,9 C 88 % 1016,2 hPa 0,0 l/m 11,2 km/h (2 Bft) SW 236 0 min 0,000 mm 0,0 UV-I 0 W/m 7,7 C 6,5 C 16,1 km/h (3 Bft) 97,87 %
01.10.2018 20:48 9,6 C 12,8 C 8,9 C 87 % 1016,3 hPa 0,0 l/m 14,6 km/h (3 Bft) W-SW 253 0 min 0,000 mm 0,0 UV-I 0 W/m 7,5 C 4,8 C 22,5 km/h (4 Bft) 97,87 %
01.10.2018 20:50 9,6 C 12,8 C 8,9 C 87 % 1016,4 hPa 0,0 l/m 16,1 km/h (3 Bft) W 263 0 min 0,000 mm 0,0 UV-I 0 W/m 7,5 C 4,2 C 25,7 km/h (4 Bft) 93,62 %
01.10.2018 20:52 9,7 C 12,8 C 9,4 C 87 % 1016,4 hPa 0,0 l/m 13,5 km/h (3 Bft) W-SW 244 0 min 0,000 mm 0,0 UV-I 0 W/m 7,6 C 5,4 C 20,9 km/h (4 Bft) 95,74 %
01.10.2018 20:54 9,7 C 12,8 C 8,9 C 87 % 1016,5 hPa 0,0 l/m 11,4 km/h (2 Bft) W-SW 254 0 min 0,000 mm 0,0 UV-I 0 W/m 7,6 C 6,5 C 16,1 km/h (3 Bft) 97,14 %
01.10.2018 20:56 9,6 C 12,8 C 8,9 C 87 % 1016,5 hPa 0,0 l/m 11,5 km/h (2 Bft) W-SW 239 0 min 0,000 mm 0,0 UV-I 0 W/m 7,5 C 6,3 C 20,9 km/h (4 Bft) 98,11 %
01.10.2018 20:58 9,6 C 12,8 C 8,9 C 88 % 1016,5 hPa 0,0 l/m 10,0 km/h (2 Bft) W-SW 246 0 min 0,000 mm 0,0 UV-I 0 W/m 7,7 C 7,2 C 14,5 km/h (3 Bft) 95,74 %
01.10.2018 21:00 9,6 C 12,8 C 8,9 C 87 % 1016,6 hPa 0,0 l/m 8,6 km/h (2 Bft) W 263 0 min 0,000 mm 0,0 UV-I 0 W/m 7,5 C 8,0 C 12,9 km/h (3 Bft) 95,74 %
01.10.2018 21:02 9,6 C 12,8 C 8,9 C 88 % 1016,6 hPa 0,0 l/m 12,5 km/h (3 Bft) W-SW 238 0 min 0,026 mm 0,0 UV-I 0 W/m 7,7 C 5,8 C 17,7 km/h (3 Bft) 96,00 %
01.10.2018 21:04 9,6 C 12,8 C 8,9 C 87 % 1016,5 hPa 0,0 l/m 15,0 km/h (3 Bft) SW 228 0 min 0,000 mm 0,0 UV-I 0 W/m 7,5 C 4,6 C 20,9 km/h (4 Bft) 97,87 %
01.10.2018 21:06 9,6 C 12,8 C 8,9 C 87 % 1016,6 hPa 0,0 l/m 12,4 km/h (3 Bft) W-SW 253 0 min 0,000 mm 0,0 UV-I 0 W/m 7,5 C 5,9 C 19,3 km/h (3 Bft) 97,87 %
01.10.2018 21:08 9,7 C 12,8 C 8,9 C 86 % 1016,7 hPa 0,0 l/m 11,2 km/h (2 Bft) W 259 0 min 0,000 mm 0,0 UV-I 0 W/m 7,5 C 6,6 C 19,3 km/h (3 Bft) 95,74 %
01.10.2018 21:10 9,7 C 12,8 C 8,9 C 86 % 1016,7 hPa 0,0 l/m 13,9 km/h (3 Bft) W-SW 255 0 min 0,000 mm 0,0 UV-I 0 W/m 7,5 C 5,3 C 19,3 km/h (3 Bft) 97,44 %
01.10.2018 21:12 9,8 C 12,8 C 8,9 C 86 % 1016,7 hPa 0,0 l/m 13,4 km/h (3 Bft) W 269 0 min 0,000 mm 0,0 UV-I 0 W/m 7,6 C 5,6 C 19,3 km/h (3 Bft) 97,87 %
01.10.2018 21:14 9,8 C 12,8 C 9,4 C 85 % 1016,8 hPa 0,0 l/m 14,0 km/h (3 Bft) W-SW 246 0 min 0,000 mm 0,0 UV-I 0 W/m 7,4 C 5,3 C 17,7 km/h (3 Bft) 96,00 %
01.10.2018 21:16 9,8 C 12,8 C 9,4 C 85 % 1016,8 hPa 0,0 l/m 13,8 km/h (3 Bft) W 269 0 min 0,000 mm 0,0 UV-I 0 W/m 7,4 C 5,4 C 25,7 km/h (4 Bft) 91,49 %
01.10.2018 21:18 9,9 C 12,8 C 9,4 C 84 % 1016,8 hPa 0,0 l/m 13,6 km/h (3 Bft) W 261 0 min 0,000 mm 0,0 UV-I 0 W/m 7,3 C 5,6 C 25,7 km/h (4 Bft) 96,00 %
01.10.2018 21:20 9,9 C 12,8 C 9,4 C 83 % 1016,7 hPa 0,0 l/m 15,7 km/h (3 Bft) W 263 0 min 0,000 mm 0,0 UV-I 0 W/m 7,2 C 4,7 C 24,1 km/h (4 Bft) 91,49 %
01.10.2018 21:22 9,9 C 12,8 C 9,4 C 83 % 1016,8 hPa 0,0 l/m 16,1 km/h (3 Bft) W 265 0 min 0,000 mm 0,0 UV-I 0 W/m 7,2 C 4,6 C 27,4 km/h (4 Bft) 95,74 %
01.10.2018 21:24 9,9 C 12,8 C 9,4 C 82 % 1016,8 hPa 0,0 l/m 13,8 km/h (3 Bft) W 271 0 min 0,000 mm 0,0 UV-I 0 W/m 7,0 C 5,5 C 20,9 km/h (4 Bft) 92,00 %
01.10.2018 21:26 9,9 C 12,8 C 9,4 C 81 % 1016,8 hPa 0,0 l/m 16,7 km/h (3 Bft) W-SW 250 0 min 0,000 mm 0,0 UV-I 0 W/m 6,8 C 4,3 C 24,1 km/h (4 Bft) 95,74 %
01.10.2018 21:28 10,0 C 12,8 C 9,4 C 80 % 1016,9 hPa 0,0 l/m 20,5 km/h (4 Bft) W 278 0 min 0,000 mm 0,0 UV-I 0 W/m 6,7 C 3,1 C 35,4 km/h (5 Bft) 95,74 %
01.10.2018 21:30 10,1 C 12,8 C 9,4 C 79 % 1016,9 hPa 0,0 l/m 14,1 km/h (3 Bft) W 262 0 min 0,000 mm 0,0 UV-I 0 W/m 6,6 C 5,6 C 25,7 km/h (4 Bft) 94,74 %
01.10.2018 21:32 10,0 C 12,8 C 9,4 C 78 % 1016,9 hPa 0,0 l/m 15,9 km/h (3 Bft) W 259 0 min 0,000 mm 0,0 UV-I 0 W/m 6,3 C 4,8 C 25,7 km/h (4 Bft) 96,00 %
01.10.2018 21:34 10,0 C 12,8 C 9,4 C 78 % 1016,9 hPa 0,0 l/m 12,9 km/h (3 Bft) W 274 0 min 0,000 mm 0,0 UV-I 0 W/m 6,3 C 6,1 C 19,3 km/h (3 Bft) 91,49 %
01.10.2018 21:36 9,9 C 12,8 C 8,9 C 77 % 1017,0 hPa 0,0 l/m 13,2 km/h (3 Bft) W 279 0 min 0,000 mm 0,0 UV-I 0 W/m 6,1 C 5,8 C 17,7 km/h (3 Bft) 93,62 %
01.10.2018 21:38 9,9 C 12,8 C 8,9 C 77 % 1017,0 hPa 0,0 l/m 14,4 km/h (3 Bft) W-SW 254 0 min 0,000 mm 0,0 UV-I 0 W/m 6,1 C 5,3 C 19,3 km/h (3 Bft) 93,62 %
01.10.2018 21:40 9,9 C 12,8 C 8,9 C 77 % 1017,0 hPa 0,0 l/m 13,0 km/h (3 Bft) W 267 0 min 0,000 mm 0,0 UV-I 0 W/m 6,1 C 5,9 C 20,9 km/h (4 Bft) 94,00 %
01.10.2018 21:42 9,8 C 12,8 C 8,9 C 78 % 1017,1 hPa 0,0 l/m 14,5 km/h (3 Bft) NW 306 0 min 0,000 mm 0,0 UV-I 0 W/m 6,1 C 5,1 C 20,9 km/h (4 Bft) 93,62 %
01.10.2018 21:44 9,8 C 12,8 C 8,9 C 78 % 1017,1 hPa 0,0 l/m 13,3 km/h (3 Bft) W 267 0 min 0,000 mm 0,0 UV-I 0 W/m 6,1 C 5,6 C 19,3 km/h (3 Bft) 93,62 %
01.10.2018 21:46 9,8 C 12,8 C 8,9 C 77 % 1017,1 hPa 0,0 l/m 14,0 km/h (3 Bft) W 281 0 min 0,000 mm 0,0 UV-I 0 W/m 6,0 C 5,3 C 22,5 km/h (4 Bft) 93,62 %
01.10.2018 21:48 9,8 C 12,8 C 8,9 C 77 % 1017,1 hPa 0,0 l/m 16,8 km/h (3 Bft) W-SW 242 0 min 0,000 mm 0,0 UV-I 0 W/m 6,0 C 4,2 C 29,0 km/h (5 Bft) 93,62 %
01.10.2018 21:50 9,8 C 12,8 C 8,9 C 77 % 1017,1 hPa 0,0 l/m 12,8 km/h (3 Bft) W 274 0 min 0,000 mm 0,0 UV-I 0 W/m 6,0 C 5,9 C 17,7 km/h (3 Bft) 95,74 %
01.10.2018 21:52 9,7 C 12,8 C 8,9 C 77 % 1017,1 hPa 0,0 l/m 12,3 km/h (3 Bft) W-SW 252 0 min 0,000 mm 0,0 UV-I 0 W/m 5,9 C 6,0 C 17,7 km/h (3 Bft) 100,00 %
01.10.2018 21:54 9,7 C 12,8 C 8,9 C 77 % 1017,2 hPa 0,0 l/m 15,1 km/h (3 Bft) W 265 0 min 0,000 mm 0,0 UV-I 0 W/m 5,9 C 4,7 C 27,4 km/h (4 Bft) 91,67 %
01.10.2018 21:56 9,7 C 12,8 C 8,9 C 77 % 1017,2 hPa 0,0 l/m 13,7 km/h (3 Bft) W 275 0 min 0,000 mm 0,0 UV-I 0 W/m 5,9 C 5,3 C 22,5 km/h (4 Bft) 98,00 %
01.10.2018 21:58 9,6 C 12,8 C 8,9 C 77 % 1017,1 hPa 0,0 l/m 16,6 km/h (3 Bft) W-SW 243 0 min 0,000 mm 0,0 UV-I 0 W/m 5,8 C 4,0 C 24,1 km/h (4 Bft) 95,74 %
01.10.2018 22:00 9,6 C 12,8 C 8,9 C 77 % 1017,1 hPa 0,0 l/m 14,1 km/h (3 Bft) W-NW 287 0 min 0,000 mm 0,0 UV-I 0 W/m 5,8 C 5,0 C 27,4 km/h (4 Bft) 95,74 %
01.10.2018 22:02 9,6 C 12,8 C 8,9 C 76 % 1017,2 hPa 0,0 l/m 16,2 km/h (3 Bft) W 262 0 min 0,025 mm 0,0 UV-I 0 W/m 5,6 C 4,2 C 27,4 km/h (4 Bft) 93,62 %
01.10.2018 22:04 9,6 C 12,8 C 8,9 C 76 % 1017,2 hPa 0,0 l/m 12,3 km/h (3 Bft) W-NW 302 0 min 0,000 mm 0,0 UV-I 0 W/m 5,6 C 5,9 C 17,7 km/h (3 Bft) 95,74 %
01.10.2018 22:06 9,6 C 12,8 C 8,9 C 76 % 1017,2 hPa 0,0 l/m 11,8 km/h (2 Bft) W 278 0 min 0,000 mm 0,0 UV-I 0 W/m 5,6 C 6,2 C 17,7 km/h (3 Bft) 97,87 %
01.10.2018 22:08 9,6 C 12,8 C 8,9 C 76 % 1017,3 hPa 0,0 l/m 11,3 km/h (2 Bft) W 264 0 min 0,000 mm 0,0 UV-I 0 W/m 5,6 C 6,4 C 16,1 km/h (3 Bft) 98,00 %
01.10.2018 22:10 9,6 C 12,8 C 8,9 C 77 % 1017,3 hPa 0,0 l/m 11,0 km/h (2 Bft) W 273 0 min 0,000 mm 0,0 UV-I 0 W/m 5,8 C 6,6 C 19,3 km/h (3 Bft) 96,00 %
01.10.2018 22:12 9,5 C 12,8 C 8,9 C 77 % 1017,3 hPa 0,0 l/m 14,4 km/h (3 Bft) W 269 0 min 0,000 mm 0,0 UV-I 0 W/m 5,7 C 4,8 C 17,7 km/h (3 Bft) 97,37 %
01.10.2018 22:14 9,5 C 12,8 C 8,9 C 76 % 1017,4 hPa 0,0 l/m 15,6 km/h (3 Bft) W-SW 258 0 min 0,000 mm 0,0 UV-I 0 W/m 5,5 C 4,3 C 22,5 km/h (4 Bft) 95,74 %
01.10.2018 22:16 9,5 C 12,8 C 8,9 C 76 % 1017,5 hPa 0,0 l/m 14,9 km/h (3 Bft) W 260 0 min 0,000 mm 0,0 UV-I 0 W/m 5,5 C 4,6 C 27,4 km/h (4 Bft) 97,87 %
01.10.2018 22:18 9,5 C 12,8 C 8,9 C 77 % 1017,4 hPa 0,0 l/m 12,2 km/h (2 Bft) W-SW 254 0 min 0,000 mm 0,0 UV-I 0 W/m 5,7 C 5,8 C 17,7 km/h (3 Bft) 100,00 %
01.10.2018 22:20 9,4 C 12,8 C 8,9 C 77 % 1017,4 hPa 0,0 l/m 10,1 km/h (2 Bft) W-NW 291 0 min 0,000 mm 0,0 UV-I 0 W/m 5,6 C 6,9 C 14,5 km/h (3 Bft) 98,00 %
01.10.2018 22:22 9,4 C 12,8 C 8,9 C 77 % 1017,4 hPa 0,0 l/m 15,3 km/h (3 Bft) W 277 0 min 0,000 mm 0,0 UV-I 0 W/m 5,6 C 4,3 C 27,4 km/h (4 Bft) 97,87 %
01.10.2018 22:24 9,4 C 12,8 C 8,9 C 78 % 1017,4 hPa 0,0 l/m 12,4 km/h (3 Bft) W 268 0 min 0,000 mm 0,0 UV-I 0 W/m 5,8 C 5,6 C 17,7 km/h (3 Bft) 95,74 %
01.10.2018 22:26 9,3 C 12,8 C 8,9 C 78 % 1017,5 hPa 0,0 l/m 15,8 km/h (3 Bft) W-SW 239 0 min 0,000 mm 0,0 UV-I 0 W/m 5,7 C 3,9 C 20,9 km/h (4 Bft) 100,00 %
01.10.2018 22:28 9,3 C 12,8 C 8,9 C 79 % 1017,5 hPa 0,0 l/m 15,6 km/h (3 Bft) W-SW 247 0 min 0,000 mm 0,0 UV-I 0 W/m 5,8 C 4,0 C 20,9 km/h (4 Bft) 97,92 %
01.10.2018 22:30 9,3 C 12,8 C 8,9 C 79 % 1017,5 hPa 0,0 l/m 12,4 km/h (3 Bft) W 263 0 min 0,000 mm 0,0 UV-I 0 W/m 5,8 C 5,5 C 20,9 km/h (4 Bft) 100,00 %
01.10.2018 22:32 9,3 C 12,8 C 8,9 C 79 % 1017,6 hPa 0,0 l/m 13,5 km/h (3 Bft) W 269 0 min 0,000 mm 0,0 UV-I 0 W/m 5,8 C 5,0 C 19,3 km/h (3 Bft) 97,87 %
01.10.2018 22:34 9,2 C 12,8 C 8,9 C 79 % 1017,6 hPa 0,0 l/m 12,8 km/h (3 Bft) SW 229 0 min 0,000 mm 0,0 UV-I 0 W/m 5,8 C 5,2 C 20,9 km/h (4 Bft) 100,00 %
01.10.2018 22:36 9,2 C 12,8 C 8,9 C 79 % 1017,6 hPa 0,0 l/m 10,4 km/h (2 Bft) W-SW 247 0 min 0,000 mm 0,0 UV-I 0 W/m 5,8 C 6,5 C 12,9 km/h (3 Bft) 97,87 %
01.10.2018 22:38 9,2 C 12,8 C 8,9 C 80 % 1017,6 hPa 0,0 l/m 12,8 km/h (3 Bft) W 265 0 min 0,000 mm 0,0 UV-I 0 W/m 5,9 C 5,2 C 19,3 km/h (3 Bft) 100,00 %
01.10.2018 22:40 9,2 C 12,8 C 8,3 C 80 % 1017,6 hPa 0,0 l/m 8,6 km/h (2 Bft) W-SW 257 0 min 0,000 mm 0,0 UV-I 0 W/m 5,9 C 7,6 C 12,9 km/h (3 Bft) 95,74 %
01.10.2018 22:42 9,2 C 12,8 C 8,3 C 80 % 1017,6 hPa 0,0 l/m 10,9 km/h (2 Bft) W 262 0 min 0,000 mm 0,0 UV-I 0 W/m 5,9 C 6,2 C 19,3 km/h (3 Bft) 100,00 %
01.10.2018 22:44 9,1 C 12,8 C 8,3 C 80 % 1017,7 hPa 0,0 l/m 12,6 km/h (3 Bft) W-SW 247 0 min 0,000 mm 0,0 UV-I 0 W/m 5,8 C 5,2 C 16,1 km/h (3 Bft) 100,00 %
01.10.2018 22:46 9,1 C 12,8 C 8,3 C 80 % 1017,6 hPa 0,0 l/m 8,8 km/h (2 Bft) SW 228 0 min 0,000 mm 0,0 UV-I 0 W/m 5,8 C 7,4 C 12,9 km/h (3 Bft) 97,87 %
01.10.2018 22:48 9,1 C 12,8 C 8,3 C 81 % 1017,6 hPa 0,0 l/m 8,0 km/h (2 Bft) W 259 0 min 0,000 mm 0,0 UV-I 0 W/m 6,0 C 7,9 C 12,9 km/h (3 Bft) 98,00 %
01.10.2018 22:50 9,1 C 12,8 C 8,3 C 81 % 1017,6 hPa 0,0 l/m 9,4 km/h (2 Bft) W 272 0 min 0,000 mm 0,0 UV-I 0 W/m 6,0 C 7,0 C 14,5 km/h (3 Bft) 100,00 %
01.10.2018 22:52 9,0 C 12,8 C 8,3 C 81 % 1017,6 hPa 0,0 l/m 9,6 km/h (2 Bft) W 269 0 min 0,000 mm 0,0 UV-I 0 W/m 5,9 C 6,7 C 12,9 km/h (3 Bft) 95,74 %
01.10.2018 22:54 9,0 C 12,8 C 8,3 C 81 % 1017,7 hPa 0,0 l/m 9,2 km/h (2 Bft) W-SW 244 0 min 0,000 mm 0,0 UV-I 0 W/m 5,9 C 7,0 C 12,9 km/h (3 Bft) 100,00 %
01.10.2018 22:56 8,9 C 12,8 C 8,3 C 82 % 1017,7 hPa 0,0 l/m 7,6 km/h (2 Bft) W 267 0 min 0,000 mm 0,0 UV-I 0 W/m 6,0 C 8,0 C 11,3 km/h (2 Bft) 100,00 %
01.10.2018 22:58 8,9 C 12,8 C 8,3 C 82 % 1017,7 hPa 0,0 l/m 7,0 km/h (2 Bft) W-SW 238 0 min 0,000 mm 0,0 UV-I 0 W/m 6,0 C 8,4 C 11,3 km/h (2 Bft) 100,00 %
01.10.2018 23:00 8,8 C 12,8 C 8,3 C 83 % 1017,8 hPa 0,0 l/m 6,0 km/h (2 Bft) W-SW 242 0 min 0,000 mm 0,0 UV-I 0 W/m 6,1 C 8,8 C 9,7 km/h (2 Bft) 100,00 %
01.10.2018 23:02 8,8 C 12,8 C 8,3 C 84 % 1017,8 hPa 0,0 l/m 8,1 km/h (2 Bft) W-SW 246 0 min 0,025 mm 0,0 UV-I 0 W/m 6,2 C 7,5 C 12,9 km/h (3 Bft) 100,00 %
01.10.2018 23:04 8,7 C 12,8 C 8,3 C 84 % 1017,8 hPa 0,0 l/m 8,0 km/h (2 Bft) W-SW 240 0 min 0,000 mm 0,0 UV-I 0 W/m 6,2 C 7,5 C 11,3 km/h (2 Bft) 100,00 %
01.10.2018 23:06 8,6 C 12,8 C 8,3 C 85 % 1017,9 hPa 0,0 l/m 7,4 km/h (2 Bft) W-SW 242 0 min 0,000 mm 0,0 UV-I 0 W/m 6,2 C 7,8 C 9,7 km/h (2 Bft) 100,00 %
01.10.2018 23:08 8,6 C 12,8 C 8,3 C 85 % 1017,9 hPa 0,0 l/m 6,2 km/h (2 Bft) SW 235 0 min 0,000 mm 0,0 UV-I 0 W/m 6,2 C 8,6 C 9,7 km/h (2 Bft) 100,00 %
01.10.2018 23:10 8,6 C 12,8 C 8,3 C 85 % 1017,9 hPa 0,0 l/m 5,5 km/h (1 Bft) SW 236 0 min 0,000 mm 0,0 UV-I 0 W/m 6,2 C 8,6 C 9,7 km/h (2 Bft) 100,00 %
01.10.2018 23:12 8,6 C 12,8 C 8,3 C 85 % 1017,9 hPa 0,0 l/m 6,6 km/h (2 Bft) SW 232 0 min 0,000 mm 0,0 UV-I 0 W/m 6,2 C 8,5 C 8,0 km/h (2 Bft) 100,00 %
01.10.2018 23:14 8,5 C 12,8 C 8,3 C 85 % 1017,9 hPa 0,0 l/m 6,4 km/h (2 Bft) W-SW 250 0 min 0,000 mm 0,0 UV-I 0 W/m 6,1 C 8,5 C 9,7 km/h (2 Bft) 97,87 %
01.10.2018 23:16 8,5 C 12,8 C 8,3 C 85 % 1017,9 hPa 0,0 l/m 6,8 km/h (2 Bft) SW 234 0 min 0,000 mm 0,0 UV-I 0 W/m 6,1 C 8,2 C 9,7 km/h (2 Bft) 100,00 %
01.10.2018 23:18 8,5 C 12,8 C 8,3 C 86 % 1017,9 hPa 0,0 l/m 8,1 km/h (2 Bft) SW 232 0 min 0,000 mm 0,0 UV-I 0 W/m 6,3 C 7,2 C 14,5 km/h (3 Bft) 94,29 %
01.10.2018 23:20 8,5 C 12,8 C 8,3 C 86 % 1018,0 hPa 0,0 l/m 10,3 km/h (2 Bft) W-SW 246 0 min 0,000 mm 0,0 UV-I 0 W/m 6,3 C 5,8 C 17,7 km/h (3 Bft) 96,15 %
01.10.2018 23:22 8,4 C 12,8 C 7,8 C 86 % 1018,0 hPa 0,0 l/m 13,3 km/h (3 Bft) SW 224 0 min 0,000 mm 0,0 UV-I 0 W/m 6,2 C 4,0 C 20,9 km/h (4 Bft) 93,62 %
01.10.2018 23:24 8,4 C 12,8 C 7,8 C 86 % 1018,0 hPa 0,0 l/m 14,3 km/h (3 Bft) S-SW 198 0 min 0,000 mm 0,0 UV-I 0 W/m 6,2 C 3,5 C 24,1 km/h (4 Bft) 97,87 %
01.10.2018 23:26 8,4 C 12,8 C 7,8 C 86 % 1018,0 hPa 0,0 l/m 14,9 km/h (3 Bft) W-SW 239 0 min 0,000 mm 0,0 UV-I 0 W/m 6,2 C 3,2 C 22,5 km/h (4 Bft) 97,87 %
01.10.2018 23:28 8,4 C 12,8 C 7,8 C 87 % 1018,0 hPa 0,0 l/m 15,8 km/h (3 Bft) S-SW 197 0 min 0,000 mm 0,0 UV-I 0 W/m 6,4 C 2,8 C 24,1 km/h (4 Bft) 95,74 %
01.10.2018 23:30 8,3 C 12,8 C 7,8 C 87 % 1018,0 hPa 0,0 l/m 15,6 km/h (3 Bft) W 259 0 min 0,000 mm 0,0 UV-I 0 W/m 6,3 C 2,8 C 22,5 km/h (4 Bft) 95,74 %
01.10.2018 23:32 8,3 C 12,8 C 7,8 C 87 % 1018,0 hPa 0,0 l/m 12,7 km/h (3 Bft) SW 235 0 min 0,000 mm 0,0 UV-I 0 W/m 6,3 C 4,2 C 20,9 km/h (4 Bft) 96,00 %
01.10.2018 23:34 8,2 C 12,8 C 7,2 C 88 % 1018,1 hPa 0,0 l/m 10,9 km/h (2 Bft) W-SW 244 0 min 0,000 mm 0,0 UV-I 0 W/m 6,3 C 5,1 C 16,1 km/h (3 Bft) 93,62 %
01.10.2018 23:36 8,2 C 12,8 C 7,2 C 88 % 1018,2 hPa 0,0 l/m 7,8 km/h (2 Bft) W 273 0 min 0,000 mm 0,0 UV-I 0 W/m 6,3 C 7,1 C 12,9 km/h (3 Bft) 97,14 %
01.10.2018 23:38 8,2 C 12,8 C 7,2 C 88 % 1018,2 hPa 0,2 l/m 9,1 km/h (2 Bft) SW 234 0 min 0,000 mm 0,0 UV-I 0 W/m 6,3 C 6,2 C 14,5 km/h (3 Bft) 94,00 %
01.10.2018 23:40 8,1 C 12,8 C 7,2 C 89 % 1018,1 hPa 0,0 l/m 10,1 km/h (2 Bft) W-SW 240 0 min 0,000 mm 0,0 UV-I 0 W/m 6,4 C 5,4 C 17,7 km/h (3 Bft) 95,74 %
01.10.2018 23:42 8,1 C 12,8 C 7,2 C 89 % 1018,1 hPa 0,0 l/m 9,0 km/h (2 Bft) W-SW 237 0 min 0,000 mm 0,0 UV-I 0 W/m 6,4 C 6,1 C 16,1 km/h (3 Bft) 96,00 %
01.10.2018 23:44 8,1 C 12,8 C 7,2 C 89 % 1018,1 hPa 0,0 l/m 10,7 km/h (2 Bft) W-SW 244 0 min 0,000 mm 0,0 UV-I 0 W/m 6,4 C 5,1 C 14,5 km/h (3 Bft) 97,92 %
01.10.2018 23:46 8,0 C 12,8 C 7,2 C 89 % 1018,2 hPa 0,0 l/m 8,0 km/h (2 Bft) W-SW 245 0 min 0,000 mm 0,0 UV-I 0 W/m 6,3 C 6,8 C 12,9 km/h (3 Bft) 97,87 %
01.10.2018 23:48 8,0 C 12,8 C 7,2 C 90 % 1018,1 hPa 0,0 l/m 10,2 km/h (2 Bft) W-SW 241 0 min 0,000 mm 0,0 UV-I 0 W/m 6,5 C 5,3 C 14,5 km/h (3 Bft) 97,87 %
01.10.2018 23:50 7,9 C 12,8 C 7,2 C 90 % 1018,2 hPa 0,0 l/m 7,4 km/h (2 Bft) W 264 0 min 0,000 mm 0,0 UV-I 0 W/m 6,4 C 7,1 C 14,5 km/h (3 Bft) 95,74 %
01.10.2018 23:52 7,9 C 12,8 C 7,2 C 90 % 1018,1 hPa 0,0 l/m 5,9 km/h (2 Bft) W 259 0 min 0,000 mm 0,0 UV-I 0 W/m 6,4 C 7,9 C 9,7 km/h (2 Bft) 96,00 %
01.10.2018 23:54 7,9 C 12,8 C 7,2 C 90 % 1018,1 hPa 0,0 l/m 4,6 km/h (1 Bft) W-SW 257 0 min 0,000 mm 0,0 UV-I 0 W/m 6,4 C 7,9 C 6,4 km/h (2 Bft) 97,87 %
01.10.2018 23:56 7,9 C 12,8 C 7,2 C 90 % 1018,0 hPa 0,0 l/m 3,6 km/h (1 Bft) W-SW 252 0 min 0,000 mm 0,0 UV-I 0 W/m 6,4 C 7,9 C 4,8 km/h (1 Bft) 97,87 %
01.10.2018 23:58 7,9 C 12,8 C 7,2 C 90 % 1018,0 hPa 0,0 l/m 3,1 km/h (1 Bft) W-SW 250 0 min 0,000 mm 0,0 UV-I 0 W/m 6,4 C 7,9 C 4,8 km/h (1 Bft) 97,87 %
_ Min-Zeit 04:28 20:26 03:36 22:02 06:18 - 01:30 - - - - - - 04:28 19:06 01:30 00:10
Minimum _ 4,7 C 12,8 C 2,8 C 76 % 1009,5 hPa - 0,0 km/h (0 Bft) - - - - - - 3,7 C 0,7 C 0,0 km/h (0 Bft) 89,36 %
_ Max-Zeit 14:24 00:00 13:10 04:40 23:36 09:42 19:06 - - 07:14 12:00 13:08 13:08 14:28 14:20 19:42 00:36
Maximum _ 10,8 C 13,9 C 12,2 C 95 % 1018,2 hPa 0,2 l/m 29,7 km/h
SW (5 Bft)
- - 2 min 0,051 mm 0,9 UV-I 161 W/m 9,6 C 10,7 C 49,9 km/h
W-SW (6 Bft)
100,00 %
Durchschnitt _ 8,2 C 13,3 C 7,9 C 91 % 1012,6 hPa #2,0 l/m 8,0 km/h (2 Bft) W-SW - #2 min. #0,533 mm 0,6 UV-I 56 W/m 6,7 C 6,1 C 12,4 km/h (3 Bft) 97,21 %